     2              OBSERVATION DATA    GPS                 RINEX VERSION / TYPE
teqc 2002Apr3 20070502 23:24:34UTC                          PGM / RUN BY / DATE
                                                            COMMENT
L2: 1 -> 1; 150 -> 5; 250 -> 9                              COMMENT
L2: 1 -> 1; 150 -> 5; 250 -> 9                              COMMENT
L2: 1 -> 1; 150 -> 5; 250 -> 9                              COMMENT
L2: 1 -> 1; 150 -> 5; 250 -> 9                              COMMENT
L2: 1 -> 1; 150 -> 5; 250 -> 9                              COMMENT
Original Marker Name: PAIN                                  COMMENT
Campaign Name: Painted Canyon Array                         COMMENT
4-Character Station Name: PAIN                              COMMENT
6-Character Antenna Code: DMRCHT                            COMMENT
Vertical Measurement Point: BCR                             COMMENT
Vertical Offset to Rinex Ref. Point: 0.0348                 COMMENT
Radial Measurement Point: ECF                               COMMENT
Radial Offset to Rinex Ref. Point: 0.1897                   COMMENT
Antenna Height from Field Measurement: 1.1050 m             COMMENT
Additional Antenna Identification Info.:                    COMMENT
Turborogue and Ashtech Choke Ring                           COMMENT
Original XYZ: 0.0000 0.0000 0.0000                          COMMENT
New XYZ position is based on association with SCEC monument COMMENT
E1D0M0Q2+0011. Position of that monument is believed to be  COMMENT
valid to within 1 m horizontally; vertical accuracy         COMMENT
should be no worse than 3-times this value.                 COMMENT
                                                            COMMENT
Revised Rinex header created by UCSD GPS archive for        COMMENT
GSAC on 09-Jun-2007 (2007:160) 17:15:18 GMT                 COMMENT
For assistance contact dagnew@ucsd.edu                      COMMENT
or anderson@python.ucsd.edu                                 COMMENT
                                                            COMMENT
PAINTED CANYON                                              MARKER NAME
-Unknown- SCRIPPS INSTITUTION OF OCEANOGRAPHY               OBSERVER / AGENCY
312 ASHTECH Z-XII3 CC00                                     REC # / TYPE / VERS
003 DORNE-MARGOL. TYPE T                                    ANT # / TYPE
 -2331649.0000 -4778792.0000  3510741.0000                  APPROX POSITION XYZ
        1.0538        0.0000        0.0000                  ANTENNA: DELTA H/E/N
     1     1     0                                          WAVELENGTH FACT L1/2
     7    C1    L1    L2    P1    P2    S1    S2            # / TYPES OF OBSERV
    30                                                      INTERVAL
  2007     2    17    15    46    5.000000                  TIME OF FIRST OBS
  2007     2    17    20    36    0.000000                  TIME OF LAST OBS
                                                            END OF HEADER
 07  2 17 15 46  5.0000000  0  2G 9G12
  21527314.3464    -172620.65559   -122234.04547  21527313.8314   21527317.0764
       240.0004        201.0004
  22260061.5234    -331821.18459   -213798.33147  22260060.8614   22260062.3944
       236.0004        193.0004
 07  2 17 15 46 10.0000000  0  2G 9G12
  21525297.2724    -183217.79449   -130491.55347  21525297.3074   21525300.6564
       240.0004        202.0004
  22254048.4644    -363412.95749   -238415.29347  22254049.0324   22254050.3554
       235.0004        194.0004
 07  2 17 15 46 15.0000000  0  2G 9G12
  21523285.1154    -193793.39249   -138732.28347  21523284.7104   21523287.9884
       240.0004        202.0004
  22248038.8534    -394993.76449   -263023.70947  22248039.0334   22248041.1424
       236.0004        195.0004
 07  2 17 15 46 20.0000000  0  2G 9G12
  21521276.4134    -204347.53049   -146956.29147  21521276.4604   21521279.7644
       240.0004        202.0004
  22242033.2374    -426563.65349   -287623.61747  22242031.8224   22242033.4004
       237.0004        195.0004
 07  2 17 15 46 25.0000000  0  2G 9G12
  21519272.7904    -214881.04349   -155164.21947  21519271.7484   21519275.4454
       240.0004        202.0004
  22236025.5964    -458123.43649   -312215.66247  22236026.2594   22236028.0584
       235.0004        196.0004
 07  2 17 15 46 30.0000000  0  2G 9G12
  21517272.4574    -225393.02449   -163355.37647  21517271.5634   21517275.1434
       240.0004        202.0004
  22230022.8284    -489672.19049   -336799.09747  22230022.6164   22230024.6554
       236.0004        196.0004
 07  2 17 15 46 35.0000000  0  2G 9G12
  21515276.0614    -235884.17649   -171530.30047  21515275.1254   21515278.8164
       240.0004        202.0004
  22224020.2794    -521210.59749   -361374.47447  22224021.1004   22224022.9894
       235.0004        196.0004
 07  2 17 15 46 40.0000000  0  2G 9G12
  21513283.3104    -246356.09949   -179690.23947  21513282.3754   21513285.9664
       240.0004        202.0004
  22218021.0734    -552740.28049   -385943.05947  22218021.1444   22218023.1014
       236.0004        196.0004
 07  2 17 15 46 45.0000000  0  2G 9G12
  21511294.5174    -256807.15549   -187833.92347  21511293.5514   21511297.1314
       240.0004        202.0004
  22212022.9184    -584259.55149   -410503.52547  22212022.9864   22212025.0724
       235.0004        196.0004
 07  2 17 15 46 50.0000000  0  2G 9G12
  21509309.4664    -267238.29449   -195962.08847  21509308.8954   21509311.8284
       240.0004        202.0004
  22206027.9174    -615769.37549   -435056.63247  22206027.1674   22206029.0944
       237.0004        196.0004
 07  2 17 15 46 55.0000000  0  2G 9G12
  21336579.0394   -1174942.60149   -903264.14347  21336578.2844   21336581.5574
       240.0004        202.0004
  22029282.8014   -1544565.14849  -1158793.59747  22029283.2954   22029284.8204
       235.0004        197.0004
 07  2 17 15 47  0.0000000  0  2G 9G12
  21338227.2884   -1166280.89949   -896514.76347  21338226.7234   21338229.5254
       241.0004        202.0004
  22026915.4184   -1557002.86449  -1168485.31547  22026916.1934   22026918.2774
       237.0004        197.0004
 07  2 17 15 47  5.0000000  0  2G 9G12
  21339878.5774   -1157603.09949   -889752.84547  21339877.8604   21339881.3644
       240.0004        202.0004
  22024549.5254   -1569434.88049  -1178172.59647  22024550.5314   22024552.5754
       236.0004        197.0004
 07  2 17 15 47 10.0000000  0  2G 9G12
  21341532.9944   -1148909.04749   -882978.25947  21341532.1454   21341535.9104
       240.0004        202.0004
  22022184.8814   -1581860.97149  -1187855.26447  22022186.0984   22022188.0304
       236.0004        197.0004
 07  2 17 15 47 15.0000000  0  2G 9G12
  21343190.1254   -1140200.64549   -876192.49447  21343189.3974   21343192.9544
       240.0004        202.0004
  22019821.0584   -1594283.05249  -1197534.80347  22019822.2344   22019824.3454
       236.0004        197.0004
 07  2 17 15 47 20.0000000  0  2G 9G12
  21344850.0344   -1131477.70949   -869395.40147  21344849.2584   21344852.5524
       240.0004        202.0004
  22017458.0664   -1606700.91249  -1207211.05747  22017459.1204   22017460.9374
       236.0004        197.0004
 07  2 17 15 47 25.0000000  0  2G 9G12
  21346512.6624   -1122740.39849   -862587.10847  21346512.0274   21346515.2894
       240.0004        202.0004
  22015095.8274   -1619114.68249  -1216884.12147  22015096.9364   22015098.9294
       236.0004        197.0004
 07  2 17 15 47 30.0000000  0  2G 9G12
  21348178.0704   -1113988.52349   -855767.46647  21348177.5844   21348180.8814
       240.0004        202.0004
  22012734.4554   -1631524.20549  -1226553.87447  22012735.3804   22012737.1044
       236.0004        197.0004
 07  2 17 15 47 35.0000000  0  2G 9G12
  21349846.2744   -1105221.95849   -848936.37947  21349845.8694   21349848.8394
       239.0004        201.0004
  22010373.9194   -1643929.30749  -1236220.18247  22010374.8454   22010377.1124
       236.0004        197.0004
 07  2 17 15 47 40.0000000  0  2G 9G12
  21351517.2694   -1096440.78049   -842093.90247  21351516.6134   21351520.0534
       240.0004        201.0004
  22008014.2384   -1656329.99349  -1245883.05947  22008015.3584   22008016.7074
       236.0004        197.0004
 07  2 17 15 47 45.0000000  0  2G 9G12
  21353191.0584   -1087644.87149   -835239.94847  21353190.5044   21353193.9754
       240.0004        201.0004
  22005655.4194   -1668726.17349  -1255542.41347  22005655.8414   22005657.9344
       237.0004        197.0004
 07  2 17 15 47 50.0000000  0  2G 9G12
  21354867.6364   -1078834.39949   -828374.64947  21354866.9434   21354870.3004
       240.0004        201.0004
  22003297.3984   -1681117.94249  -1265198.33547  22003297.9744   22003299.6264
       236.0004        197.0004
 07  2 17 15 47 55.0000000  0  2G 9G12
  21356547.0264   -1070009.17149   -821497.84647  21356546.2914   21356550.0214
       239.0004        201.0004
  22000940.2774   -1693505.10549  -1274850.66847  22000941.1854   22000942.6914
       236.0004        197.0004
 07  2 17 15 48  0.0000000  0  2G 9G12
  21358229.1784   -1061169.39649   -814609.71847  21358228.8464   21358231.8564
       239.0004        201.0004
  21998583.9454   -1705887.88149  -1284499.58047  21998584.3374   21998586.3944
       236.0004        197.0004
 07  2 17 15 48  5.0000000  0  2G 9G12
  21359914.1154   -1052314.87049   -807710.08447  21359913.7094   21359917.1304
       240.0004        201.0004
  21996228.5364   -1718266.02649  -1294144.88547  21996228.9584   21996231.0384
       236.0004        197.0004
 07  2 17 15 48 10.0000000  0  2G 9G12
  21361601.8284   -1043445.76749   -800799.09547  21361601.4814   21361604.9254
       239.0004        201.0004
  21993873.9384   -1730639.70649  -1303786.70947  21993874.2384   21993876.1734
       236.0004        197.0004
 07  2 17 15 48 15.0000000  0  2G 9G12
  21363292.3554   -1034561.94049   -793876.63647  21363291.8614   21363295.2794
       239.0004        201.0004
  21991520.2294   -1743008.76349  -1313424.93447  21991520.7774   21991522.7954
       236.0004        197.0004
 07  2 17 15 48 20.0000000  0  2G 9G12
  21364985.6964   -1025663.39649   -786942.71047  21364985.4784   21364988.5354
       239.0004        201.0004
  21989167.3584   -1755373.20249  -1323059.55447  21989167.4364   21989169.4094
       236.0004        197.0004
 07  2 17 15 48 25.0000000  0  2G 9G12
  21366681.7964   -1016750.23849   -779997.39547  21366681.4044   21366684.6024
       240.0004        201.0004
  21986815.3734   -1767733.09849  -1332690.64547  21986816.1644   21986817.7384
       236.0004        197.0004
 07  2 17 15 48 30.0000000  0  2G 9G12
  21368380.7014   -1007822.41549   -773040.65147  21368380.2684   21368383.7694
       239.0004        201.0004
  21984464.2764   -1780088.30549  -1342318.07147  21984464.5924   21984466.4524
       236.0004        197.0004
 07  2 17 15 48 35.0000000  0  5G 4G17G 5G 9G12
  20768907.1904    -652480.13759   -496718.18147  20768907.0254   20768909.9904
       243.0004        206.0004
  23383231.0804    -603611.82359   -463708.67946  23383230.8464   23383232.9894
       221.0004        164.0004
  22101093.7894    -877271.05959   -654519.45246  22101091.6234   22101094.7854
       229.0004        176.0004
  21370082.1804    -998881.13249   -766073.41647  21370082.2504   21370085.1074
       240.0004        201.0004
  21982113.8414   -1792440.02849  -1351942.79247  21982114.2794   21982116.1754
       236.0004        197.0004
 07  2 17 15 48 40.0000000  0  5G 4G17G 5G 9G12
  20770467.2484    -644280.21549   -490328.63047  20770467.2954   20770470.1904
       243.0004        207.0004
  23385502.7394    -591666.21049   -454400.41346  23385503.7534   23385506.0974
       222.0004        165.0004
  22098483.2554    -890977.04549   -665199.44946  22098483.5184   22098487.0624
       227.0004        177.0004
  21371786.5124    -989924.73849   -759094.40947  21371786.3904   21371789.3464
       240.0004        201.0004
  21979764.3744   -1804786.63649  -1361563.52447  21979764.8054   21979766.5694
       236.0004        197.0004
 07  2 17 15 48 45.0000000  0  5G 4G17G 5G 9G12
  20772030.7844    -636066.39749   -483928.25547  20772030.6824   20772033.3594
       244.0004        207.0004
  23387777.2084    -579719.90749   -445091.62046  23387777.1094   23387779.3474
       222.0004        166.0004
  22095876.7574    -904677.55849   -675875.16946  22095876.4934   22095879.8224
       227.0004        177.0004
  21373493.6704    -980953.77349   -752104.04747  21373493.1694   21373496.7354
       239.0004        201.0004
  21977415.7604   -1817128.60749  -1371180.64147  21977415.7824   21977418.4424
       236.0004        197.0004
 07  2 17 15 48 50.0000000  0  5G 4G17G 5G 9G12
  20773596.1104    -627838.70949   -477517.06147  20773596.0494   20773598.9004
       243.0004        207.0004
  23390050.4404    -567773.00649   -435782.34446  23390049.4464   23390052.3824
       221.0004        167.0004
  22093270.9574    -918372.71949   -686546.71546  22093270.7574   22093273.6964
       227.0004        178.0004
  21375203.5484    -971968.32549   -745102.40547  21375203.1554   21375206.7494
       240.0004        201.0004
  21975068.0364   -1829466.10549  -1380794.27047  21975067.9874   21975070.4244
       236.0004        197.0004
 07  2 17 15 48 55.0000000  0  5G 4G17G 5G 9G12
  20775164.2564    -619596.40449   -471094.48847  20775164.4434   20775167.3524
       243.0004        207.0004
  23392322.5234    -555824.73749   -426472.01846  23392323.7014   23392326.6104
       221.0004        167.0004
  22090665.6124    -932061.80349   -697213.53246  22090664.9614   22090669.5324
       228.0004        178.0004
  21376916.3134    -962967.68749   -738088.92047  21376915.6594   21376919.3874
       240.0004        201.0004
  21972721.2774   -1841798.37049  -1390403.82747  21972721.8114   21972723.5714
       237.0004        197.0004
 07  2 17 15 49  0.0000000  0  5G 4G17G 5G 9G12
  20776736.0074    -611341.56749   -464662.14947  20776735.4154   20776738.2324
       243.0004        207.0004
  23394599.9534    -543877.10949   -417162.18046  23394597.1474   23394599.5774
       222.0004        168.0004
  22088062.8064    -945746.69349   -707877.08746  22088061.5334   22088065.1354
       228.0004        178.0004
  21378631.5614    -953953.87949   -731065.17647  21378630.8624   21378634.4774
       238.0004        201.0004
  21970375.1604   -1854127.35349  -1400010.82847  21970375.6354   21970377.6294
       236.0004        197.0004
 07  2 17 15 49  5.0000000  0  5G 4G17G 5G 9G12
  20778308.8574    -603072.58149   -458218.77847  20778309.1164   20778312.0064
       243.0004        208.0004
  23396868.9644    -531928.58149   -407851.63146  23396871.1034   23396873.7734
       218.0004        168.0004
  22085458.8264    -959425.90149   -718536.19446  22085458.5854   22085461.8744
       228.0004        179.0004
  21380349.6414    -944925.33049   -724029.94347  21380349.3024   21380352.2914
       240.0004        201.0004
  21968029.9654   -1866451.50849  -1409614.06347  21968030.2394   21968031.8454
       235.0004        197.0004
 07  2 17 15 49 10.0000000  0  5G 4G17G 5G 9G12
  20779885.7874    -594788.55949   -451763.70347  20779885.5754   20779888.3684
       243.0004        208.0004
  23399146.4174    -519978.16749   -398539.63446  23399146.0784   23399147.8564
       222.0004        168.0004
  22082857.0174    -973098.41749   -729190.10946  22082856.3274   22082859.7414
       227.0004        179.0004
  21382070.6904    -935881.12349   -716982.51247  21382070.4714   21382073.4604
       239.0004        200.0004
  21965685.8404   -1878769.85349  -1419212.76347  21965685.8624   21965688.1684
       236.0004        197.0004
 07  2 17 15 49 15.0000000  0  5G 4G17G 5G 9G12
  20781465.9034    -586490.92249   -445297.99947  20781464.0724   20781467.4174
       242.0004        208.0004
  23401421.0324    -508027.38549   -389227.32946  23401418.9554   23401422.1124
       221.0004        168.0004
  22080256.5404    -986765.74249   -739839.96646  22080255.7174   22080259.7354
       229.0004        179.0004
  21383794.4254    -926822.70949   -709924.00847  21383793.7684   21383797.3924
       240.0004        201.0004
  21963342.5854   -1891083.78349  -1428808.03947  21963342.8344   21963344.7214
       236.0004        197.0004
 07  2 17 15 49 20.0000000  0  5G 4G17G 5G 9G12
  20783047.6944    -578179.09649   -438821.26447  20783046.2264   20783049.0154
       244.0004        208.0004
  23403695.4284    -496075.61149   -379914.27146  23403694.4394   23403696.5044
       222.0004        168.0004
  22077657.1044   -1000427.22349   -750485.28246  22077655.8274   22077659.7704
       228.0004        179.0004
  21385521.0074    -917749.52249   -702853.98947  21385520.7224   21385523.9464
       240.0004        201.0004
  21961000.2834   -1903392.80349  -1438399.46847  21961000.0464   21961002.4524
       237.0004        197.0004
 07  2 17 15 49 25.0000000  0  5G 4G17G 5G 9G12
  20784632.3574    -569852.32049   -432332.85847  20784630.5404   20784633.5604
       242.0004        208.0004
  23405970.1364    -484122.11149   -370599.86646  23405968.1254   23405971.1574
       222.0004        168.0004
  22075058.5024   -1014082.11149   -761125.45646  22075057.7664   22075061.0364
       227.0004        179.0004
  21387250.5484    -908660.73949   -695771.82847  21387250.3454   21387253.6864
       240.0004        201.0004
  21958659.0754   -1915696.01549  -1447986.39547  21958659.2374   21958661.3484
       235.0004        197.0004
 07  2 17 15 49 30.0000000  0  5G 4G17G 5G 9G12
  20786219.5994    -561511.17849   -425833.27347  20786217.9414   20786220.7764
       244.0004        208.0004
  23408245.0964    -472167.36649   -361284.47946  23408243.5804   23408245.5794
       222.0004        168.0004
  22072461.0684   -1027730.91549   -771760.87246  22072460.6634   22072463.7124
       230.0004        179.0004
  21388982.9424    -899556.93349   -688677.94947  21388982.5464   21388986.0314
       239.0004        201.0004
  21956318.8574   -1927994.01949  -1457569.24647  21956318.7574   21956321.0484
       235.0004        197.0004
 07  2 17 15 49 35.0000000  0  6G 4G 2G17G 5G 9G12
  20787809.5044    -553155.94649   -419322.69847  20787807.8904   20787810.8964
       242.0004        208.0004
                   -624819.41759   -455103.88643
       245.0004         74.0004
  23410520.1624    -460211.70249   -351968.37946  23410518.9154   23410521.0144
       222.0004        168.0004
  22069864.9854   -1041373.91149   -782391.78246  22069864.0414   22069867.8624
       227.0004        180.0004
  21390718.1574    -890438.38849   -681572.59847  21390717.9244   21390721.1394
       240.0004        201.0004
  21953979.5714   -1940287.07949  -1467148.25447  21953979.7764   21953981.4124
       235.0004        197.0004
 07  2 17 15 49 40.0000000  0  6G 4G 2G17G 5G 9G12
  20789401.9884    -544786.63249   -412801.15147  20789400.2984   20789403.3824
       243.0004        208.0004
                   -632523.52649   -461012.55943
       245.0004         74.0004
  23412795.3904    -448255.06849   -342651.52046  23412793.7704   23412796.8614
       223.0004        169.0004
  22067269.9464   -1055011.12249   -793018.17546  22067269.2474   22067272.2784
       228.0004        180.0004
  21392456.1534    -881305.13949   -674455.77947  21392456.1814   21392459.0664
       240.0004        201.0004
  21951641.2414   -1952575.14649  -1476723.36747  21951641.2754   21951643.5714
       236.0004        197.0004
 07  2 17 15 49 45.0000000  0  6G 4G 2G17G 5G 9G12
  20790997.0754    -536403.44949   -406268.80147  20790995.7934   20790998.8044
       243.0004        208.0004
                   -640213.71049   -466908.98943
       245.0004         74.0004
  23415070.8114    -436297.66749   -333334.05846  23415069.1054   23415072.2674
       220.0004        169.0004
  22064675.9134   -1068642.68049   -803640.15646  22064675.2034   22064678.8334
       227.0004        180.0004
  21394196.9284    -872157.41849   -667327.68747  21394196.5964   21394199.7834
       239.0004        201.0004
  21949303.7974   -1964858.49749  -1486294.80747  21949303.7034   21949305.6944
       237.0004        197.0004
 07  2 17 15 49 50.0000000  0  6G 4G 2G17G 5G 9G12
  20792594.8844    -528006.19249   -399725.48447  20792593.7174   20792596.7214
       243.0004        208.0004
                   -647889.87649   -472793.26543
       245.0004         74.0004
  23417346.2744    -424339.38249   -324015.93746  23417344.6504   23417348.1314
       221.0004        169.0004
  22062082.9054   -1082268.45249   -814257.64346  22062081.9384   22062085.2994
       228.0004        180.0004
  21395940.4634    -862995.09149   -660188.21647  21395940.2794   21395943.2604
       240.0004        201.0004
  21946967.2864   -1977137.02349  -1495862.49347  21946967.5714   21946969.7494
       236.0004        197.0004
 07  2 17 15 49 55.0000000  0  6G 4G 2G17G 5G 9G12
  20794195.3254    -519595.12149   -393171.40247  20794194.2494   20794197.2654
       242.0004        208.0004
                   -655552.13149   -478666.01043
       246.0004         74.0004
  23419621.8794    -412380.38849   -314697.24346  23419620.5544   23419623.0334
       220.0004        169.0004
  22059491.0374   -1095888.62149   -824870.76846  22059490.2034   22059493.1984
       229.0004        180.0004
  21397686.7564    -853818.31249   -653037.48047  21397686.4204   21397689.7344
       239.0004        201.0004
  21944631.7244   -1989410.72149  -1505426.41047  21944631.9774   21944633.9734
       236.0004        197.0004
 07  2 17 15 50  0.0000000  0  6G 4G 2G17G 5G 9G12
  20795798.3864    -511170.27349   -386606.58347  20795797.2394   20795800.2894
       244.0004        208.0004
                   -663200.50449   -484527.80343
       245.0004         74.0004
  23421897.6114    -400420.66049   -305377.97546  23421895.9794   23421899.3894
       219.0004        169.0004
  22056900.2524   -1109503.14849   -835479.48446  22056899.4564   22056902.7284
       229.0004        180.0004
  21399435.7884    -844627.08649   -645875.48047  21399435.4394   21399438.7844
       240.0004        201.0004
  21942297.0234   -2001679.64849  -1514986.61147  21942297.1644   21942299.4034
       236.0004        197.0004
 07  2 17 15 50  5.0000000  0  6G 4G 2G17G 5G 9G12
  20797404.0994    -502731.67649   -380031.05247  20797403.2274   20797406.2764
       242.0004        208.0004
                   -670835.07949   -490379.15043
       245.0004         74.0004
  23424173.4694    -388460.31349   -296058.23446  23424171.7034   23424175.7504
       221.0004        168.0004
  22054310.5914   -1123112.13049   -846083.89046  22054309.7894   22054313.3414
       230.0004        180.0004
  21401187.5614    -835421.52949   -638702.33147  21401187.3364   21401190.7794
       240.0004        201.0004
  21939963.1974   -2013943.89249  -1524543.14947  21939963.3094   21939965.3714
       236.0004        198.0004
 07  2 17 15 50 10.0000000  0  6G 4G 2G17G 5G 9G12
  20799012.4184    -494279.35149   -373444.82647  20799011.7344   20799014.7204
       244.0004        208.0004
                   -678455.852 9    490379.151 1
       245.000
  23426449.4464    -376499.33249   -286737.99946  23426448.6274   23426450.9564
       222.0004        168.0004
  22051722.0134   -1136715.55849   -856683.96046  22051721.5614   22051724.7404
       228.0004        180.0004
  21402942.0414    -826201.67449   -631518.02547  21402941.9024   21402945.5244
       239.0004        201.0004
  21937630.2944   -2026203.38249  -1534096.00447  21937630.1454   21937632.3854
       237.0004        198.0004
 07  2 17 15 50 15.0000000  0  6G 4G 2G17G 5G 9G12
  20800623.3714    -485813.31649   -366847.91547  20800622.9384   20800625.6304
       243.0004        208.0004
                   -686062.83349   -119951.76743
       245.0004         74.0004
  23428725.5984    -364537.72649   -277417.26446  23428724.4124   23428727.8044
       220.0004        168.0004
  22049134.4314   -1150313.38149   -867279.66446  22049133.3934   22049137.2164
       227.0004        180.0004
  21404699.2634    -816967.49549   -624322.56147  21404698.9854   21404702.3284
       240.0004        201.0004
  21935298.3024   -2038458.14549  -1543645.17447  21935298.2394   21935300.5904
       237.0004        198.0004
 07  2 17 15 50 20.0000000  0  6G 4G 2G17G 5G 9G12
  20802236.9924    -477333.48349   -360240.24547  20802236.4814   20802239.2654
       243.0004        208.0004
                   -693655.83749   -125871.83143
       246.0004         77.0004
  23431001.9114    -352575.33749   -268095.92546  23431001.2454   23431003.2144
       222.0004        168.0004
  22046547.9104   -1163905.48549   -877870.90746  22046547.1734   22046551.2274
       228.0004        180.0004
  21406459.2104    -807718.85049   -617115.82947  21406459.1574   21406462.4144
       239.0004        201.0004
  21932967.2494   -2050708.00749  -1553190.51947  21932967.2034   21932969.5764
       236.0004        198.0004
 07  2 17 15 50 25.0000000  0  6G 4G 2G17G 5G 9G12
  20803853.3034    -468839.43349   -353621.51447  20803853.0524   20803855.8814
       243.0004        208.0004
                   -701234.56049   -131780.29243
       245.0004         85.0004
  23433278.4524    -340611.86249   -258773.73846  23433277.4504   23433279.2904
       222.0004        168.0004
  22043962.5414   -1177491.49549   -888457.40746  22043961.9434   22043964.8504
       229.0004        180.0004
  21408222.0014    -798455.46749   -609897.60647  21408221.7864   21408225.0584
       239.0004        201.0004
  21930637.1914   -2062952.68249  -1562731.81947  21930637.1564   21930639.4104
       235.0004        198.0004
 07  2 17 15 50 30.0000000  0  6G 4G 2G17G 5G 9G12
  20805472.3024    -460331.36649   -346991.84347  20805471.8424   20805474.7854
       243.0004        208.0004
                   -708799.12349   -137677.82343
       246.0004         85.0004
  23435555.1764    -328647.40549   -249450.78946  23435553.7744   23435557.0924
       221.0004        167.0004
  22041378.3164   -1191071.55249   -899039.26446  22041377.6724   22041380.6004
       229.0004        180.0004
  21409987.5464    -789177.45149   -602667.98447  21409987.1744   21409990.5054
       239.0004        201.0004
  21928308.0434   -2075192.27149  -1572269.15147  21928307.9484   21928310.4254
       236.0004        198.0004
 07  2 17 15 50 35.0000000  0  6G 4G 2G17G 5G 9G12
  20807093.9124    -451809.59449   -340351.50447  20807093.5694   20807096.4524
       244.0004        208.0004
                   -716349.78549   -143564.06443
       245.0004         82.0004
  23437832.0164    -316682.30749   -240127.33746  23437832.0474   23437833.8754
       221.0004        167.0004
  22038795.1624   -1204645.92249   -909616.70146  22038795.0504   22038798.4024
       230.0004        181.0004
  21411755.8334    -779885.09149   -595427.18947  21411755.5304   21411759.3044
       240.0004        201.0004
  21925979.8224   -2087427.07149  -1581802.75747  21925979.8504   21925982.1044
       238.0004        198.0004
 07  2 17 15 50 40.0000000  0  6G 4G 2G17G 5G 9G12
  20808718.1504    -443274.17849   -333700.52647  20808717.6954   20808720.5304
       243.0004        208.0004
                   -723886.70749   -149437.39944
       245.0004         95.0004
  23440108.9884    -304716.64849   -230803.44846  23440107.8914   23440109.9984
       218.0004        167.0004
  22036213.1434   -1218214.76349   -920189.82446  22036213.1174   22036216.0824
       228.0004        181.0004
  21413526.8024    -770578.53349   -588175.32747  21413526.5844   21413529.9224
       239.0004        201.0004
  21923652.5544   -2099657.17249  -1591332.71947  21923652.8614   21923654.7914
       237.0004        198.0004
 07  2 17 15 50 45.0000000  0  6G 4G 2G17G 5G 9G12
  20810344.9574    -434725.01149   -327038.84047  20810344.5184   20810347.4284
       243.0004        208.0004
                   -731409.68849   -155299.53644
       246.0004        116.0004
  23442386.0444    -292750.25649   -221479.00546  23442385.8344   23442387.6094
       222.0004        167.0004
  22033632.1914   -1231777.86549   -930758.47246  22033631.3044   22033634.7954
       228.0004        181.0004
  21415300.5264    -761257.63049   -580912.28747  21415300.3364   21415303.4474
       239.0004        201.0004
  21921326.1794   -2111882.45049  -1600858.90347  21921326.2624   21921328.3364
       238.0004        198.0004
 07  2 17 15 50 50.0000000  0  6G 4G 2G17G 5G 9G12
  20811974.3724    -426162.27549   -320366.57647  20811973.9804   20811976.7304
       243.0004        208.0004
                   -738918.83949   -161150.82944
       245.0004        127.0004
  23444663.2574    -280783.28149   -212154.08046  23444662.6984   23444664.9084
       219.0004        166.0004
  22031052.3084   -1245335.30949   -941322.70446  22031050.8714   22031055.1964
       228.0004        181.0004
  21417076.9244    -751922.51549   -573638.17247  21417076.5764   21417080.2334
       239.0004        200.0004
  21919000.7154   -2124102.94849  -1610381.36847  21919000.8914   21919003.1064
       235.0004        198.0004
 07  2 17 15 50 55.0000000  0  6G 4G 2G17G 5G 9G12
  20813606.3764    -417586.02249   -313683.77847  20813606.0504   20813608.9784
       243.0004        208.0004
                   -746414.26849   -166991.40445
       246.0004        133.0004
  23446940.5524    -268815.79549   -202828.77246  23446940.1014   23446942.4654
       218.0004        166.0004
  22028473.4594   -1258887.19649   -951882.62246  22028473.0154   22028476.3904
       230.0004        181.0004
  21418856.0094    -742573.32049   -566353.08547  21418855.9654   21418859.2904
       239.0004        200.0004
  21916676.1244   -2136318.78149  -1619900.18847  21916676.0014   21916678.2854
       235.0004        198.0004
 07  2 17 15 51  0.0000000  0  6G 4G 2G17G 5G 9G12
  20815240.9474    -408996.21249   -306990.42947  20815240.9094   20815243.6424
       243.0004        208.0004
                   -753895.89849   -172821.25845
       245.0004        137.0004
  23449217.9674    -256847.78349   -193503.06346  23449217.4154   23449220.8034
       218.0004        166.0004
  22025895.6714   -1272433.53149   -962438.19546  22025894.1114   22025898.3664
       229.0004        181.0004
  21420637.7914    -733209.98249   -559056.98147  21420637.3914   21420640.9084
       240.0004        201.0004
  21914352.4084   -2148529.86349  -1629415.32247  21914352.6394   21914354.2444
       237.0004        198.0004
 07  2 17 15 51  5.0000000  0  6G 4G 2G17G 5G 9G12
  20816878.0084    -400393.38549   -300286.91247  20816877.5964   20816880.6304
       243.0004        208.0004
                   -761364.25749   -178640.75245
       245.0004        139.0004
  23451495.3374    -244879.77549   -184177.34446  23451494.2784   23451497.4504
       219.0004        165.0004
  22023318.8404   -1285974.75549   -972989.80046  22023318.3244   22023321.7004
       230.0004        181.0004
  21422422.1834    -723833.00949   -551750.25247  21422421.7564   21422425.5234
       239.0004        201.0004
  21912029.5294   -2160736.71949  -1638927.16247  21912029.6974   21912031.4674
       236.0004        198.0004
 07  2 17 15 51 10.0000000  0  6G 4G 2G17G 5G 9G12
  20818517.6394    -391776.92949   -293572.80447  20818517.6104   20818520.2084
       242.0004        208.0004
                   -768818.71649   -184449.40745
       246.0004        141.0004
  23453772.8904    -232911.04649   -174851.07046  23453772.4914   23453775.1844
       220.0004        165.0004
  22020743.1404   -1299510.18849   -983536.89446  22020742.4774   22020746.3194
       229.0004        181.0004
  21424209.2814    -714441.78149   -544432.41547  21424208.8494   21424212.4934
       239.0004        201.0004
  21909707.5814   -2172938.68849  -1648435.17847  21909707.6254   21909709.4194
       238.0004        198.0004
 07  2 17 15 51 15.0000000  0  6G 4G 2G17G 5G 9G12
  20820159.8684    -383146.99549   -286848.16647  20820159.3644   20820162.4664
       243.0004        208.0004
                   -776259.43449   -190247.37645
       246.0004        142.0004
  23456050.5364    -220941.85849   -165524.43446  23456050.4344   23456053.1454
       220.0004        165.0004
  22018168.4854   -1313040.09949   -994079.68046  22018167.5004   22018171.3544
       228.0004        181.0004
  21425999.0664    -705036.51449   -537103.63847  21425998.7904   21426002.4664
       239.0004        200.0004
  21907386.5114   -2185135.99249  -1657939.58647  21907386.7824   21907388.4134
       237.0004        198.0004
 07  2 17 15 51 20.0000000  0  6G 4G 2G17G 5G 9G12
  20821804.6584    -374503.51549   -280113.00147  20821804.7454   20821807.1434
       243.0004        208.0004
                   -783686.30249   -196034.55145
       245.0004        143.0004
  23458328.2864    -208972.19249   -156197.42346  23458328.1974   23458330.6354
       219.0004        165.0004
  22015594.9024   -1326564.28549  -1004618.00346  22015594.0214   22015597.4404
       228.0004        181.0004
  21427791.5114    -695617.11649   -529763.85047  21427791.3394   21427794.5194
       239.0004        200.0004
  21905066.3914   -2197328.51249  -1667440.24147  21905066.5984   21905068.4624
       238.0004        198.0004
 07  2 17 15 51 25.0000000  0  6G 4G 2G17G 5G 9G12
  20823452.0324    -365846.46449   -273367.23947  20823451.4754   20823454.7894
       243.0004        208.0004
                   -791099.28449   -201810.91845
       246.0004        144.0004
  23460606.1724    -197001.87549   -146869.92046  23460605.6014   23460608.2834
       219.0004        165.0004
  22013022.4214   -1340082.75649  -1015151.86746  22013021.7424   22013025.6844
       230.0004        181.0004
  21429586.6654    -686183.56049   -522413.03447  21429586.4664   21429589.8584
       239.0004        200.0004
  21902747.1594   -2209516.14549  -1676937.10147  21902747.1944   21902749.3424
       239.0004        198.0004
 07  2 17 15 51 30.0000000  0  6G 4G 2G17G 5G 9G12
  20825101.9244    -357176.05749   -266611.07447  20825101.5024   20825104.6454
       242.0004        207.0004
                   -798498.56249   -207576.55645
       246.0004        144.0004
  23462884.1404    -185031.13249   -137542.05846  23462883.7244   23462886.2074
       218.0004        164.0004
  22010450.9514   -1353595.69349  -1025681.42846  22010450.1224   22010454.2314
       229.0004        181.0004
  21431384.4684    -676736.03549   -515051.32447  21431384.5314   21431387.5384
       239.0004        200.0004
  21900428.8624   -2221699.13049  -1686430.33547  21900429.3184   21900430.9234
       238.0004        199.0004
 07  2 17 15 51 35.0000000  0  6G 4G 2G17G 5G 9G12
  20826754.4544    -348491.91849   -259844.21747  20826754.2284   20826757.0484
       243.0004        207.0004
                   -805883.82049   -213331.30145
       245.0004        144.0004
  23465162.2164    -173059.62249   -128213.62846  23465161.0374   23465164.1814
       219.0004        164.0004
  22007880.6274   -1367102.75949  -1036206.41946  22007879.4924   22007883.5104
       229.0004        182.0004
  21433184.9914    -667274.25349   -507678.51047  21433184.6954   21433188.1824
       239.0004        200.0004
  21898111.4674   -2233877.13249  -1695919.68047  21898111.4734   21898113.8904
       238.0004        198.0004
 07  2 17 15 51 40.0000000  0  6G 4G 2G17G 5G 9G12
  20828409.5504    -339794.32349   -253066.87047  20828409.2324   20828412.2654
       243.0004        207.0004
                   -813255.25549   -219075.29045
       245.0004        145.0004
  23467440.4144    -161087.57449   -118884.75346  23467440.2994   23467442.8024
       219.0004        164.0004
  22005311.3994   -1380604.10149  -1046726.93746  22005310.6904   22005314.3354
       229.0004        182.0004
  21434988.2044    -657798.38949   -500294.72347  21434987.9174   21434991.0104
       239.0004        200.0004
  21895794.9894   -2246050.29949  -1705405.26547  21895794.9774   21895797.3754
       238.0004        198.0004
 07  2 17 15 51 45.0000000  0  6G 4G 2G17G 5G 9G12
  20830067.1904    -331083.28449   -246279.05047  20830067.0854   20830069.8274
       243.0004        207.0004
                   -820612.86749   -224808.48445
       245.0004        145.0004
  23469718.7234    -149114.94249   -109555.43746  23469718.8424   23469720.8454
       219.0004        164.0004
  22002743.2434   -1394099.74649  -1057243.02546  22002743.0584   22002746.4704
       229.0004        182.0004
  21436794.0584    -648308.50349   -492900.00847  21436793.7764   21436797.1234
       240.0004        200.0004
  21893479.4334   -2258218.64949  -1714887.10247  21893479.4104   21893481.5754
       237.0004        198.0004
 07  2 17 15 51 50.0000000  0  6G 4G 2G17G 5G 9G12
  20831727.4544    -322358.64049   -239480.61347  20831726.9464   20831730.2194
       243.0004        207.0004
                   -827956.49549    165541.23543
       245.0004         74.0004
  23471997.1484    -137141.61249   -100225.57346  23471997.5044   23471998.8534
       220.0004        164.0004
  22000176.2204   -1407589.52949  -1067754.54646  22000175.5154   22000179.5964
       228.0004        182.0004
  21438602.6604    -638804.39849   -485494.20947  21438602.1554   21438605.8764
       239.0004        200.0004
  21891164.8224   -2270381.99749  -1724365.02647  21891164.7424   21891167.0304
       238.0004        199.0004
 07  2 17 15 51 55.0000000  0  6G 4G 2G17G 5G 9G12
  20833390.2154    -313620.54449   -232671.71647  20833390.1944   20833392.9864
       243.0004        207.0004
                   -835286.28249    159829.69446                  20493274.2484
       245.0004        175.0004
  23474275.6774    -125167.73249    -90895.28146  23474275.5074   23474277.3744
       220.0004        164.0004
  21997610.2854   -1421073.60649  -1078261.61446  21997609.8924   21997613.2334
       229.0004        182.0004
  21440413.8774    -629286.26849   -478077.49147  21440413.2314   21440417.0254
       239.0004        200.0004
  21888851.1174   -2282540.49149  -1733839.17747  21888851.0944   21888853.5084
       239.0004        199.0004
 07  2 17 15 52  0.0000000  0  6G 4G 2G17G 5G 9G12
  20835055.5644    -304869.06249   -225852.37447  20835055.3914   20835058.4674
       243.0004        207.0004
                   -842602.30349    154128.89847                  20491882.0634
       245.0004        192.0004
  23476554.3124    -113193.39249    -81564.62346  23476554.0204   23476556.6504
       220.0004        164.0004
  21995045.4164   -1434552.00749  -1088764.26646  21995044.8974   21995048.9124
       229.0004        182.0004
  21442227.7684    -619754.23649   -470649.94047  21442227.0954   21442231.0374
       239.0004        200.0004
  21886538.3714   -2294694.23549  -1743309.63247  21886538.2854   21886540.6384
       238.0004        199.0004
 07  2 17 15 52  5.0000000  0  6G 4G 2G17G 5G 9G12
  20836723.4874    -296104.07849   -219022.51947  20836723.2274   20836726.2674
       242.0004        207.0004
                   -849904.37249    148438.97747                  20490492.5764
       246.0004        200.0004
  23478833.0494    -101218.42449    -72233.48546  23478832.9524   23478835.0664
       218.0004        164.0004
  21992481.6464   -1448024.59949  -1099262.37946  21992480.8624   21992484.2104
       229.0004        182.0004
  21444044.3334    -610208.06549   -463211.36347  21444044.1374   21444047.3534
       238.0004        200.0004
  21884226.5374   -2306842.99549  -1752776.19447  21884226.6754   21884229.0344
       239.0004        199.0004
 07  2 17 15 52 10.0000000  0  6G 4G 2G17G 5G 9G12
  20838393.9544    -287325.68049   -212182.20447  20838393.7604   20838396.6994
       243.0004        207.0004
                   -857192.56949    142759.86647                  20489105.7174
       245.0004        205.0004
  23481111.9024     -89242.90349    -62901.91246  23481111.1954   23481114.2834
       217.0004        163.0004
  21989919.0244   -1461491.38049  -1109755.97546  21989918.2664   21989922.0824
       230.0004        182.0004
  21445863.5604    -600647.90949   -455761.89447  21445863.2784   21445866.9494
       239.0004        200.0004
  21881915.6554   -2318986.90449  -1762238.97947  21881915.8154   21881917.8874
       237.0004        199.0004
 07  2 17 15 52 15.0000000  0  6G 4G 2G17G 5G 9G12
  20840066.9714    -278533.88649   -205331.46047  20840066.8724   20840069.8284
       242.0004        207.0004
  20487721.0424    -864466.90949    137091.54547  20487720.4364   20487721.4194
       245.0004        208.0004
  23483390.8674     -77266.80949    -53569.90046  23483390.3074   23483392.6704
       217.0004        163.0004
  21987357.5014   -1474952.37349  -1120245.06846  21987356.8404   21987361.1504
       229.0004        182.0004
  21447685.4754    -591073.75849   -448301.52647  21447685.1474   21447688.7864
       238.0004        200.0004
  21879605.6624   -2331125.92549  -1771697.95547  21879605.8844   21879607.9044
       238.0004        199.0004
 07  2 17 15 52 20.0000000  0  6G 4G 2G17G 5G 9G12
  20841742.5514    -269728.62649   -198470.21647  20841742.2024   20841745.1684
       242.0004        207.0004
  20486339.4344    -871727.34149    131434.07147  20486338.7834   20486339.8064
       245.0004        211.0004
  23485669.9204     -65290.13749    -44237.41945  23485670.0494   23485672.2374
       219.0004        162.0004
  21984797.0624   -1488407.57749  -1130729.62746  21984796.2824   21984800.1624
       229.0004        182.0004
  21449510.0364    -581485.61449   -440830.24647  21449509.6834   21449513.1394
       239.0004        200.0004
  21877296.6264   -2343260.00449  -1781153.07647  21877296.4934   21877299.0044
       238.0004        199.0004
 07  2 17 15 52 25.0000000  0  6G 4G 2G17G 5G 9G12
  20843420.7284    -260909.76749   -191598.37547  20843420.4104   20843423.6644
       242.0004        207.0004
  20484960.4614    -878973.76249    125787.51147  20484959.9174   20484961.0094
       245.0004        212.0004
  23487949.0904     -53312.79349    -34904.42245  23487948.4724   23487952.2964
       218.0004        162.0004
  21982237.7514   -1501856.83149  -1141209.57346  21982237.1944   21982240.7404
       230.0004        182.0004
  21451337.2694    -571883.39149   -433347.99447  21451337.1884   21451340.4134
       240.0004        200.0004
  21874988.5564   -2355389.02449  -1790604.26547  21874989.0804   21874990.8734
       238.0004        199.0004
 07  2 17 15 52 30.0000000  0  6G 4G 2G17G 5G 9G12
  20845101.4104    -252077.58749   -184716.16747  20845101.4674   20845104.2464
       243.0004        207.0004
  20483584.1424    -886206.33949    120151.74248  20483583.5104   20483584.5484
       245.0004        213.0004
  23490228.3784     -41334.92249    -25571.02345  23490228.9634   23490230.9444
       218.0004        161.0004
  21979679.5514   -1515300.31249  -1151685.01146  21979678.7354   21979682.9344
       230.0004        182.0004
  21453167.1664    -562267.24649   -425854.89647  21453166.6424   21453170.4834
       239.0004        200.0004
  21872681.4114   -2367513.14149  -1800051.62947  21872681.7584   21872683.6184
       239.0004        199.0004
 07  2 17 15 52 35.0000000  0  6G 4G 2G17G 5G 9G12
  20846784.6714    -243231.98349   -177823.47547  20846784.2324   20846787.4234
       243.0004        207.0004
  20482210.4994    -893424.87249    114526.91348  20482209.9514   20482210.9214
       245.0004        214.0004
  23492507.7914     -29356.38949    -16237.10445  23492508.3754   23492510.2824
       219.0004        161.0004
  21977122.4674   -1528737.86949  -1162155.83246  21977121.3854   21977125.3764
       230.0004        183.0004
  21454999.7494    -552637.05349   -418350.85147  21454999.5734   21455002.9504
       240.0004        200.0004
  21870375.2154   -2379632.24049  -1809495.07647  21870375.3344   21870377.4924
       239.0004        199.0004
 07  2 17 15 52 40.0000000  0  6G 4G 2G17G 5G 9G12
  20848470.4484    -234373.08349   -170920.44447  20848470.0844   20848473.2194
       241.0004        207.0004
  20480839.4984    -900629.58749    108912.84748  20480839.1804   20480839.8134
       245.0004        215.0004
  23494787.3334     -17377.36749     -6902.80245  23494787.1874   23494789.3604
       219.0004        161.0004
  21974566.5164   -1542169.62449  -1172622.12946  21974565.9854   21974569.7674
       232.0004        183.0004
  21456834.9904    -542992.98149   -410835.99147  21456834.9624   21456838.1144
       238.0004        200.0004
  21868069.9734   -2391746.45449  -1818934.72447  21868070.0204   21868071.9744
       238.0004        199.0004
 07  2 17 15 52 45.0000000  0  6G 4G 2G17G 5G 9G12
  20850158.7634    -225500.69949   -164006.89647  20850158.5164   20850161.5824
       244.0004        207.0004
  20479471.1364    -907820.32549    103309.67748  20479470.6874   20479471.4774
       245.0004        215.0004
  23497067.0094      -5397.66949      2432.00945  23497067.5594   23497069.3864
       219.0004        161.0004
  21972011.7114   -1555595.45549  -1183083.81746  21972010.8534   21972014.4494
       230.0004        183.0004
  21458672.8534    -533334.89149   -403310.21447  21458672.6604   21458676.0694
       239.0004        200.0004
  21865765.6824   -2403855.60349  -1828370.41747  21865765.8754   21865768.0014
       238.0004        199.0004
 07  2 17 15 52 50.0000000  0  6G 4G 2G17G 5G 9G12
  20851849.6674    -216614.97449   -157082.94947  20851849.2254   20851852.6604
       241.0004        207.0004
  20478105.4274    -914997.14649     97717.35048  20478104.9534   20478105.9014
       245.0004        216.0004
  23499346.7794       6582.49149     11767.19645  23499347.4504   23499348.5744
       220.0004        161.0004
  21969458.0024   -1569015.48749  -1193540.97746  21969457.4314   21969460.9814
       231.0004        183.0004
  21460513.4024    -523662.92549   -395773.61547  21460512.9364   21460516.6614
       238.0004        200.0004
  21863462.3074   -2415959.83449  -1837802.28847  21863462.6004   21863464.5994
       239.0004        199.0004
 07  2 17 15 52 55.0000000  0  6G 4G 2G17G 5G 9G12
  20853543.1124    -207715.78949   -150148.52747  20853543.1424   20853545.9194
       243.0004        207.0004
  20476742.4184    -922159.91549     92135.97348  20476742.0364   20476742.8104
       247.0004        216.0004
  23501626.7264      18563.33649     21102.92445  23501626.0234   23501629.0364
       217.0004        161.0004
  21966905.4154   -1582429.46549  -1203993.43046  21966905.4184   21966908.7644
       231.0004        183.0004
  21462356.5924    -513976.91649   -388226.08247  21462356.3304   21462359.7184
       239.0004        200.0004
  21861159.9714   -2428058.92549  -1847230.14947  21861159.9544   21861161.9754
       239.0004        199.0004
 07  2 17 15 53  0.0000000  0  6G 4G 2G17G 5G 9G12
  20855239.1124    -198803.30749   -143203.72247  20855238.4994   20855242.0554
       241.0004        207.0004
  20475382.0004    -929308.85949     86565.36748  20475381.6384   20475382.5354
       247.0004        216.0004
  23503906.7294      30544.67049     30439.00245  23503907.1444   23503909.0164
       219.0004        161.0004
  21964353.9354   -1595837.63649  -1214441.36446  21964352.9254   21964356.5914
       228.0004        183.0004
  21464202.4044    -504277.10549   -380667.79347  21464202.3024   21464205.3504
       239.0004        200.0004
  21858858.5494   -2440153.08049  -1856654.17247  21858858.8074   21858860.6654
       238.0004        199.0004
 07  2 17 15 53  5.0000000  0  6G 4G 2G17G 5G 9G12
  20856937.6514    -189877.40849   -136248.49047  20856937.7824   20856940.5594
       243.0004        207.0004
  20474024.2884    -936443.82349     81005.66048  20474023.7884   20474024.6234
       247.0004        217.0004
  23506186.8614      42526.63349     39775.60945  23506186.9154   23506188.8024
       218.0004        161.0004
  21961803.5314   -1609239.86349  -1224884.64546  21961802.5904   21961806.1874
       232.0004        183.0004
  21466050.8784    -494563.30749   -373098.59747  21466050.6124   21466054.0414
       239.0004        200.0004
  21856558.1164   -2452242.16449  -1866074.23247  21856558.4394   21856560.1994
       240.0004        199.0004
 07  2 17 15 53 10.0000000  0  6G 4G 2G17G 5G 9G12
  20858638.7144    -180938.11749   -129282.79547  20858638.2654   20858641.8584
       242.0004        207.0004
  20472669.2234    -943564.73149     75456.89748  20472668.8164   20472669.5764
       247.0004        217.0004
  23508467.0894      54509.29149     49112.73145  23508466.2974   23508469.7314
       218.0004        161.0004
  21959254.3034   -1622636.04549  -1235323.23446  21959254.1454   21959257.3344
       232.0004        183.0004
  21467902.0574    -484835.48349   -365518.48747  21467902.0414   21467905.4274
       239.0004        200.0004
  21854258.6704   -2464326.09249  -1875490.27947  21854258.8214   21854260.8924
       238.0004        199.0004
 07  2 17 15 53 15.0000000  0  6G 4G 2G17G 5G 9G12
  20860342.3204    -171985.53349   -122306.76547  20860342.3754   20860345.3604
       243.0004        207.0004
  20471316.8134    -950671.76149     69918.95648  20471316.3634   20471317.2394
       248.0004        217.0004
  23510747.4194      66492.43649     58450.24145  23510747.6284   23510749.9704
       218.0004        162.0004
  21956706.2424   -1636026.34249  -1245757.22746  21956705.7594   21956708.6714
       232.0004        183.0004
  21469755.8304    -475093.84549   -357927.59547  21469755.5684   21469759.2004
       238.0004        200.0004
  21851960.1444   -2476405.04749  -1884902.45047  21851960.1634   21851962.2244
       239.0004        199.0004
 07  2 17 15 53 20.0000000  0  6G 4G 2G17G 5G 9G12
  20862048.4694    -163019.55249   -115320.27847  20862048.4044   20862051.5064
       242.0004        207.0004
  20469967.0664    -957764.65549     64392.02748  20469966.5774   20469967.5114
       246.0004        217.0004
  23513027.8754      78476.27149     67788.29545  23513026.5304   23513030.3244
       217.0004        162.0004
  21954159.3494   -1649410.52949  -1256186.46946  21954158.7824   21954162.6024
       232.0004        183.0004
  21471612.2754    -465338.16049   -350325.76947  21471611.8524   21471615.2504
       238.0004        200.0004
  21849662.5894   -2488478.87449  -1894310.62347  21849662.5834   21849664.4024
       238.0004        199.0004
 07  2 17 15 53 25.0000000  0  6G 4G 2G17G 5G 9G12
  20863757.2074    -154040.19549   -108323.38447  20863757.3114   20863760.1764
       243.0004        207.0004
  20468620.0144    -964843.54649     58876.00948  20468619.4304   20468620.5054
       247.0004        217.0004
  23515308.4524      90460.72649     77126.82845  23515308.7014   23515311.9184
       218.0004        162.0004
  21951613.5814   -1662788.75949  -1266611.05746  21951613.5744   21951616.9734
       231.0004        184.0004
  21473471.3654    -455568.51149   -342713.05947  21473471.3154   21473474.7094
       239.0004        200.0004
  21847366.0154   -2500547.56149  -1903714.79647  21847366.2934   21847368.0934
       239.0004        200.0004
 07  2 17 15 53 30.0000000  0  6G 4G 2G17G 5G 9G12
  20865468.4474    -145047.48349   -101316.07047  20865468.2874   20865471.4904
       242.0004        207.0004
  20467275.5874    -971908.44549     53370.89348  20467275.1904   20467275.9324
       247.0004        217.0004
  23517589.0964     102445.76949     86465.80245  23517588.3224   23517591.9124
       217.0004        162.0004
  21949068.9244   -1676160.97049  -1277030.95846  21949067.7374   21949071.9124
       231.0004        184.0004
  21475333.1074    -445784.97949   -335089.53047  21475332.8464   21475336.3314
       239.0004        199.0004
  21845070.4064   -2512611.11149  -1913114.96047  21845070.5124   21845072.5404
       239.0004        200.0004
 07  2 17 15 53 35.0000000  0  6G 4G 2G17G 5G 9G12
  20867182.2954    -136041.25249    -94298.23347  20867182.1404   20867185.2184
       242.0004        207.0004
  20465933.8924    -978959.19949     47876.80248  20465933.3494   20465934.2614
       247.0004        217.0004
  23519869.8744     114431.57249     95805.38745  23519868.8744   23519872.7434
       219.0004        162.0004
  21946525.4104   -1689527.02149  -1287446.06446  21946524.3574   21946528.6814
       231.0004        184.0004
  21477197.5214    -435987.43649   -327455.08847  21477197.4664   21477200.7294
       238.0004        199.0004
  21842775.7764   -2524669.51549  -1922511.12047  21842776.0814   21842777.8834
       239.0004        200.0004
 07  2 17 15 53 40.0000000  0  6G 4G 2G17G 5G 9G12
  20868898.6234    -127021.77949    -87270.06947  20868898.6024   20868901.6184
       242.0004        207.0004
  20464594.8254    -985995.95249     42393.62248  20464594.3864   20464595.2784
       246.0004        217.0004
  23522150.7774     126417.92649    105145.39645  23522150.9844   23522152.7594
       218.0004        162.0004
  21943983.0534   -1702887.03349  -1297856.46646  21943982.7474   21943986.6894
       231.0004        184.0004
  21479064.5724    -426176.05349   -319809.85347  21479064.1534   21479067.7534
       239.0004        199.0004
  21840482.1304   -2536722.82249  -1931903.30147  21840482.0994   21840484.0874
       239.0004        200.0004
 07  2 17 15 53 45.0000000  0  6G 4G 2G17G 5G 9G12
  20870617.5074    -117988.93349    -80231.48647  20870617.6424   20870620.6064
       243.0004        207.0004
  20463258.4664    -993018.63249     36921.40248  20463258.0314   20463258.9074
       246.0004        217.0004
  23524431.7834     138404.97849    114485.95345  23524432.4644   23524435.1854
       221.0004        162.0004
  21941441.9144   -1716240.94249  -1308262.10446  21941440.9274   21941445.0514
       232.0004        184.0004
  21480934.2694    -416350.75849   -312153.78847  21480933.9594   21480937.4994
       239.0004        199.0004
  21838189.4654   -2548770.95649  -1941291.46847  21838190.0064   21838191.7324
       238.0004        200.0004
 07  2 17 15 53 50.0000000  0  6G 4G 2G17G 5G 9G12
  20872338.9354    -108942.76549    -73182.52347  20872339.0504   20872341.8574
       242.0004        207.0004
  20461924.7654   -1000027.19649     31460.18448  20461924.1654   20461925.2174
       246.0004        217.0004
  23526712.9734     150392.68949    123827.04046  23526713.8554   23526716.3744
       222.0004        163.0004
  21938901.9464   -1729588.71849  -1318662.97746  21938901.5354   21938904.6354
       231.0004        184.0004
  21482806.5934    -406511.57149   -304486.88647  21482806.1634   21482809.8604
       238.0004        199.0004
  21835897.7674   -2560813.88749  -1950675.55547  21835897.7034   21835899.5734
       238.0004        200.0004
 07  2 17 15 53 55.0000000  0  6G 4G 2G17G 5G 9G12
  20874062.9064     -99883.27449    -66123.18247  20874062.8874   20874066.0944
       243.0004        207.0004
  20460593.7274   -1007021.83749     26009.82148  20460593.1464   20460594.0484
       247.0004        217.0004
  23528994.2634     162380.99249    133168.55546  23528995.3654   23528997.0994
       219.0004        163.0004
  21936363.1414   -1742930.48549  -1329059.15846  21936362.6824   21936365.8624
       231.0004        184.0004
  21484681.5644    -396658.61249   -296809.26347  21484681.2454   21484684.8544
       239.0004        199.0004
  21833607.0324   -2572851.65449  -1960055.63647  21833607.0484   21833608.7784
       239.0004        200.0004
 07  2 17 15 54  0.0000000  0  6G 4G 2G17G 5G 9G12
  20875789.4204     -90810.38149    -59053.39547  20875789.5124   20875792.6124
       242.0004        206.0004
  20459265.3894   -1014002.37249     20570.43648  20459265.0064   20459265.6614
       247.0004        217.0004
  23531275.6954     174370.01149    142510.65746  23531276.0374   23531278.9964
       221.0004        163.0004
  21933825.5254   -1756266.05049  -1339450.50346  21933825.1194   21933828.1254
       231.0004        184.0004
  21486559.1664    -386791.69749   -289120.76247  21486558.9354   21486562.3884
       239.0004        199.0004
  21831317.3264   -2584884.10249  -1969431.57547  21831317.5334   21831319.1754
       239.0004        200.0004
 07  2 17 15 54  5.0000000  0  6G 4G 2G17G 5G 9G12
  20877518.4324     -81724.33249    -51973.35547  20877518.3554   20877521.4084
       243.0004        206.0004
  20457939.6814   -1020968.93049     15141.95448  20457939.1734   20457940.0344
       246.0004        217.0004
  23533557.2664     186359.58149    151853.17446  23533557.1274   23533560.8664
       220.0004        164.0004
  21931289.0244   -1769595.58449  -1349837.15246  21931288.2154   21931291.9814
       232.0004        184.0004
  21488439.4014    -376911.01849   -281421.53747  21488439.3234   21488442.5204
       240.0004        199.0004
  21829028.5744   -2596911.41449  -1978803.50747  21829028.8584   21829030.4804
       239.0004        200.0004
 07  2 17 15 54 10.0000000  0  6G 4G 2G17G 5G 9G12
  20879249.9694     -72625.06149    -44883.01347  20879249.7164   20879253.1254
       242.0004        206.0004
  20456616.6734   -1027921.47049      9724.39048  20456616.0994   20456617.1144
       246.0004        217.0004
  23535838.9114     198349.71749    161196.11946  23535839.4774   23535841.8974
       220.0004        164.0004
  21928753.6404   -1782919.07549  -1360219.08546  21928752.7804   21928756.4484
       232.0004        184.0004
  21490322.2604    -367016.59649   -273711.59747  21490322.4094   21490325.3584
       238.0004        199.0004
  21826740.8534   -2608933.55749  -1988171.40447  21826740.9324   21826742.9514
       238.0004        200.0004
 07  2 17 15 54 15.0000000  0  6G 4G 2G17G 5G 9G12
  20880984.0124     -63512.43249    -37782.26647  20880984.0164   20880987.0324
       242.0004        206.0004
  20455296.3524   -1034859.87049      4317.84648  20455295.8734   20455296.8344
       247.0004        217.0004
  23538120.7004     210340.56549    170539.63646  23538120.5984   23538124.1994
       218.0004        164.0004
  21926219.4584   -1796236.35649  -1370596.19046  21926218.8754   21926222.5234
       232.0004        184.0004
  21492207.7694    -357108.32549   -265990.87147  21492207.8044   21492211.1754
       240.0004        199.0004
  21824454.0984   -2620950.41549  -1997535.18447  21824453.9654   21824456.2724
       239.0004        200.0004
 07  2 17 15 54 20.0000000  0  6G 4G 2G17G 5G 9G12
  20882720.5864     -54386.74149    -30671.33947  20882720.5634   20882723.9264
       242.0004        206.0004
  20453978.6714   -1041784.31749     -1077.82948  20453978.1064   20453978.9934
       247.0004        217.0004
  23540402.5614     222331.89449    179883.51646  23540402.5584   23540405.8764
       218.0004        164.0004
  21923686.4354   -1809547.62849  -1380968.61146  21923685.3884   21923688.8624
       232.0004        184.0004
  21494095.8644    -347186.37849   -258259.48647  21494095.5974   21494099.3864
       238.0004        199.0004
  21822168.3434   -2632962.17849  -2006895.01347  21822168.7974   21822170.4354
       238.0004        200.0004
 07  2 17 15 54 25.0000000  0  6G 4G 2G17G 5G 9G12
  20884459.7024     -45247.60049    -23549.93147  20884459.9594   20884462.9414
       242.0004        206.0004
  20452663.7034   -1048694.50749     -6462.39148  20452663.3364   20452664.2134
       247.0004        218.0004
  23542684.5854     234324.01549    189228.02046  23542684.9384   23542688.4804
       218.0004        164.0004
  21921154.6154   -1822852.59949  -1391336.11946  21921153.7314   21921157.1754
       232.0004        184.0004
  21495986.6164    -337250.48649   -250517.23547  21495986.0594   21495989.9174
       238.0004        199.0004
  21819883.6144   -2644968.54849  -2016250.61147  21819883.7494   21819885.4174
       238.0004        200.0004
 07  2 17 15 54 30.0000000  0  6G 4G 2G17G 5G 9G12
  20886201.3304     -36095.33149    -16418.28547  20886201.3644   20886204.7274
       242.0004        206.0004
  20451351.4134   -1055590.68349    -11836.02848  20451350.7254   20451351.9324
       247.0004        218.0004
  23544966.6824     246316.70249    198572.95546  23544966.8394   23544968.8564
       220.0004        164.0004
  21918623.9444   -1836151.50349  -1401698.90146  21918623.2134   21918626.8934
       230.0004        184.0004
  21497879.9714    -327300.89149   -242764.31647  21497879.8774   21497883.3984
       238.0004        199.0004
  21817599.8744   -2656969.70149  -2025602.16547  21817600.0504   21817602.0764
       239.0004        200.0004
 07  2 17 15 54 35.0000000  0  6G 4G 2G17G 5G 9G12
  20887945.4514     -26929.83049     -9276.34447  20887945.3164   20887948.3894
       242.0004        206.0004
  20450041.8094   -1062472.76349    -17198.69148  20450041.4114   20450042.2564
       247.0004        218.0004
  23547248.9444     258309.97449    207918.35646  23547249.4284   23547252.0234
       219.0004        164.0004
  21916094.4164   -1849444.24849  -1412056.88346  21916093.4444   21916097.4364
       231.0004        184.0004
  21499775.9134    -317337.57149   -235000.68847  21499775.6754   21499779.0364
       237.0004        199.0004
  21815317.1464   -2668965.61949  -2034949.62747  21815317.2204   21815319.1324
       238.0004        200.0004
 07  2 17 15 54 40.0000000  0  6G 4G 2G17G 5G 9G12
  20889692.1144     -17751.09949     -2124.08147  20889692.1174   20889695.2324
       243.0004        206.0004
  20448734.8774   -1069340.72949    -22550.35148  20448734.4064   20448735.3494
       247.0004        218.0004
  23549531.3154     270303.87149    217264.24246  23549532.2884   23549533.7084
       222.0004        164.0004
  21913566.1074   -1862730.71549  -1422409.96846  21913565.2344   21913569.0074
       231.0004        184.0004
  21501674.4984    -307360.47349   -227226.33247  21501674.5004   21501677.6914
       239.0004        199.0004
  21813035.3934   -2680956.24149  -2044292.96547  21813035.4404   21813037.3254
       239.0004        200.0004
 07  2 17 15 54 45.0000000  0  6G 4G 2G17G 5G 9G12
  20891441.3034      -8559.11149      5038.50247  20891441.4964   20891444.4584
       242.0004        206.0004
  20447430.6244   -1076194.57449    -27891.00448  20447429.9494   20447431.1074
       247.0004        218.0004
  23551813.8314     282298.38349    226610.62646  23551814.4584   23551815.6884
       222.0004        164.0004
  21911038.9394   -1876011.00549  -1432758.24746  21911038.0744   21911041.7974
       230.0004        184.0004
  21503575.7034    -297369.60249   -219441.24047  21503575.4844   21503579.0534
       238.0004        199.0004
  21810754.6804   -2692941.53949  -2053632.16347  21810754.5594   21810756.8484
       239.0004        200.0004
 07  2 17 15 54 50.0000000  0  6G 4G 2G17G 5G 9G12
  20893193.0184        646.07149     12211.37447  20893193.0934   20893196.0754
       243.0004        206.0004
  20446129.0954   -1083034.31449    -33220.67448  20446128.6104   20446129.6074
       247.0004        218.0004
  23554096.4654     294293.58049    235957.52246  23554096.9284   23554098.9614
       221.0004        164.0004
  21908512.9634   -1889285.06949  -1443101.68046  21908512.1134   21908516.0544
       231.0004        184.0004
  21505479.5214    -287364.98649   -211645.43747  21505479.6764   21505482.6644
       239.0004        199.0004
  21808474.9604   -2704921.52049  -2062967.20847  21808474.7574   21808477.0284
       239.0004        200.0004
 07  2 17 15 54 55.0000000  0  6G 4G 2G17G 5G 9G12
  20894947.1934       9864.36149     19394.46347  20894947.0894   20894950.3714
       240.0004        206.0004
  20444830.1914   -1089860.03649    -38539.41448  20444829.6094   20444830.7974
       247.0004        218.0004
  23556379.1754     306289.29849    245304.83846  23556378.9184   23556381.8684
       222.0004        165.0004
  21905988.1444   -1902552.97649  -1453440.29846  21905987.1414   21905990.8674
       232.0004        184.0004
  21507385.9364    -277346.70549   -203838.98647  21507385.8174   21507389.0954
       239.0004        199.0004
  21806196.2664   -2716896.22549  -2072298.14747  21806196.2744   21806198.6614
       239.0004        200.0004
 07  2 17 15 55  0.0000000  0  6G 4G 2G17G 5G 9G12
  20896703.8954      19095.91149     26587.87147  20896704.0834   20896706.8824
       242.0004        206.0004
  20443533.9924   -1096671.60149    -43847.12748  20443533.5464   20443534.4634
       247.0004        218.0004
  23558662.0454     318285.74449    254652.71046  23558661.5084   23558665.0384
       221.0004        165.0004
  21903464.5524   -1915814.58049  -1463774.01946  21903463.4284   21903467.5084
       232.0004        184.0004
  21509294.9804    -267314.64049   -196021.79347  21509294.6254   21509298.2614
       237.0004        199.0004
  21803918.5824   -2728865.58049  -2081624.91747  21803918.6914   21803920.5424
       238.0004        200.0004
 07  2 17 15 55  5.0000000  0  6G 4G 2G17G 5G 9G12
  20898463.0794      28340.58349     33791.51747  20898463.1454   20898466.2124
       243.0004        206.0004
  20442240.4834   -1103469.07249    -49143.85748  20442240.1224   20442241.0444
       247.0004        218.0004
  23560944.9894     330282.75149    264001.01646  23560945.0574   23560946.8674
       222.0004        165.0004
  21900942.1544   -1929069.96749  -1474102.89246  21900941.6644   21900945.0284
       230.0004        184.0004
  21511206.6414    -257268.86249   -188193.92147  21511206.3424   21511209.9614
       238.0004        198.0004
  21801641.9154   -2740829.61449  -2090947.52847  21801641.6784   21801643.7644
       239.0004        200.0004
 07  2 17 15 55 10.0000000  0  6G 4G 2G17G 5G 9G12
  20900224.7944      37598.41449     41005.41147  20900224.9654   20900228.0484
       242.0004        206.0004
  20440949.6574   -1110252.43349    -54429.59148  20440949.2154   20440950.0654
       247.0004        218.0004
  23563228.1164     342280.38249    273349.82246  23563228.5464   23563231.4104
       221.0004        165.0004
  21898420.9294   -1942319.14849  -1484426.92046  21898419.6904   21898423.6864
       231.0004        184.0004
  21513120.8854    -247209.44749   -180355.41647  21513120.7564   21513123.9684
       238.0004        198.0004
  21799366.2384   -2752788.31949  -2100266.00847  21799366.1934   21799368.3614
       239.0004        200.0004
 07  2 17 15 55 15.0000000  0  6G 4G 2G17G 5G 9G12
  20901989.0164      46869.34949     48229.51747  20901989.0044   20901992.2134
       242.0004        206.0004
  20439661.5054   -1117021.73149    -59704.36448  20439661.1574   20439661.9194
       248.0004        218.0004
  23565511.2954     354278.59749    282699.07946  23565511.2264   23565514.3954
       220.0004        165.0004
  21895900.8514   -1955562.07149  -1494746.08146  21895900.0844   21895903.5344
       231.0004        184.0004
  21515037.7164    -237136.40249   -172506.29347  21515037.8694   21515040.8034
       239.0004        198.0004
  21797091.5934   -2764741.75849  -2109580.36847  21797091.4284   21797093.7284
       239.0004        200.0004
 07  2 17 15 55 20.0000000  0  6G 4G 2G17G 5G 9G12
  20903755.7354      56153.44149     55463.87747  20903755.6514   20903758.8764
       241.0004        206.0004
  20438376.0524   -1123776.86049    -64968.10548  20438375.8274   20438376.3734
       247.0004        218.0004
  23567794.6274     366277.47549    292048.84746  23567795.3754   23567798.0454
       220.0004        165.0004
  21893381.9684   -1968798.70449  -1505060.33746  21893381.1084   21893384.5914
       231.0004        184.0004
  21516957.1684    -227049.66949   -164646.50247  21516957.1414   21516960.2204
       238.0004        198.0004
  21794817.9424   -2776689.78349  -2118890.52447  21794818.1914   21794819.7514
       239.0004        200.0004
 07  2 17 15 55 25.0000000  0  6G 4G 2G17G 5G 9G12
  20905524.9354      65450.72049     62708.50047  20905525.0864   20905528.0884
       242.0004        206.0004
  20437093.2994   -1130517.76649    -70220.75148  20437092.8354   20437093.5504
       247.0004        218.0004
  23570078.0314     378277.03349    301399.14246  23570078.3844   23570080.4684
       223.0004        165.0004
  21890864.2904   -1982028.97049  -1515369.64646  21890863.7504   21890866.8674
       232.0004        184.0004
  21518879.2194    -216949.23549   -156776.04047  21518878.6604   21518882.4664
       238.0004        198.0004
  21792545.3544   -2788632.40349  -2128196.45447  21792545.4954   21792547.3254
       239.0004        200.0004
 07  2 17 15 55 30.0000000  0  6G 4G 2G17G 5G 9G12
  20907296.6324      74761.05849     69963.31647  20907296.7404   20907299.6374
       242.0004        206.0004
  20435813.2394   -1137244.59849    -75462.44748  20435813.1114   20435813.7554
       247.0004        218.0004
  23572361.5614     390277.20949    310749.93246  23572360.9144   23572364.8914
       220.0004        165.0004
  21888347.8404   -1995253.05749  -1525674.12046  21888347.0234   21888350.5814
       231.0004        184.0004
  21520803.8534    -206835.21649   -148894.99247  21520804.1374   21520807.0934
       239.0004        198.0004
  21790273.7444   -2800569.69349  -2137498.23647  21790273.5784   21790275.6214
       238.0004        200.0004
 07  2 17 15 55 35.0000000  0  6G 4G 2G17G 5G 9G12
  20909070.8534      84084.53449     77228.35747  20909070.9414   20909073.8584
       241.0004        206.0004
  20434535.8784   -1143957.28649    -80693.10448  20434535.4854   20434536.3914
       248.0004        218.0004
  23574645.2384     402278.02849    320101.19446  23574645.9624   23574647.7794
       222.0004        165.0004
  21885832.5964   -2008470.75449  -1535973.62446  21885831.8844   21885835.4364
       230.0004        184.0004
  21522731.1184    -196707.54549   -141003.29847  21522730.6344   21522734.3334
       238.0004        198.0004
  21788003.2004   -2812501.56449  -2146795.80047  21788003.3394   21788005.3354
       238.0004        200.0004
 07  2 17 15 55 40.0000000  0  6G 4G 2G17G 5G 9G12
  20910847.5464      93421.18849     84503.67847  20910847.4824   20910850.6994
       242.0004        206.0004
  20433261.1964   -1150655.80649    -85912.72948  20433260.7384   20433261.4714
       248.0004        218.0004
  23576929.0404     414279.46449    329452.96646  23576929.3014   23576932.2454
       221.0004        166.0004
  21883318.5834   -2021682.09449  -1546268.17446  21883317.7044   21883321.2234
       231.0004        184.0004
  21524660.9424    -186566.22549   -133100.98147  21524660.6674   21524664.0484
       239.0004        198.0004
  21785733.6504   -2824428.03449  -2156089.14647  21785733.6104   21785735.6554
       239.0004        200.0004
 07  2 17 15 55 45.0000000  0  6G 4G 2G17G 5G 9G12
  20912626.7384     102770.90749     91789.17347  20912626.7504   20912629.9914
       242.0004        206.0004
  20431989.2074   -1157340.19149    -91121.34348  20431988.8384   20431989.5114
       246.0004        218.0004
  23579212.9334     426281.50549    338805.19446  23579213.4804   23579216.9314
       223.0004        167.0004
  21880805.7554   -2034887.17549  -1556557.84246  21880805.2344   21880808.5764
       231.0004        184.0004
  21526593.3784    -176411.31149   -125188.06347  21526593.1304   21526596.3404
       238.0004        198.0004
  21783465.1604   -2836349.11649  -2165378.30447  21783465.1414   21783467.0424
       238.0004        200.0004
 07  2 17 15 55 50.0000000  0  6G 4G 2G17G 5G 9G12
  20914408.4144     112133.68549     99084.84047  20914408.4464   20914411.5914
       243.0004        206.0004
  20430719.9184   -1164010.42949    -96318.92748  20430719.3374   20430720.4554
       247.0004        218.0004
  23581496.9834     438284.16249    348157.91646  23581497.6594   23581500.3214
       222.0004        167.0004
  21878294.1394   -2048085.88449  -1566842.55146  21878293.0334   21878296.8014
       232.0004        184.0004
  21528528.3724    -166242.81649   -117264.56747  21528528.5004   21528531.6234
       239.0004        198.0004
  21781197.7124   -2848264.77249  -2174663.23747  21781197.7514   21781199.7054
       238.0004        200.0004
 07  2 17 15 55 55.0000000  0  6G 4G 2G17G 5G 9G12
  20916192.5854     121509.45949    106390.64347  20916192.4514   20916195.8194
       242.0004        206.0004
  20429453.3154   -1170666.54349   -101505.51148  20429452.9544   20429453.7454
       248.0004        218.0004
  23583781.1354     450287.42649    357511.09046  23583780.9984   23583784.3154
       222.0004        167.0004
  21875783.7304   -2061278.25649  -1577122.32446  21875783.1704   21875786.4984
       232.0004        184.0004
  21530465.9504    -156060.74949   -109330.48947  21530465.5794   21530469.3814
       238.0004        198.0004
  21778931.2894   -2860175.03349  -2183943.95347  21778931.1704   21778933.0254
       238.0004        201.0004
 07  2 17 15 56  0.0000000  0  6G 4G 2G17G 5G 9G12
  20917979.2394     130898.40549    113706.70147  20917979.3044   20917982.3724
       242.0004        206.0004
  20428189.3924   -1177308.50549   -106681.06048  20428188.9394   20428189.8164
       247.0004        218.0004
  23586065.4204     462291.32549    366864.78146  23586064.9974   23586068.8804
       223.0004        167.0004
  21873274.5344   -2074464.28049  -1587397.14446  21873273.6984   21873277.3194
       231.0004        184.0004
  21532406.1244    -145865.08549   -101385.82347  21532406.0454   21532409.2814
       238.0004        198.0004
  21776665.8834   -2872079.84349  -2193220.42947  21776665.9084   21776667.8894
       238.0004        201.0004
 07  2 17 15 56  5.0000000  0  6G 4G 2G17G 5G 9G12
  20919768.3564     140300.26149    121032.82947  20919768.2864   20919771.3524
       242.0004        206.0004
  20426928.1634   -1183936.32149   -111845.59448  20426927.6824   20426928.5374
       247.0004        218.0004
  23588349.8254     474295.86749    376218.95446  23588349.7454   23588353.2624
       223.0004        167.0004
  21870766.5504   -2087643.92549  -1597666.99746  21870765.7844   21870769.0984
       232.0004        184.0004
  21534348.8774    -135655.88749    -93430.60647  21534349.0604   21534351.8374
       239.0004        198.0004
  21774401.4984   -2883979.21049  -2202492.65447  21774401.3964   21774403.1334
       238.0004        201.0004
 07  2 17 15 56 10.0000000  0  6G 4G 2G17G 5G 9G12
  20921559.9704     149715.13149    128369.08747  20921559.9354   20921563.0444
       242.0004        206.0004
  20425669.6154   -1190550.00849   -116999.11948  20425669.3634   20425670.0854
       247.0004        218.0004
  23590634.3054     486300.95549    385573.57546  23590633.5944   23590636.8214
       222.0004        167.0004
  21868259.7734   -2100817.21749  -1607931.89546  21868258.8594   21868262.3744
       232.0004        184.0004
  21536294.2214    -125433.18649    -85464.86547  21536293.7244   21536297.2054
       238.0004        198.0004
  21772138.1504   -2895873.15949  -2211760.67247  21772138.2324   21772140.2324
       238.0004        201.0004
 07  2 17 15 56 15.0000000  0  6G 4G 2G17G 5G 9G12
  20923354.0244     159143.03849    135715.50747  20923354.1634   20923357.1864
       243.0004        206.0004
  20424413.7544   -1197149.59449   -122141.64648  20424413.2034   20424414.2114
       247.0004        218.0004
  23592918.9384     498306.63149    394928.64446  23592918.7624   23592922.9584
       219.0004        167.0004
  21865754.2014   -2113984.16649  -1618191.86046  21865753.7044   21865757.3204
       232.0004        185.0004
  21538242.1124    -115197.00949    -77488.62947  21538242.0454   21538245.2794
       239.0004        198.0004
  21769875.8314   -2907761.69949  -2221024.46447  21769875.5794   21769877.8324
       239.0004        201.0004
 07  2 17 15 56 20.0000000  0  6G 4G 2G17G 5G 9G12
  20925150.5494     168583.87049    143072.00847  20925150.5204   20925153.8504
       242.0004        206.0004
  20423160.6024   -1203735.02049   -127273.14748  20423160.1004   20423161.0514
       247.0004        218.0004
  23595203.6304     510312.89049    404284.14846  23595204.8304   23595207.4584
       224.0004        167.0004
  21863249.8164   -2127144.72949  -1628446.83746  21863248.6684   21863252.8284
       231.0004        185.0004
  21540192.5854    -104947.34549    -69501.88147  21540192.5854   21540195.8164
       238.0004        198.0004
  21767614.5384   -2919644.80449  -2230284.02647  21767614.5744   21767616.5064
       237.0004        201.0004
 07  2 17 15 56 25.0000000  0  6G 4G 2G17G 5G 9G12
  20926949.6044     178037.78849    150438.68847  20926949.7244   20926952.4844
       242.0004        206.0004
  20421910.1544   -1210306.17949   -132393.52948  20421909.7264   20421910.5584
       246.0004        218.0004
  23597488.4634     522319.76649    413640.16546  23597489.0684   23597491.2904
       222.0004        167.0004
  21860746.6544   -2140298.82849  -1638696.78146  21860745.4614   21860749.8074
       232.0004        184.0004
  21542145.6134     -94684.15549    -61504.58847  21542145.3134   21542148.7594
       239.0004        198.0004
  21765354.3004   -2931522.38149  -2239539.28147  21765354.3194   21765356.1354
       238.0004        201.0004
 07  2 17 15 56 30.0000000  0  6G 4G 2G17G 5G 9G12
  20928751.1054     187504.66149    157815.47647  20928751.0574   20928754.2694
       243.0004        206.0004
  20420662.4074   -1216863.14049   -137502.85148  20420661.9304   20420662.7584
       247.0004        218.0004
  23599773.4454     534327.29149    422996.66246  23599773.6374   23599776.2314
       223.0004        166.0004
  21858244.7514   -2153446.48549  -1648941.70846  21858243.6934   21858247.2424
       233.0004        185.0004
  21544101.2224     -84407.41049    -53496.74147  21544101.0094   21544104.4974
       238.0004        198.0004
  21763095.1204   -2943394.44149  -2248790.23147  21763095.1434   21763097.0204
       237.0004        201.0004
 07  2 17 15 56 35.0000000  0  6G 4G 2G17G 5G 9G12
  20930555.0584     196984.49649    165202.35947  20930554.9984   20930558.1084
       242.0004        206.0004
  20419417.3254   -1223406.06549   -142601.23048  20419416.7124   20419417.7204
       246.0004        218.0004
  23602058.5304     546335.29249    432353.55346  23602058.8654   23602061.3874
       222.0004        166.0004
  21855744.0244   -2166587.80649  -1659181.69846  21855743.1244   21855747.3154
       232.0004        184.0004
  21546059.3944     -74117.23949    -45478.43047  21546059.1644   21546062.5814
       238.0004        198.0004
  21760836.9504   -2955261.13249  -2258037.00447  21760836.9264   21760838.9574
       238.0004        201.0004
 07  2 17 15 56 40.0000000  0  6G 4G 2G17G 5G 9G12
  20932361.4664     206477.26649    172599.31947  20932361.8174   20932364.4914
       242.0004        206.0004
  20418174.9384   -1229934.80849   -147688.56148  20418174.3124   20418175.4134
       247.0004        218.0004
  23604343.7334     558343.93449    441710.91946  23604343.9434   23604346.1764
       221.0004        166.0004
  21853244.5554   -2179722.68849  -1669416.67646  21853244.1144   21853247.4494
       232.0004        185.0004
  21548020.1094     -63813.57349    -37449.60247  21548020.1064   21548023.1624
       238.0004        198.0004
  21758579.8244   -2967122.31449  -2267279.48347  21758580.2084   21758582.0484
       239.0004        201.0004
 07  2 17 15 56 45.0000000  0  6G 4G 2G17G 5G 9G12
  20934170.3554     215983.01249    180006.39647  20934170.4054   20934173.5424
       243.0004        206.0004
  20416935.2514   -1236449.38649   -152764.85548  20416934.6104   20416935.7824
       247.0004        218.0004
  23606629.0144     570353.16249    451068.75446  23606628.9014   23606631.6144
       222.0004        166.0004
  21850746.2994   -2192851.11649  -1679646.61246  21850744.8944   21850748.9314
       231.0004        185.0004
  21549983.4264     -53496.41749    -29410.26247  21549982.9074   21549986.7664
       237.0004        198.0004
  21756323.7874   -2978977.95649  -2276517.64647  21756323.7904   21756325.7744
       238.0004        201.0004
 07  2 17 15 56 50.0000000  0  6G 4G 2G17G 5G 9G12
  20935981.6904     225501.63849    187423.51047  20935981.6914   20935984.9624
       242.0004        206.0004
  20415698.2194   -1242949.88249   -157830.17748  20415697.8764   20415698.5304
       247.0004        218.0004
  23608914.4194     582362.95249    460427.02446  23608915.0284   23608916.8084
       222.0004        166.0004
  21848249.2404   -2205973.14349  -1689871.57246  21848248.4324   21848252.5764
       230.0004        185.0004
  21551949.2564     -43165.91649    -21360.52847  21551948.8564   21551952.5744
       237.0004        198.0004
  21754068.8004   -2990828.13949  -2285751.55047  21754069.0214   21754070.7434
       238.0004        201.0004
 07  2 17 15 56 55.0000000  0  6G 4G 2G17G 5G 9G12
  20937795.4814     235033.22649    194850.71747  20937795.7364   20937798.6254
       243.0004        206.0004
  20414463.9384   -1249436.10549   -162884.36948  20414463.3014   20414464.4214
       247.0004        218.0004
  23611199.9114     594373.41649    469785.81646  23611199.7474   23611202.6664
       222.0004        166.0004
  21845753.4264   -2219088.63949  -1700091.43046  21845752.1804   21845756.1724
       231.0004        185.0004
  21553917.6334     -32821.90249    -13300.26247  21553917.0844   21553920.8584
       238.0004        198.0004
  21751814.8854   -3002672.68449  -2294981.06947  21751815.0024   21751816.8414
       238.0004        201.0004
 07  2 17 15 57  0.0000000  0  6G 4G 2G17G 5G 9G12
  20939611.7624     244577.70449    202287.97447  20939611.6684   20939615.0094
       241.0004        206.0004
  20413232.3634   -1255908.14849   -167927.52848  20413231.8744   20413232.7104
       247.0004        218.0004
  23613485.5514     606384.47349    479145.07146  23613486.1144   23613487.9184
       223.0004        166.0004
  21843258.8594   -2232197.66649  -1710306.25846  21843257.9974   21843261.8844
       231.0004        185.0004
  21555888.5584     -22464.50249     -5229.56547  21555888.3094   21555891.9384
       238.0004        198.0004
  21749561.9964   -3014511.70749  -2304206.27347  21749561.7924   21749563.9194
       239.0004        201.0004
 07  2 17 15 57  5.0000000  0  6G 4G 2G17G 5G 9G12
  20941430.4704     254135.04949    209735.24847  20941430.8094   20941433.3204
       244.0004        206.0004
  20412003.4574   -1262366.07349   -172959.67148  20412002.9044   20412003.7694
       247.0004        218.0004
  23615771.2654     618396.07349    488504.77646  23615772.3314   23615774.8264
       224.0004        166.0004
  21840765.5474   -2245300.21749  -1720516.04046  21840764.7734   21840768.5824
       231.0004        185.0004
  21557862.0404     -12093.73949      2851.54647  21557862.0234   21557864.8814
       238.0004        198.0004
  21747310.1584   -3026345.22549  -2313427.19947  21747310.4104   21747312.1354
       238.0004        201.0004
 07  2 17 15 57 10.0000000  0  6G 4G 2G17G 5G 9G12
  20943251.6714     263705.37949    217192.66147  20943251.3294   20943254.8204
       241.0004        206.0004
  20410777.2864   -1268809.69549   -177980.67648  20410776.7534   20410777.6884
       247.0004        218.0004
  23618057.1394     630408.39749    497865.01946  23618056.8394   23618059.8634
       223.0004        167.0004
  21838273.4894   -2258396.17049  -1730720.67946  21838272.8384   21838276.7204
       231.0004        185.0004
  21559838.0934      -1709.47849     10943.17547  21559838.0454   21559841.1364
       238.0004        198.0004
  21745059.3834   -3038173.07849  -2322643.70847  21745059.4794   21745061.4384
       238.0004        201.0004
 07  2 17 15 57 15.0000000  0  6G 4G 2G17G 5G 9G12
  20945075.2694     273288.50249    224660.01547  20945075.5664   20945078.4664
       242.0004        206.0004
  20409553.7674   -1275239.20949   -182990.68448  20409553.2104   20409554.2464
       247.0004        218.0004
  23620343.1154     642421.16449    507225.61346  23620342.8174   23620345.7804
       222.0004        167.0004
  21835782.6354   -2271485.75749  -1740920.35046  21835781.2034   21835784.6974
       230.0004        185.0004
  21561816.7074       8688.06149     19045.14647  21561817.2154   21561819.7184
       239.0004        198.0004
  21742809.6574   -3049995.46749  -2331855.94947  21742809.7764   21742811.5924
       240.0004        201.0004
 07  2 17 15 57 20.0000000  0  6G 4G 2G17G 5G 9G12
  20946901.3514     282884.52249    232137.44747  20946901.0624   20946904.4724
       243.0004        206.0004
  20408333.0004   -1281654.48349   -187989.60248  20408332.5154   20408333.4004
       247.0004        218.0004
  23622629.1714     654434.58849    516586.72446  23622629.4844   23622633.1284
       223.0004        167.0004
  21833293.0244   -2284568.76549  -1751114.89946  21833291.9964   21833296.1674
       230.0004        185.0004
  21563797.8514      19098.99049     27157.56747  21563797.5244   21563801.5104
       238.0004        198.0004
  21740561.0534   -3061812.21849  -2341063.81947  21740561.3034   21740562.7704
       238.0004        201.0004
 07  2 17 15 57 25.0000000  0  6G 4G 2G17G 5G 9G12
  20948729.8754     292493.40149    239624.86947  20948730.1864   20948732.8254
       242.0004        206.0004
  20407114.9144   -1288055.61649   -192977.49548  20407114.4894   20407115.4024
       247.0004        218.0004
  23624915.3414     666448.57349    525948.25546  23624914.8624   23624919.4674
       223.0004        167.0004
  21830804.6424   -2297645.29349  -1761304.39646  21830803.8094   21830807.8064
       232.0004        185.0004
  21565781.5544      29523.24349     35280.34847  21565781.3104   21565785.0204
       237.0004        198.0004
  21738313.4794   -3073623.43149  -2350267.35147  21738313.3394   21738315.5204
       239.0004        201.0004
 07  2 17 15 57 30.0000000  0  6G 4G 2G17G 5G 9G12
  20950560.8294     302115.11549    247122.31847  20950560.7794   20950563.8884
       242.0004        206.0004
  20405899.5074   -1294442.52049   -197954.30148  20405899.0404   20405899.8924
       247.0004        218.0004
  23627201.6414     678463.13149    535310.24146  23627201.9784   23627205.5224
       224.0004        167.0004
  21828317.5184   -2310715.27049  -1771488.80246  21828316.5214   21828319.8764
       230.0004        185.0004
  21567767.7694      39960.86649     43413.55547  21567767.7954   21567771.1914
       237.0004        198.0004
  21736066.9414   -3085429.00949  -2359466.50547  21736066.9344   21736068.7124
       238.0004        201.0004
 07  2 17 15 57 35.0000000  0  6G 4G 2G17G 5G 9G12
  20952394.2224     311749.61449    254629.71347  20952394.5494   20952397.3554
       242.0004        206.0004
  20404686.8244   -1300815.25149   -202920.06248  20404686.3504   20404687.2394
       247.0004        218.0004
  23629488.0534     690478.24649    544672.66446  23629488.1064   23629491.7224
       224.0004        167.0004
  21825831.6324   -2323778.67149  -1781668.07246  21825831.4514   21825834.4654
       231.0004        185.0004
  21569756.4974      50411.77049     51557.11947  21569756.1094   21569760.1784
       238.0004        198.0004
  21733821.4884   -3097229.00749  -2368661.30747  21733821.3694   21733823.4794
       238.0004        201.0004
 07  2 17 15 57 40.0000000  0  6G 4G 2G17G 5G 9G12
  20954230.0474     321396.95949    262147.13247  20954229.7294   20954232.9174
       242.0004        205.0004
  20403476.8514   -1307173.71849   -207874.71248  20403476.4474   20403477.2634
       247.0004        218.0004
  23631774.6454     702493.98949    554035.57646  23631774.8934   23631777.7734
       225.0004        168.0004
  21823346.9814   -2336835.46949  -1791842.20146  21823345.9624   21823350.1914
       230.0004        185.0004
  21571747.7944      60876.05049     59711.08947  21571747.8404   21571751.0154
       239.0004        198.0004
  21731577.1144   -3109023.31049  -2377851.67147  21731577.2724   21731579.0394
       239.0004        201.0004
 07  2 17 15 57 45.0000000  0  6G 4G 2G17G 5G 9G12
  20956068.3034     331057.12949    269674.53147  20956068.3264   20956071.4384
       240.0004        205.0004
  20402269.5604   -1313518.10549   -212818.38748  20402269.1534   20402270.0674
       247.0004        218.0004
  23634061.3244     714510.23549    563398.88146  23634061.7404   23634064.0614
       224.0004        168.0004
  21820863.5544   -2349885.84249  -1802011.31446  21820862.7514   21820866.5434
       229.0004        185.0004
  21573741.5914      71353.45549     67875.30947  21573741.3704   21573744.8594
       238.0004        198.0004
  21729333.8044   -3120812.12549  -2387037.76447  21729333.8354   21729335.6654
       238.0004        201.0004
 07  2 17 15 57 50.0000000  0  6G 4G 2G17G 5G 9G12
  20957908.9864     340729.95949    277211.80147  20957909.0214   20957912.2314
       242.0004        205.0004
  20401064.9954   -1319848.30249   -217751.00948  20401064.7074   20401065.5134
       248.0004        219.0004
  23636348.0884     726527.02749    572762.61046  23636348.6764   23636351.1164
       225.0004        168.0004
  21818381.3694   -2362929.68149  -1812175.33546  21818380.1404   21818384.7624
       231.0004        185.0004
  21575737.9004      81844.14949     76049.86347  21575737.8674   21575741.1624
       238.0004        198.0004
  21727091.5304   -3132595.35249  -2396219.49347  21727091.4484   21727093.2634
       240.0004        201.0004
 07  2 17 15 57 55.0000000  0  6G 4G 2G17G 5G 9G12
  20959752.1184     350415.69849    284759.13747  20959752.1164   20959755.4464
       241.0004        205.0004
  20399863.1294   -1326164.20549   -222672.49048  20399862.6894   20399863.6034
       247.0004        219.0004
  23638635.0084     738544.45749    582126.84146  23638634.8344   23638638.9404
       222.0004        167.0004
  21815900.4384   -2375966.82149  -1822334.15746  21815900.3764   21815903.1104
       232.0004        185.0004
  21577736.7414      92348.12549     84234.78747  21577736.3744   21577740.0464
       238.0004        198.0004
  21724850.3414   -3144372.84849  -2405396.76047  21724850.0494   21724852.1624
       238.0004        201.0004
 07  2 17 15 58  0.0000000  0  6G 4G 2G17G 5G 9G12
  20961597.6744     360114.13349    292316.35347  20961597.6384   20961600.6514
       242.0004        205.0004
  20398663.9434   -1332465.90749   -227582.90348  20398663.5494   20398664.4584
       246.0004        219.0004
  23640921.9704     750562.46949    591491.52246  23640922.0104   23640924.6954
       223.0004        167.0004
  21813420.8214   -2388997.39349  -1832487.84646  21813419.9244   21813423.8014
       231.0004        185.0004
  21579738.1134     102865.33749     92430.00947  21579738.0584   21579741.3814
       237.0004        198.0004
  21722610.2014   -3156144.82049  -2414569.72147  21722609.9104   21722612.1164
       238.0004        201.0004
 07  2 17 15 58  5.0000000  0  6G 4G 2G17G 5G 9G12
  20963445.5944     369825.04349    299883.29747  20963445.3194   20963448.7054
       241.0004        205.0004
  20397467.4454   -1338753.69549   -232482.47948  20397467.1074   20397467.8824
       246.0004        219.0004
  23643208.9984     762580.76149    600856.42446  23643208.9774   23643211.7354
       222.0004        167.0004
  21810942.3984   -2402021.68849  -1842636.65146  21810942.1994   21810945.1184
       231.0004        185.0004
  21581741.9354     113395.47749    100635.31247  21581741.4814   21581745.2034
       238.0004        198.0004
  21720371.0804   -3167911.42249  -2423738.50847  21720371.1204   21720373.1284
       239.0004        201.0004
 07  2 17 15 58 10.0000000  0  6G 4G 2G17G 5G 9G12
  20965295.9264     379548.71749    307460.17947  20965295.9684   20965299.1494
       242.0004        205.0004
  20396273.6134   -1345027.26849   -237370.97848  20396273.1544   20396274.0854
       246.0004        219.0004
  23645496.1474     774599.63749    610221.77546  23645496.2744   23645498.5564
       222.0004        166.0004
  21808465.2254   -2415039.38449  -1852780.31246  21808464.7444   21808468.2134
       230.0004        185.0004
  21583748.2684     123938.84149    108850.91847  21583747.9624   21583751.9054
       237.0004        198.0004
  21718133.0634   -3179672.33149  -2432902.84847  21718133.0194   21718134.8534
       239.0004        202.0004
 07  2 17 15 58 15.0000000  0  6G 4G 2G17G 5G 9G12
  20967148.7014     389285.12949    315047.00147  20967148.3854   20967151.8014
       242.0004        205.0004
  20395082.5124   -1351286.60149   -242248.37548  20395081.9894   20395082.7994
       246.0004        219.0004
  23647783.3664     786619.08849    619587.57346  23647783.0904   23647786.8534
       224.0004        166.0004
  21805989.3044   -2428050.41449  -1862918.77246  21805988.4284   21805992.2694
       232.0004        185.0004
  21585757.1074     134495.43049    117076.83147  21585756.8414   21585760.7004
       238.0004        198.0004
  21715896.1304   -3191427.54349  -2442062.75647  21715896.0884   21715897.9414
       236.0004        202.0004
 07  2 17 15 58 20.0000000  0  6G 4G 2G17G 5G 9G12
  20969003.9094     399034.34049    322643.78147  20969003.7714   20969007.0174
       242.0004        205.0004
  20393894.1344   -1357531.64449   -247114.64348  20393893.7614   20393894.4684
       246.0004        219.0004
  23650070.7184     798639.18849    628953.86846  23650071.4364   23650073.3414
       225.0004        166.0004
  21803514.6584   -2441054.75749  -1873052.02446  21803513.8514   21803517.4584
       231.0004        185.0004
  21587768.4964     145065.27149    125313.06447  21587768.2694   21587771.9804
       238.0004        197.0004
  21713660.2754   -3203176.99449  -2451218.16747  21713660.1164   21713662.2944
       239.0004        202.0004
 07  2 17 15 58 25.0000000  0  6G 4G 2G17G 5G 9G12
  20970861.5434     408796.35149    330250.54047  20970861.5254   20970864.8584
       241.0004        205.0004
  20392708.4524   -1363762.37049   -251969.75648  20392708.1424   20392708.8544
       245.0004        219.0004
  23652358.1914     810659.91249    638320.67646  23652358.8234   23652360.1314
       224.0004        167.0004
  21801041.2654   -2454052.39449  -1883180.05046  21801040.3244   21801044.9104
       230.0004        185.0004
  21589782.4014     155648.38449    133559.64147  21589782.1854   21589785.6884
       237.0004        197.0004
  21711425.5134   -3214920.65449  -2460369.06947  21711425.2534   21711427.4914
       238.0004        202.0004
 07  2 17 15 58 30.0000000  0  6G 4G 2G17G 5G 9G12
  20972721.5984     418570.98149    337867.13947  20972721.5274   20972724.5234
       241.0004        205.0004
  20391525.5094   -1369978.93949   -256813.83148  20391525.1014   20391525.7974
       246.0004        219.0004
  23654645.7824     822681.15849    647687.87646  23654645.4004   23654649.1344
       223.0004        167.0004
  21798569.0994   -2467043.44749  -1893302.94646  21798568.4454   21798572.2394
       232.0004        185.0004
  21591798.7914     166244.59749    141816.43647  21591798.3194   21591802.3504
       237.0004        197.0004
  21709191.8204   -3226658.69749  -2469515.59747  21709191.7694   21709193.9264
       239.0004        201.0004
 07  2 17 15 58 35.0000000  0  6G 4G 2G17G 5G 9G12
  20974584.0914     428358.49049    345493.76447  20974584.2874   20974587.2134
       242.0004        205.0004
  20390345.2654   -1376181.08249   -261646.66848  20390344.8184   20390345.5954
       246.0004        219.0004
  23656933.4904     834703.14249    657055.64346  23656933.7164   23656936.0284
       223.0004        168.0004
  21796098.2924   -2480027.61749  -1903420.47546  21796097.5864   21796101.3774
       232.0004        186.0004
  21593817.7344     176854.18749    150083.63447  21593817.5414   21593820.9264
       237.0004        197.0004
  21706959.2644   -3238390.84249  -2478657.52547  21706959.1554   21706961.2364
       239.0004        201.0004
 07  2 17 15 58 40.0000000  0  6G 4G 2G17G 5G 9G12
  20976449.0224     438158.70449    353130.29747  20976448.9674   20976451.9734
       242.0004        205.0004
  20389167.7544   -1382369.02849   -266468.44348  20389167.2034   20389168.0894
       245.0004        219.0004
  23659221.3064     846725.71549    666423.87546  23659221.0424   23659224.4964
       223.0004        168.0004
  21793628.7614   -2493005.11349  -1913532.81446  21793628.1354   21793631.8894
       231.0004        186.0004
  21595839.1384     187476.88449    158361.06547  21595838.7124   21595842.3314
       238.0004        197.0004
  21704727.8064   -3250117.24649  -2487794.97947  21704727.6504   21704729.7164
       238.0004        201.0004
 07  2 17 15 58 45.0000000  0  6G 4G 2G17G 5G 9G12
  20978316.3814     447971.70249    360776.78347  20978316.5844   20978319.4014
       242.0004        205.0004
  20387992.9454   -1388542.62449   -271279.04148  20387992.5564   20387993.2894
       245.0004        219.0004
  23661509.2224     858748.95249    675792.60946  23661509.0284   23661511.6504
       223.0004        168.0004
  21791160.5504   -2505975.81649  -1923639.85646  21791160.2144   21791163.4324
       232.0004        186.0004
  21597863.1054     198112.81049    166648.79047  21597862.7614   21597866.3834
       237.0004        197.0004
  21702497.4974   -3261837.79549  -2496927.88347  21702497.5844   21702499.5864
       238.0004        201.0004
 07  2 17 15 58 50.0000000  0  6G 4G 2G17G 5G 9G12
  20980186.1374     457797.30549    368433.10247  20980186.2694   20980189.3284
       243.0004        205.0004
  20386820.8724   -1394701.95549   -276078.51848  20386820.3684   20386821.3414
       246.0004        219.0004
  23663797.2764     870772.76149    685161.81346  23663797.1344   23663800.3394
       222.0004        168.0004
  21788693.5814   -2518939.83449  -1933741.68846  21788692.6824   21788696.5354
       233.0004        186.0004
  21599889.5604     208761.84549    174946.73447  21599889.3584   21599893.1224
       237.0004        197.0004
  21700268.2244   -3273552.59849  -2506056.29047  21700267.8774   21700270.2984
       239.0004        201.0004
 07  2 17 15 58 55.0000000  0  6G 4G 2G17G 5G 9G12
  20982058.3544     467635.67349    376099.35447  20982058.6534   20982061.6544
       241.0004        205.0004
  20385651.5114   -1400846.97949   -280866.84448  20385650.8484   20385651.9394
       246.0004        219.0004
  23666085.4104     882797.21349    694531.52246  23666085.4804   23666087.1954
       223.0004        168.0004
  21786227.9204   -2531897.07149  -1943838.23546  21786227.6684   21786230.4744
       232.0004        186.0004
  21601918.5174     219424.09349    183254.97547  21601918.4434   21601922.0674
       238.0004        197.0004
  21698040.0934   -3285261.57749  -2515180.16947  21698039.5804   21698041.8584
       239.0004        201.0004
 07  2 17 15 59  0.0000000  0  6G 4G 2G17G 5G 9G12
  20983932.9484     477486.69249    383775.47247  20983933.1954   20983936.0274
       242.0004        205.0004
  20384484.8674   -1406977.70949   -285644.03548  20384484.3554   20384485.2944
       246.0004        219.0004
  23668373.6854     894822.27549    703901.68846  23668374.5754   23668376.8794
       224.0004        167.0004
  21783763.5764   -2544847.48549  -1953929.46946  21783763.3444   21783766.5524
       232.0004        186.0004
  21603950.0044     230099.50649    191573.48047  21603949.8074   21603953.6854
       237.0004        197.0004
  21695813.0474   -3296964.72549  -2524299.51047  21695812.9914   21695814.9524
       238.0004        201.0004
 07  2 17 15 59  5.0000000  0  6G 4G 2G17G 5G 9G12
  20985809.9434     487350.30349    391461.40647  20985809.7764   20985812.8754
       240.0004        205.0004
  20383320.9274   -1413094.30249   -290410.20948  20383320.3514   20383321.4484
       246.0004        219.0004
  23670662.0544     906847.83549    713272.25246  23670661.7524   23670664.4164
       223.0004        168.0004
  21781300.4784   -2557791.27249  -1964015.53046  21781299.5004   21781303.3214
       231.0004        186.0004
  21605983.9774     240787.94849    199902.12747  21605983.8094   21605987.5014
       237.0004        197.0004
  21693587.1144   -3308662.16949  -2533414.40147  21693586.9724   21693589.2314
       238.0004        202.0004
 07  2 17 15 59 10.0000000  0  6G 4G 2G17G 5G 9G12
  20987689.3274     497226.58849    399157.20847  20987689.3854   20987692.3274
       242.0004        205.0004
  20382159.7264   -1419196.54749   -295165.20748  20382159.3754   20382160.0394
       246.0004        219.0004
  23672950.5614     918874.02949    722643.30546  23672950.7874   23672953.1394
       225.0004        168.0004
  21778838.6474   -2570728.24749  -1974096.28746  21778837.7244   21778841.5714
       232.0004        186.0004
  21608020.4124     251489.56049    208241.03847  21608020.3594   21608023.9434
       238.0004        197.0004
  21691362.2994   -3320353.74349  -2542524.72047  21691362.3024   21691364.2634
       238.0004        202.0004
 07  2 17 15 59 15.0000000  0  6G 4G 2G17G 5G 9G12
  20989571.1144     507115.48049    406862.84947  20989571.0024   20989574.2264
       241.0004        205.0004
  20381001.1964   -1425284.60949   -299909.15148  20381000.7674   20381001.5974
       246.0004        219.0004
  23675239.1824     930900.70649    732014.74046  23675239.3134   23675242.7604
       224.0004        168.0004
  21776378.0804   -2583658.56149  -1984171.86246  21776377.6574   21776381.0904
       233.0004        186.0004
  21610059.3574     262204.15649    216590.07847  21610059.2174   21610062.8494
       238.0004        197.0004
  21689138.5624   -3332039.62249  -2551630.59547  21689138.5024   21689140.3024
       239.0004        202.0004
 07  2 17 15 59 20.0000000  0  6G 4G 2G17G 5G 9G12
  20991455.2914     517016.93749    414578.25447  20991455.3484   20991458.3574
       242.0004        205.0004
  20379845.4024   -1431358.32449   -304641.91448  20379844.8574   20379845.8304
       246.0004        219.0004
  23677527.9134     942928.04649    741386.67446  23677528.9184   23677531.2824
       224.0004        168.0004
  21773918.8164   -2596582.03649  -1994242.10346  21773918.6704   21773921.6264
       232.0004        186.0004
  21612100.7844     272931.87949    224949.32947  21612100.3844   21612103.8144
       236.0004        197.0004
  21686915.9424   -3343719.61949  -2560731.89247  21686915.8714   21686917.8654
       238.0004        202.0004
 07  2 17 15 59 25.0000000  0  6G 4G 2G17G 5G 9G12
  20993341.8904     526930.97549    422303.48047  20993341.7624   20993344.9764
       242.0004        205.0004
  20378692.3544   -1437417.80249   -309363.58348  20378691.8254   20378692.6334
       245.0004        219.0004
  23679816.7514     954955.89749    750759.01946  23679817.5634   23679819.4674
       226.0004        169.0004
  21771460.8554   -2609498.75149  -2004307.07546  21771460.3424   21771463.5454
       234.0004        187.0004
  21614144.6624     283672.58649    233318.71647  21614144.1894   21614147.7894
       236.0004        197.0004
  21684694.3764   -3355393.82549  -2569828.67747  21684694.2894   21684696.2704
       238.0004        202.0004
 07  2 17 15 59 30.0000000  0  6G 4G 2G17G 5G 9G12
  20995230.8894     536857.67449    430038.57647  20995230.8444   20995233.7654
       241.0004        205.0004
  20377541.9824   -1443462.94449   -314074.08248  20377541.6114   20377542.3024
       245.0004        219.0004
  23682105.7234     966984.38649    760131.86846  23682105.6994   23682109.4204
       223.0004        169.0004
  21769004.2324   -2622408.62149  -2014366.71446  21769003.6324   21769007.3884
       232.0004        187.0004
  21616191.0364     294426.36149    241698.27547  21616190.6934   21616194.2654
       236.0004        197.0004
  21682473.9664   -3367062.14649  -2578920.86447  21682473.6064   21682476.0584
       238.0004        202.0004
 07  2 17 15 59 35.0000000  0  7G 4G 2G30G17G 5G 9G12
  20997122.2364     546796.80949    437783.34847  20997122.2654   20997125.3304
       241.0004        204.0004
  20376394.3354   -1449493.88149   -318773.51148  20376393.7664   20376394.6994
       246.0004        219.0004
                  -1617044.02859  -1222021.24943
       212.0004         74.0004
  23684394.7824     979013.37749    769505.08846  23684395.1544   23684398.6974
       224.0004        169.0004
  21766548.8834   -2635311.71149  -2024421.07246  21766548.1824   21766551.5184
       232.0004        187.0004
  21618239.8584     305193.07649    250087.91947  21618239.6544   21618243.3404
       237.0004        197.0004
  21680254.6254   -3378724.66249  -2588008.55347  21680254.9024   21680256.6434
       239.0004        202.0004
 07  2 17 15 59 40.0000000  0  7G 4G 2G30G17G 5G 9G12
  20999016.0184     556748.65049    445538.03147  20999015.9644   20999019.1124
       242.0004        204.0004
  20375249.4474   -1455510.43849   -323461.73948  20375248.9794   20375249.7844
       245.0004        219.0004
                  -1633912.87749  -1235165.80443
       214.0004         74.0004
  23686683.9954     991043.01249    778878.83146  23686684.7894   23686687.3614
       223.0004        169.0004
  21764094.8294   -2648207.95849  -2034470.09346  21764094.1414   21764097.4654
       232.0004        187.0004
  21620291.1864     315972.88049    258487.76747  21620290.7444   21620294.6144
       237.0004        197.0004
  21678036.4604   -3390381.25649  -2597091.60047  21678036.1984   21678038.6254
       240.0004        202.0004
 07  2 17 15 59 45.0000000  0  7G 4G 2G30G17G 5G 9G12
  21000912.1854     566712.99949    453302.45847  21000912.0614   21000915.2634
       240.0004        204.0004
  20374107.2374   -1461512.78949   -328138.89148  20374106.6494   20374107.6344
       246.0004        219.0004
                  -1650780.84049  -1248309.67243
       212.0004         74.0004
  23688973.2824    1003073.12849    788252.94146  23688972.1464   23688976.3934
       223.0004        169.0004
  21761642.0294   -2661097.44349  -2044513.84346  21761641.0594   21761645.4164
       231.0004        187.0004
  21622344.9584     326765.60749    266897.67847  21622345.2224   21622348.5014
       237.0004        197.0004
  21675819.4164   -3402032.03749  -2606170.13747  21675819.4424   21675821.2694
       239.0004        202.0004
 07  2 17 15 59 50.0000000  0  7G 4G 2G30G17G 5G 9G12
  21002810.7274     576689.95849    461076.70547  21002810.9474   21002813.4864
       242.0004        204.0004
  20372967.7484   -1467500.78349   -332804.86348  20372967.1384   20372968.0934
       246.0004        219.0004
                  -1667647.80449  -1261452.75544                  24101864.2424
       213.0004        103.0004
  23691262.6894    1015103.90449    797627.57046  23691263.0704   23691265.1334
       223.0004        168.0004
  21759190.5424   -2673979.96049  -2054552.16446  21759189.5964   21759193.4304
       232.0004        187.0004
  21624401.2754     337571.41049    275317.78447  21624400.9894   21624404.3094
       237.0004        197.0004
  21673603.4874   -3413676.86949  -2615244.03047  21673603.4374   21673605.4934
       237.0004        202.0004
 07  2 17 15 59 55.0000000  0  7G 4G 2G30G17G 5G 9G12
  21004711.6404     586679.33249    468860.63747  21004711.6014   21004714.6734
       241.0004        204.0004
  20371830.9564   -1473474.61949   -337459.79948  20371830.5054   20371831.3484
       245.0004        219.0004
                  -1684513.93449  -1274595.19644                  24098654.3664
       213.0004        124.0004
  23693552.1454    1027135.11949    807002.53546  23693552.4654   23693555.1584
       225.0004        168.0004
  21756740.3514   -2686855.76649  -2064585.25246  21756739.4834   21756743.1334
       233.0004        187.0004
  21626460.0034     348390.06649    283747.90447  21626459.3944   21626463.2714
       236.0004        196.0004
  21671388.6624   -3425315.97449  -2624313.45847  21671388.5404   21671390.7564
       239.0004        202.0004
 07  2 17 16  0  0.0000000  0  7G 4G 2G30G17G 5G 9G12
  21006614.9794     596681.28749    476654.36147  21006614.9834   21006617.9564
       242.0004        204.0004
  20370696.9204   -1479434.13349   -342103.57248  20370696.3904   20370697.2444
       246.0004        219.0004
                  -1701379.07349  -1287736.86245                  24095444.9774
       213.0004        135.0004
  23695841.7434    1039166.96349    816378.00046  23695842.9094   23695844.8694
       224.0004        168.0004
  21754291.4634   -2699724.67849  -2074612.98146  21754290.7784   21754294.3584
       233.0004        187.0004
  21628521.2204     359221.75749    292188.17147  21628520.8274   21628524.9054
       237.0004        196.0004
  21669174.9454   -3436949.14749  -2633378.25947  21669174.6034   21669176.7414
       238.0004        202.0004
 07  2 17 16  0  5.0000000  0  7G 4G 2G30G17G 5G 9G12
  21008520.6764     606695.70749    484457.80847  21008520.5544   21008523.7684
       241.0004        204.0004
  20369565.5734   -1485379.33349   -346736.19448  20369565.0344   20369565.9454
       246.0004        219.0004
                  -1718243.15849  -1300877.70745                  24092235.9724
       212.0004        140.0004
  23698131.4314    1051199.41049    825753.91546  23698131.6454   23698134.4504
       223.0004        168.0004
  21751843.8954   -2712586.71649  -2084635.34846  21751843.1824   21751847.1784
       233.0004        187.0004
  21630584.8684     370066.40749    300638.54447  21630584.5684   21630588.4554
       236.0004        196.0004
  21666962.3454   -3448576.40149  -2642438.46647  21666962.3444   21666964.2234
       239.0004        202.0004
 07  2 17 16  0 10.0000000  0  7G 4G 2G30G17G 5G 9G12
  21010428.7694     616722.66549    492271.01347  21010428.8834   21010431.8304
       242.0004        204.0004
  20368436.9584   -1491310.23049   -351357.67248  20368436.4354   20368437.3184
       245.0004        219.0004
                  -1735106.23049  -1314017.75945                  24089027.1894
       214.0004        145.0004
  23700421.2554    1063232.44349    835130.30446  23700421.7294   23700423.9404
       223.0004        168.0004
  21749397.6724   -2725441.87149  -2094652.35546  21749396.9364   21749400.6024
       233.0004        187.0004
  21632651.0214     380923.98849    309098.99547  21632650.7084   21632654.6394
       237.0004        196.0004
  21664750.8614   -3460197.75249  -2651494.06047  21664750.6554   21664752.9554
       238.0004        202.0004
 07  2 17 16  0 15.0000000  0  7G 4G 2G30G17G 5G 9G12
  21012339.2214     626762.12949    500093.97547  21012339.0104   21012342.2884
       241.0004        204.0004
  20367311.0604   -1497226.80749   -355967.99048  20367310.5944   20367311.4204
       245.0004        219.0004
  24085813.4844   -1751968.29049  -1327157.02045  24085812.5794   24085818.3934
       215.0004        147.0004
  23702711.1874    1075266.07549    844507.15446  23702711.5144   23702715.1474
       224.0004        168.0004
  21746952.7834   -2738290.09049  -2104663.95446  21746952.1884   21746955.6654
       232.0004        187.0004
  21634719.5924     391794.53449    317569.54347  21634719.5454   21634723.1264
       237.0004        196.0004
  21662540.5174   -3471813.10349  -2660544.98247  21662540.4054   21662542.5124
       239.0004        202.0004
 07  2 17 16  0 20.0000000  0  7G 4G 2G30G17G 5G 9G12
  21014251.9914     636813.81549    507926.45547  21014252.0464   21014255.2764
       242.0004        204.0004
  20366187.8734   -1503129.29849   -360567.33548  20366187.4824   20366188.2244
       246.0004        219.0004
  24082605.1334   -1768829.51349  -1340295.63045  24082604.9204   24082610.3364
       216.0004        150.0004
  23705001.1834    1087300.06649    853884.27446  23705001.5994   23705004.1804
       222.0004        168.0004
  21744509.1194   -2751131.65449  -2114670.36346  21744508.4904   21744512.1234
       231.0004        187.0004
  21636790.6074     402677.73749    326049.96147  21636790.4524   21636794.1844
       236.0004        196.0004
  21660331.2784   -3483422.73249  -2669591.45147  21660331.5054   21660333.3014
       239.0004        202.0004
 07  2 17 16  0 25.0000000  0  7G 4G 2G30G17G 5G 9G12
  21016167.1314     646878.02549    515768.70047  21016167.0304   21016170.2204
       241.0004        204.0004
  20365067.3744   -1509017.44049   -365155.49448  20365066.9484   20365067.7104
       246.0004        219.0004
  24079396.9854   -1785689.69849  -1353433.43145  24079397.1704   24079402.3634
       216.0004        151.0004
  23707291.3084    1099334.64349    863261.85546  23707291.0544   23707294.2334
       223.0004        168.0004
  21742066.7834   -2763966.28549  -2124671.36946  21742066.1414   21742069.7244
       232.0004        187.0004
  21638864.0704     413573.88249    334540.45447  21638863.9364   21638867.7414
       238.0004        196.0004
  21658123.1944   -3495026.39149  -2678633.25347  21658123.1434   21658125.1394
       239.0004        202.0004
 07  2 17 16  0 30.0000000  0  7G 4G 2G30G17G 5G 9G12
  21018084.6474     656954.54649    523620.52847  21018084.4134   21018087.6304
       241.0004        204.0004
  20363949.6244   -1514891.38549   -369732.59248  20363949.1414   20363949.8474
       245.0004        219.0004
  24076189.0164   -1802548.96449  -1366570.51745  24076189.7814   24076194.2924
       216.0004        153.0004
  23709581.5324    1111369.64749    872639.77946  23709581.3184   23709584.1274
       223.0004        168.0004
  21739625.7314   -2776794.05949  -2134667.03446  21739624.8714   21739628.4324
       232.0004        187.0004
  21640939.9734     424482.74949    343040.87247  21640940.0294   21640943.5634
       236.0004        196.0004
  21655916.2134   -3506624.18249  -2687670.49547  21655916.1314   21655918.2354
       238.0004        202.0004
 07  2 17 16  0 35.0000000  0  7G 4G 2G30G17G 5G 9G12
  21020004.4754     667043.41849    531481.98947  21020004.4644   21020007.7984
       242.0004        204.0004
  20362834.5404   -1520751.09549   -374298.59848  20362834.0034   20362834.8764
       246.0004        219.0004
  24072981.2444   -1819407.30549  -1379706.88345  24072982.2714   24072986.0454
       216.0004        154.0004
  23711871.8434    1123405.16749    882018.10046  23711872.5124   23711874.8494
       221.0004        168.0004
  21737186.0054   -2789614.97949  -2144657.36446  21737185.5804   21737189.1004
       233.0004        187.0004
  21643018.3154     435404.41049    351551.25547  21643017.6814   21643021.6464
       237.0004        196.0004
  21653710.3444   -3518216.08449  -2696703.14347  21653710.2284   21653712.1774
       238.0004        202.0004
 07  2 17 16  0 40.0000000  0  7G 4G 2G30G17G 5G 9G12
  21021926.7204     677144.80949    539353.19347  21021926.8834   21021929.7904
       242.0004        204.0004
  20361722.2244   -1526596.45049   -378853.42748  20361721.9234   20361722.5454
       245.0004        219.0004
  24069773.6074   -1836264.58249  -1392842.42445  24069774.3424   24069778.1154
       216.0004        155.0004
  23714162.2684    1135441.28949    891396.86346  23714163.0174   23714166.8404
       222.0004        168.0004
  21734747.5964   -2802428.90649  -2154642.24047  21734746.6184   21734750.3294
       233.0004        188.0004
  21645099.0894     446338.97849    360071.68947  21645098.9004   21645102.8744
       236.0004        196.0004
  21651505.6134   -3529801.98649  -2705731.11647  21651505.4354   21651507.8174
       240.0004        202.0004
 07  2 17 16  0 45.0000000  0  7G 4G 2G30G17G 5G 9G12
  21023851.2644     687258.33549    547233.86847  21023851.1614   21023854.2604
       242.0004        204.0004
  20360612.5624   -1532427.75549   -383397.29848  20360612.0924   20360613.0314
       246.0004        219.0004
  24066566.0524   -1853121.00149  -1405977.29445  24066566.7134   24066570.2414
       217.0004        156.0004
  23716452.7424    1147477.72049    900775.90946  23716452.5924   23716455.4394
       221.0004        168.0004
  21732310.4804   -2815236.11449  -2164621.88747  21732310.1454   21732313.1264
       233.0004        188.0004
  21647182.2634     457286.18949    368601.98147  21647181.9484   21647185.8604
       237.0004        196.0004
  21649301.9704   -3541382.13049  -2714754.60847  21649301.9004   21649304.0364
       239.0004        202.0004
 07  2 17 16  0 50.0000000  0  7G 4G 2G30G17G 5G 9G12
  21025778.2204     697384.46649    555124.36047  21025778.1374   21025781.1904
       240.0004        204.0004
  20359505.6434   -1538244.56549   -387929.86948  20359505.0184   20359505.9484
       246.0004        219.0004
  24063358.6974   -1869976.17649  -1419111.18945  24063359.0234   24063362.5754
       216.0004        157.0004
  23718743.3414    1159514.94649    910155.55546  23718743.7854   23718746.4654
       221.0004        168.0004
  21729874.7114   -2828036.18849  -2174595.96247  21729873.5224   21729877.7424
       232.0004        188.0004
  21649267.9554     468246.43249    377142.42747  21649267.3344   21649271.5144
       236.0004        196.0004
  21647099.5294   -3552956.11849  -2723773.30047  21647099.6554   21647101.5104
       239.0004        202.0004
 07  2 17 16  0 55.0000000  0  7G 4G 2G30G17G 5G 9G12
  21027707.5034     707522.95149    563024.47247  21027707.4514   21027710.5274
       241.0004        204.0004
  20358401.4654   -1544047.08949   -392451.32048  20358401.0024   20358401.8844
       246.0004        219.0004
  24060151.4964   -1886830.30049  -1432244.26445  24060151.9334   24060155.2204
       217.0004        157.0004
  23721034.0274    1171552.63949    919535.57046  23721034.0804   23721036.6284
       223.0004        168.0004
  21727440.2494   -2840829.35049  -2184564.65447  21727439.4774   21727443.0684
       232.0004        188.0004
  21651356.0244     479219.42649    385692.80947  21651355.7784   21651359.4804
       237.0004        196.0004
  21644898.2094   -3564524.18449  -2732787.37147  21644898.0394   21644900.4094
       238.0004        202.0004
 07  2 17 16  1  0.0000000  0  7G 4G 2G30G17G 5G 9G12
  21029639.1354     717673.75949    570934.18847  21029639.1344   21029642.1334
       241.0004        204.0004
  20357300.0234   -1549835.27049   -396961.58948  20357299.5354   20357300.4454
       246.0004        219.0004
  24056944.4794   -1903683.35249  -1445376.50445  24056944.5744   24056948.0324
       217.0004        157.0004
  23723324.8374    1183590.86449    928915.99946  23723324.9144   23723328.0494
       222.0004        168.0004
  21725007.1354   -2853615.49849  -2194527.89647  21725006.1214   21725009.6574
       232.0004        188.0004
  21653446.5704     490205.24649    394253.18147  21653446.5314   21653450.0814
       236.0004        196.0004
  21642698.0264   -3576086.21149  -2741796.74147  21642697.8024   21642700.0384
       238.0004        203.0004
 07  2 17 16  1  5.0000000  0  7G 4G 2G30G17G 5G 9G12
  21031573.1164     727836.90949    578853.52747  21031572.9754   21031576.2074
       240.0004        204.0004
  20356201.2964   -1555609.19749   -401460.75548  20356200.8554   20356201.6784
       246.0004        219.0004
  24053737.7104   -1920535.35049  -1458507.92545  24053737.9644   24053741.2324
       217.0004        158.0004
  23725615.7654    1195629.54349    938296.78846  23725616.0484   23725617.9554
       222.0004        167.0004
  21722575.3154   -2866394.73449  -2204485.72947  21722574.5054   21722578.4124
       232.0004        188.0004
  21655539.5034     501203.78249    402823.46447  21655539.4724   21655543.3134
       236.0004        196.0004
  21640498.9594   -3587642.32449  -2750801.50847  21640499.0644   21640500.9674
       239.0004        203.0004
 07  2 17 16  1 10.0000000  0  7G 4G 2G30G17G 5G 9G12
  21033509.4534     738012.44349    586782.50947  21033509.6344   21033512.4954
       241.0004        204.0004
  20355105.2914   -1561368.77049   -405948.73248  20355104.8444   20355105.7124
       246.0004        219.0004
  24050531.1464   -1937386.21349  -1471638.46445  24050531.7134   24050534.7004
       217.0004        158.0004
  23727906.7904    1207668.80949    947678.03046  23727906.8824   23727908.5034
       222.0004        167.0004
  21720144.8264   -2879166.89949  -2214438.07147  21720144.5974   21720147.3924
       233.0004        188.0004
  21657634.8974     512215.13949    411403.74047  21657635.1114   21657638.5514
       237.0004        196.0004
  21638301.0564   -3599192.38249  -2759801.55147  21638301.3464   21638303.1004
       239.0004        203.0004
 07  2 17 16  1 15.0000000  0  7G 4G 2G30G17G 5G 9G12
  21035448.1254     748200.25949    594721.06947  21035447.9724   21035450.9274
       241.0004        204.0004
  20354011.9774   -1567114.12649   -410425.63148  20354011.4714   20354012.3774
       246.0004        219.0004
  24047324.7894   -1954236.06949  -1484768.22245  24047325.1634   24047328.7724
       217.0004        158.0004
  23730197.8844    1219708.56749    957059.66246  23730198.1364   23730199.1644
       221.0004        167.0004
  21717715.6834   -2891932.17349  -2224385.03047  21717715.1094   21717718.4844
       232.0004        188.0004
  21659732.7044     523239.14849    419993.87747  21659732.3094   21659736.3144
       236.0004        196.0004
  21636104.2834   -3610736.51649  -2768796.98047  21636104.3174   21636106.3564
       239.0004        203.0004
 07  2 17 16  1 20.0000000  0  7G 4G 2G30G17G 5G 9G12
  21037389.1534     758400.40649    602669.22647  21037389.2184   21037392.1564
       240.0004        204.0004
  20352921.4114   -1572845.10949   -414891.33148  20352920.9464   20352921.8614
       246.0004        219.0004
  24044118.6334   -1971084.80449  -1497897.10645  24044119.0934   24044123.0854
       216.0004        159.0004
  23732489.0984    1231748.92749    966441.73946  23732490.0194   23732491.8384
       221.0004        167.0004
  21715287.8814   -2904690.38849  -2234326.49947  21715287.5094   21715290.6214
       233.0004        188.0004
  21661832.9394     534275.96649    428593.98347  21661832.7154   21661836.3244
       236.0004        196.0004
  21633908.6894   -3622274.54949  -2777787.65247  21633908.7874   21633910.5604
       239.0004        203.0004
 07  2 17 16  1 25.0000000  0  7G 4G 2G30G17G 5G 9G12
  21039332.5044     768612.86349    610626.98847  21039332.7134   21039335.3774
       242.0004        203.0004
  20351833.5484   -1578561.80549   -419345.89748  20351832.9994   20351833.9504
       246.0004        219.0004
  24040912.6594   -1987932.48149  -1511025.16245  24040912.8724   24040916.7944
       214.0004        159.0004
  23734780.4084    1243789.81649    975824.24046  23734779.3244   23734782.8964
       220.0004        166.0004
  21712861.4344   -2917441.63649  -2244262.52447  21712860.6594   21712864.5204
       233.0004        188.0004
  21663935.5824     545325.47349    437203.98847  21663935.5494   21663939.0034
       236.0004        196.0004
  21631714.1984   -3633806.57749  -2786773.64947  21631714.3064   21631716.3744
       239.0004        203.0004
 07  2 17 16  1 30.0000000  0  7G 4G 2G30G17G 5G 9G12
  21041278.2414     778837.66049    618594.35947  21041278.1264   21041281.2374
       241.0004        203.0004
  20350748.4424   -1584264.09649   -423789.24248  20350748.0804   20350748.8804
       246.0004        219.0004
  24037706.8634   -2004778.99649  -1524152.30945  24037706.5324   24037710.7874
       214.0004        159.0004
  23737071.8184    1255831.34749    985207.23546  23737072.5574   23737074.1214
       220.0004        166.0004
  21710436.3104   -2930185.73149  -2254193.00047  21710435.8784   21710439.0344
       232.0004        188.0004
  21666040.7054     556387.81649    445823.98547  21666041.1424   21666044.2934
       237.0004        196.0004
  21629520.9044   -3645332.45949  -2795754.86147  21629521.0244   21629522.7144
       238.0004        203.0004
 07  2 17 16  1 35.0000000  0  7G 4G 2G30G17G 5G 9G12
  21043226.2804     789074.67649    626571.25447  21043226.2084   21043229.3394
       241.0004        203.0004
  20349666.0344   -1589952.12049   -428221.46748  20349665.6504   20349666.4354
       246.0004        219.0004
  24034501.2454   -2021624.45549  -1537278.63045  24034500.6714   24034505.1744
       215.0004        159.0004
  23739363.3434    1267873.35449    994590.60346  23739363.9304   23739364.9844
       222.0004        166.0004
  21708012.5154   -2942922.85649  -2264118.02247  21708011.9364   21708015.4644
       233.0004        188.0004
  21668148.2234     567462.80149    454453.84847  21668148.0834   21668151.5544
       237.0004        196.0004
  21627328.7444   -3656852.32649  -2804731.38247  21627328.7924   21627330.8164
       239.0004        203.0004
 07  2 17 16  1 40.0000000  0  7G 4G 2G30G17G 5G 9G12
  21045176.6654     799323.91049    634557.67047  21045176.6274   21045179.7824
       241.0004        203.0004
  20348586.3804   -1595625.86649   -432642.56648  20348585.8574   20348586.7734
       246.0004        219.0004
  24031295.8094   -2038468.76149  -1550404.05345  24031295.1714   24031299.4344
       214.0004        159.0004
  23741654.9564    1279915.84949   1003974.37346  23741654.8244   23741657.3134
       221.0004        166.0004
  21705590.0764   -2955652.95849  -2274037.58247  21705589.2534   21705592.9444
       233.0004        188.0004
  21670258.1484     578550.42849    463093.55147  21670258.1724   21670261.7674
       237.0004        196.0004
  21625137.7284   -3668366.14649  -2813703.18247  21625137.5194   21625139.8314
       238.0004        203.0004
 07  2 17 16  1 45.0000000  0  7G 4G 2G30G17G 5G 9G12
  21047129.3854     809585.51149    642553.72047  21047129.3264   21047132.4704
       241.0004        203.0004
  20347509.4444   -1601285.23649   -437052.46548  20347508.9134   20347509.8484
       245.0004        219.0004
  24028090.5994   -2055311.87749  -1563528.55245  24028090.2394   24028094.2704
       216.0004        159.0004
  23743946.6804    1291958.94649   1013358.59246  23743947.5474   23743949.9474
       221.0004        166.0004
  21703168.9634   -2968375.96049  -2283951.60847  21703168.4594   21703171.8184
       232.0004        188.0004
  21672370.4734     589650.75149    471743.14747  21672370.4204   21672373.8324
       237.0004        196.0004
  21622947.8564   -3679873.85549  -2822670.23247  21622947.8954   21622950.1954
       239.0004        203.0004
 07  2 17 16  1 50.0000000  0  7G 4G 2G30G17G 5G 9G12
  21049084.4514     819859.45149    650559.38447  21049084.3624   21049087.3164
       241.0004        203.0004
  20346435.2404   -1606930.15449   -441451.10048  20346434.8164   20346435.7564
       246.0004        219.0004
  24024885.6834   -2072153.74949  -1576652.08145  24024885.6984   24024889.2044
       215.0004        159.0004
  23746238.5544    1304002.67349   1022743.30046  23746238.1714   23746241.9924
       221.0004        167.0004
  21700749.2214   -2981091.76149  -2293860.02547  21700748.6544   21700752.2154
       233.0004        188.0004
  21674485.2374     600763.83349    480402.68147  21674485.1264   21674488.8414
       236.0004        196.0004
  21620759.1924   -3691375.36949  -2831632.44847  21620759.2604   21620761.3484
       239.0004        203.0004
 07  2 17 16  1 55.0000000  0  7G 4G 2G30G17G 5G 9G12
  21051041.8454     830145.59349    658574.55547  21051041.9474   21051044.8024
       241.0004        203.0004
  20345363.7724   -1612560.76849   -445838.59348  20345363.3584   20345364.0214
       245.0004        219.0004
  24021680.9894   -2088994.52649  -1589774.76345  24021681.7264   24021684.7004
       216.0004        159.0004
  23748530.4954    1316046.92949   1032128.42746  23748531.1944   23748533.1234
       219.0004        167.0004
  21698330.8084   -2993800.52049  -2303762.95547  21698330.2294   21698333.7444
       232.0004        188.0004
  21676602.3994     611889.49949    489072.02947  21676602.1414   21676605.8094
       236.0004        196.0004
  21618571.6854   -3702870.82249  -2840589.94047  21618571.6444   21618573.8864
       239.0004        203.0004
 07  2 17 16  2  0.0000000  0  7G 4G 2G30G17G 5G 9G12
  21053001.5264     840443.89349    666599.20847  21053001.3304   21053004.4804
       242.0004        203.0004
  20344295.0164   -1618177.05749   -450214.92048  20344294.5084   20344295.5074
       246.0004        219.0004
  24018476.5504   -2105834.12149  -1602896.52545  24018477.0644   24018480.1654
       217.0004        158.0004
  23750822.5534    1328091.67249   1041513.94346  23750821.5184   23750825.0634
       220.0004        167.0004
  21695913.7354   -3006502.24949  -2313660.39647  21695912.6124   21695917.0194
       232.0004        188.0004
  21678721.9174     623027.74849    497751.18747  21678721.7334   21678725.3604
       236.0004        196.0004
  21616385.3504   -3714360.17449  -2849542.68047  21616385.2284   21616387.4584
       238.0004        203.0004
 07  2 17 16  2  5.0000000  0  7G 4G 2G30G17G 5G 9G12
  21054963.6104     850754.62049    674633.53947  21054963.5924   21054966.7084
       240.0004        203.0004
  20343229.0144   -1623778.88249   -454579.98148  20343228.6264   20343229.4464
       246.0004        219.0004
  24015272.3744   -2122672.39049  -1616017.25445  24015272.7334   24015276.2654
       214.0004        158.0004
  23753114.7024    1340137.14049   1050900.01546  23753115.3504   23753117.6444
       220.0004        167.0004
  21693498.0574   -3019196.63849  -2323552.13447  21693497.6344   21693500.7784
       233.0004        188.0004
  21680843.9194     634178.77649    506440.28747  21680843.8144   21680847.3884
       236.0004        195.0004
  21614200.2074   -3725843.17549  -2858490.47447  21614200.2214   21614202.4334
       239.0004        203.0004
 07  2 17 16  2 10.0000000  0  7G 4G 2G30G17G 5G 9G12
  21056927.9784     861077.48449    682677.32347  21056928.1924   21056931.1314
       242.0004        203.0004
  20342165.7174   -1629366.48149   -458933.95148  20342165.2024   20342166.1844
       246.0004        219.0004
  24012068.3774   -2139509.60449  -1629137.16045  24012068.3114   24012072.2684
       214.0004        158.0004
  23755406.9594    1352183.07749   1060286.44946  23755406.7244   23755409.8704
       220.0004        167.0004
  21691083.7214   -3031884.03249  -2333438.40447  21691083.0764   21691086.7064
       232.0004        188.0004
  21682968.2424     645342.25349    515139.10247  21682968.0844   21682971.5344
       237.0004        195.0004
  21612016.2154   -3737320.15149  -2867433.56947  21612016.1734   21612018.2824
       238.0004        203.0004
 07  2 17 16  2 15.0000000  0  7G 4G 2G30G17G 5G 9G12
  21058894.6774     871412.65449    690730.70547  21058894.7414   21058897.8484
       241.0004        203.0004
  20341105.2044   -1634939.54149   -463276.59248  20341104.6564   20341105.6084
       245.0004        219.0004
  24008864.6424   -2156345.45749  -1642255.99845  24008864.4294   24008868.7204
       213.0004        158.0004
  23757699.3404    1364229.72749   1069673.43546  23757698.6674   23757701.7124
       219.0004        166.0004
  21688670.7654   -3044564.08749  -2343318.97347  21688670.1364   21688673.5124
       233.0004        188.0004
  21685095.0254     656518.55249    523847.89947  21685094.8414   21685098.5504
       236.0004        195.0004
  21609833.4074   -3748790.79849  -2876371.73447  21609833.1144   21609835.3724
       240.0004        203.0004
 07  2 17 16  2 20.0000000  0  7G 4G 2G30G17G 5G 9G12
  21060863.7444     881759.98049    698793.55147  21060863.9574   21060866.7114
       241.0004        203.0004
  20340047.4014   -1640498.30249   -467608.09748  20340047.0484   20340047.8434
       245.0004        219.0004
  24005661.1034   -2173180.16849  -1655373.94945  24005660.8474   24005664.7054
       212.0004        157.0004
  23759991.8134    1376276.78649   1079060.74946  23759992.9194   23759994.9814
       220.0004        166.0004
  21686259.1734   -3057237.06349  -2353194.01547  21686258.3364   21686262.1684
       232.0004        188.0004
  21687224.2034     667707.36049    532566.44647  21687224.2674   21687227.7534
       236.0004        195.0004
  21607651.7924   -3760255.34349  -2885305.14847  21607651.9744   21607653.8454
       238.0004        203.0004
 07  2 17 16  2 25.0000000  0  7G 4G 2G30G17G 5G 9G12
  21062835.0894     892119.56949    706865.95847  21062835.1234   21062838.3844
       241.0004        203.0004
  20338992.3394   -1646042.63749   -471928.35748  20338991.8994   20338992.7004
       246.0004        219.0004
  24002457.7974   -2190013.60849  -1668490.90645  24002457.6544   24002461.1554
       212.0004        156.0004
  23762284.4424    1388324.48449   1088448.56346  23762284.3534   23762288.4714
       219.0004        166.0004
  21683848.9704   -3069902.78349  -2363063.41047  21683848.0644   21683851.6284
       233.0004        188.0004
  21689355.8004     678908.82549    541294.85547  21689355.6724   21689359.4084
       237.0004        195.0004
  21605471.3334   -3771713.63849  -2894233.69147  21605471.3734   21605473.4394
       238.0004        203.0004
 07  2 17 16  2 30.0000000  0  7G 4G 2G30G17G 5G 9G12
  21064808.7854     902491.29449    714947.82147  21064808.4474   21064811.8354
       240.0004        203.0004
  20337940.0104   -1651572.66849   -476237.47448  20337939.6274   20337940.5374
       246.0004        219.0004
  23999254.7174   -2206845.82449  -1681606.91145  23999254.5224   23999258.2594
       214.0004        156.0004
  23764577.1524    1400372.68949   1097836.75846  23764576.8964   23764580.3484
       219.0004        166.0004
  21681440.1424   -3082561.38049  -2372927.24447  21681439.3824   21681443.1384
       233.0004        188.0004
  21691489.7644     690122.82549    550033.03447  21691489.7144   21691493.3904
       236.0004        195.0004
  21603292.0524   -3783165.84249  -2903157.48347  21603292.1824   21603293.9404
       238.0004        203.0004
 07  2 17 16  2 35.0000000  0  7G 4G 2G30G17G 5G 9G12
  21066784.7864     912875.25049    723039.20547  21066785.0684   21066787.7984
       241.0004        203.0004
  20336890.4164   -1657088.25649   -480535.33148  20336889.8744   20336890.8534
       246.0004        219.0004
  23996051.8954   -2223676.73249  -1694721.90045  23996051.8694   23996055.9154
       214.0004        156.0004
  23766870.0134    1412421.54349   1107225.46246  23766870.0684   23766873.9214
       220.0004        167.0004
  21679032.7054   -3095212.71249  -2382785.43247  21679031.8694   21679035.3994
       233.0004        188.0004
  21693626.1244     701349.46749    558781.05947  21693625.8854   21693629.9964
       236.0004        195.0004
  21601113.9754   -3794611.74749  -2912076.36747  21601114.0404   21601115.8944
       238.0004        203.0004
 07  2 17 16  2 40.0000000  0  7G 4G 2G30G17G 5G 9G12
  21068763.0784     923271.32649    731140.05147  21068762.9194   21068766.0894
       242.0004        203.0004
  20335843.5614   -1662589.52649   -484822.03448  20335843.0594   20335844.1204
       246.0004        219.0004
  23992849.2864   -2240506.44649  -1707835.95445  23992849.2464   23992852.6564
       214.0004        155.0004
  23769162.9754    1424470.87349   1116614.54646  23769162.8514   23769165.4094
       220.0004        167.0004
  21676626.6154   -3107856.92749  -2392638.06047  21676625.8844   21676629.3404
       233.0004        188.0004
  21695764.9014     712588.58949    567538.81747  21695764.6954   21695768.2804
       237.0004        195.0004
  21598937.0564   -3806051.48349  -2920990.44347  21598936.9774   21598939.2594
       240.0004        203.0004
 07  2 17 16  2 45.0000000  0  7G 4G 2G30G17G 5G 9G12
  21070743.7464     933679.69149    739250.46047  21070743.6784   21070747.0454
       241.0004        203.0004
  20334799.4764   -1668076.34749   -489097.48148  20334799.1814   20334799.9504
       246.0004        220.0004
  23989646.9924   -2257334.81249  -1720948.95845  23989647.3134   23989650.9294
       215.0004        155.0004
  23771456.0624    1436520.87049   1126004.14246  23771456.5934   23771459.5924
       220.0004        167.0004
  21674221.9264   -3120493.76949  -2402484.94947  21674221.4294   21674224.6914
       232.0004        188.0004
  21697906.0334     723840.34549    576306.40747  21697905.7824   21697909.7144
       235.0004        195.0004
  21596761.3334   -3817484.95449  -2929899.64747  21596761.6234   21596763.2484
       238.0004        203.0004
 07  2 17 16  2 50.0000000  0  7G 4G 2G30G17G 5G 9G12
  21072726.6474     944099.99649    747370.17447  21072726.8954   21072729.8624
       242.0004        203.0004
  20333758.0614   -1673548.93749   -493361.83848  20333757.7024   20333758.6374
       246.0004        220.0004
  23986444.8974   -2274162.10049  -1734061.12545  23986445.2594   23986448.6004
       215.0004        155.0004
  23773749.2224    1448571.24349   1135394.03046  23773748.6264   23773752.3544
       219.0004        168.0004
  21671818.5754   -3133123.57349  -2412326.35647  21671817.6334   21671821.1224
       233.0004        188.0004
  21700049.5344     735104.46049    585083.64147  21700049.2394   21700052.6844
       237.0004        195.0004
  21594586.7614   -3828912.36149  -2938804.11847  21594586.8394   21594588.8904
       239.0004        203.0004
 07  2 17 16  2 55.0000000  0  7G 4G 2G30G17G 5G 9G12
  21074711.8984     954532.36349    755499.29447  21074711.7014   21074715.1234
       241.0004        203.0004
  20332719.3944   -1679007.26149   -497615.07248  20332718.9824   20332719.9784
       246.0004        220.0004
  23983243.0584   -2290988.15449  -1747172.32945  23983243.5964   23983246.8714
       214.0004        154.0004
  23776042.4544    1460622.03749   1144784.25946  23776043.4184   23776046.1914
       219.0004        168.0004
  21669416.5364   -3145746.27249  -2422162.21247  21669415.6664   21669419.4344
       232.0004        188.0004
  21702195.3874     746380.99549    593870.54647  21702195.6634   21702198.6224
       237.0004        195.0004
  21592413.3734   -3840333.60049  -2947703.77847  21592413.3134   21592415.4554
       238.0004        203.0004
 07  2 17 16  3  0.0000000  0  7G 4G 2G30G17G 5G 9G12
  21076699.4224     964976.89749    763637.88147  21076699.7744   21076702.6024
       242.0004        203.0004
  20331683.4834   -1684451.01849   -501856.96248  20331683.1394   20331683.9514
       246.0004        220.0004
  23980041.4644   -2307812.77649  -1760282.42245  23980041.5434   23980044.6944
       215.0004        154.0004
  23778335.7844    1472673.53949   1154175.03146  23778335.1214   23778338.8544
       218.0004        168.0004
  21667015.8864   -3158361.58749  -2431992.32847  21667014.9284   21667018.9084
       233.0004        188.0004
  21704343.6504     757670.14549    602667.28347  21704343.7354   21704346.9424
       237.0004        195.0004
  21590241.2134   -3851748.41749  -2956598.44647  21590241.4074   21590243.4534
       239.0004        203.0004
 07  2 17 16  3  5.0000000  0  8G 4G 2G30G17G 5G 9G24G12
  21078689.2754     975433.44649    771785.84947  21078689.2874   21078692.3054
       241.0004        203.0004
  20330650.2824   -1689880.46249   -506087.69948  20330649.9644   20330650.6384
       246.0004        220.0004
  23976840.1264   -2324636.18049  -1773391.56845  23976840.3294   23976843.3984
       214.0004        154.0004
  23780629.2244    1484725.50549   1163566.15646  23780628.2944   23780632.6634
       216.0004        167.0004
  21664616.6394   -3170969.68549  -2441816.81647  21664616.2584   21664619.1034
       232.0004        188.0004
  21706494.2894     768971.70149    611473.68647  21706494.2374   21706497.6764
       236.0004        195.0004
                   -618304.04859   -457454.39843
       213.0004         74.0004
  21588070.2144   -3863157.07549  -2965488.30047  21588070.1604   21588072.2894
       240.0004        203.0004
 07  2 17 16  3 10.0000000  0  8G 4G 2G30G17G 5G 9G24G12
  21080681.4344     985902.20849    779943.31747  21080681.4084   21080684.5024
       241.0004        203.0004
  20329619.8764   -1695295.46649   -510307.18348  20329619.6374   20329620.3344
       246.0004        220.0004
  23973639.0244   -2341458.23349  -1786499.66745  23973639.3254   23973643.0524
       213.0004        154.0004
  23782922.7314    1496778.09549   1172957.76546  23782923.0254   23782925.5864
       217.0004        167.0004
  21662218.7524   -3183570.44449  -2451635.60047  21662218.1884   21662221.5994
       233.0004        188.0004
  21708647.2924     780285.80449    620289.86447  21708647.0464   21708651.0454
       235.0004        195.0004
                   -636415.17649   -471567.00943
       213.0004         74.0004
  21585900.4324   -3874559.37649  -2974373.22147  21585900.6224   21585902.5134
       239.0004        203.0004
 07  2 17 16  3 15.0000000  0  8G 4G 2G30G17G 5G 9G24G12
  21082675.8574     996383.03849    788110.20147  21082675.8374   21082679.0474
       241.0004        203.0004
  20328592.1674   -1700696.07949   -514515.45148  20328591.8294   20328592.6954
       247.0004        220.0004
  23970438.1754   -2358278.94549  -1799606.71145  23970437.8414   23970441.8384
       214.0004        153.0004
  23785216.3334    1508831.25649   1182349.83946  23785215.5084   23785219.0964
       217.0004        166.0004
  21659822.2764   -3196163.94649  -2461448.70847  21659821.9174   21659825.2174
       233.0004        188.0004
  21710802.6874     791612.35249    629115.74147  21710802.0744   21710805.9074
       236.0004        195.0004
                   -654522.19749   -485676.38243
       213.0004         74.0004
  21583731.8754   -3885955.41049  -2983253.24347  21583732.0734   21583733.9144
       240.0004        203.0004
 07  2 17 16  3 20.0000000  0  8G 4G 2G30G17G 5G 9G24G12
  21084672.6114    1006875.93949    796286.47847  21084672.7854   21084675.5284
       241.0004        203.0004
  20327567.2064   -1706082.27149   -518712.48548  20327566.7784   20327567.5744
       246.0004        220.0004
  23967237.5844   -2375098.28149  -1812712.68245  23967237.2574   23967241.2414
       214.0004        153.0004
  23787510.0734    1520884.95149   1191742.31346  23787509.4304   23787513.2854
       217.0004        166.0004
  21657427.2184   -3208750.14749  -2471256.14047  21657426.6064   21657430.0234
       233.0004        188.0004
  21712960.4104     802951.33749    637951.30547  21712960.1904   21712964.0004
       235.0004        195.0004
                   -672625.05849   -499782.49243
       212.0004         74.0004
  21581564.4944   -3897345.13249  -2992128.35247  21581564.6044   21581566.4964
       240.0004        203.0004
 07  2 17 16  3 25.0000000  0  8G 4G 2G30G17G 5G 9G24G12
  21086671.5984    1017380.82049    804472.09947  21086671.7714   21086674.6864
       241.0004        203.0004
  20326544.9864   -1711454.18649   -522898.39648  20326544.6064   20326545.4544
       246.0004        220.0004
  23964037.2054   -2391916.37149  -1825817.67645  23964037.3924   23964040.2054
       214.0004        153.0004
  23789803.8924    1532939.11049   1201135.15346  23789803.2624   23789806.4444
       216.0004        165.0004
  21655033.4824   -3221329.19349  -2481057.99047  21655032.7934   21655036.7624
       233.0004        188.0004
  21715120.4864     814302.62049    646796.45847  21715120.1654   21715123.3314
       237.0004        195.0004
                   -690723.84849   -513885.38943
       212.0004         74.0004
  21579398.2984   -3908728.65749  -3000998.62047  21579398.0644   21579400.3474
       240.0004        203.0004
 07  2 17 16  3 30.0000000  0  8G 4G 2G30G17G 5G 9G24G12
  21088672.9404    1027897.85349    812667.19147  21088673.2454   21088675.8314
       241.0004        203.0004
  20325525.5014   -1716811.57549   -527072.98148  20325525.1324   20325525.7714
       246.0004        220.0004
  23960837.1174   -2408732.96949  -1838921.51445  23960836.8684   23960840.2564
       215.0004        152.0004
  23792097.8234    1544993.95249   1210528.53646  23792097.7234   23792100.3544
       216.0004        165.0004
  21652641.2064   -3233900.75549  -2490854.00747  21652640.7494   21652644.3644
       233.0004        188.0004
  21717282.9544     825666.46149    655651.39547  21717282.7784   21717286.5634
       235.0004        195.0004
                   -708818.31749   -527984.90143
       212.0004         74.0004
  21577233.3174   -3920105.74149  -3009863.89247  21577233.4124   21577235.2194
       240.0004        204.0004
 07  2 17 16  3 35.0000000  0  8G 4G 2G30G17G 5G 9G24G12
  21090676.5434    1038426.90449    820871.65047  21090676.3694   21090679.7754
       241.0004        203.0004
  20324508.7844   -1722154.52349   -531236.31748  20324508.3264   20324509.1704
       246.0004        220.0004
  23957637.3024   -2425548.15049  -1852024.25845  23957637.6334   23957640.3694
       216.0004        152.0004
  23794391.8494    1557049.34849   1219922.34446  23794391.2864   23794395.2384
       218.0004        165.0004
  21650250.3194   -3246464.94949  -2500644.29347  21650249.8144   21650253.3334
       233.0004        189.0004
  21719447.7894     837042.74249    664516.02047  21719447.4894   21719451.2394
       236.0004        195.0004
                   -726908.54149   -542081.12943
       214.0004         74.0004
  21575069.5734   -3931476.47349  -3018724.20147  21575069.6604   21575071.7514
       240.0004        204.0004
 07  2 17 16  3 40.0000000  0  8G 4G 2G30G17G 5G 9G24G12
  21092682.4444    1048967.92549    829085.42347  21092682.7004   21092685.4634
       241.0004        203.0004
  20323494.7504   -1727483.15949   -535388.50048  20323494.3384   20323495.0914
       246.0004        220.0004
  23954437.7214   -2442362.04349  -1865125.99345  23954437.9484   23954441.3534
       217.0004        152.0004
  23796685.9764    1569105.22849   1229316.53446  23796685.9874   23796689.6274
       216.0004        165.0004
  21647860.8174   -3259021.88349  -2510428.90947  21647860.5284   21647864.1164
       234.0004        189.0004
  21721614.9944     848431.33249    673390.25047  21721614.5994   21721618.3814
       236.0004        195.0004
                   -744994.65649   -556174.16543
       214.0004         74.0004
  21572906.9924   -3942840.94049  -3027579.62747  21572906.8674   21572909.0134
       239.0004        204.0004
 07  2 17 16  3 45.0000000  0  8G 4G 2G30G17G 5G 9G24G12
  21094690.6304    1059520.97049    837308.58147  21094690.6504   21094694.0904
       241.0004        203.0004
  20322483.5124   -1732797.37749   -539529.45348  20322483.1684   20322483.8444
       246.0004        220.0004
  23951238.4304   -2459174.64049  -1878226.72745  23951238.5334   23951241.9264
       218.0004        152.0004
  23798980.2334    1581161.65349   1238711.13446  23798979.9994   23798984.0894
       217.0004        166.0004
  21645472.7224   -3271571.48849  -2520207.82147  21645472.2914   21645475.4234
       232.0004        189.0004
  21723784.5174     859832.31649    682274.12247  21723784.7074   21723787.5494
       236.0004        194.0004
                   -763076.60449   -570263.97244                  24172899.4664
       213.0004         96.0004
  21570745.6524   -3954199.03949  -3036430.09647  21570745.9034   21570747.8944
       239.0004        204.0004
 07  2 17 16  3 50.0000000  0  8G 4G 2G30G17G 5G 9G24G12
  21096701.0754    1070086.02349    845541.08247  21096701.0584   21096704.2784
       241.0004        203.0004
  20321474.9914   -1738097.19349   -543659.17848  20321474.5164   20321475.3484
       247.0004        220.0004
  23948039.4104   -2475985.79949  -1891326.32945  23948039.5374   23948042.7164
       218.0004        152.0004
  23801274.5704    1593218.61149   1248106.16346  23801274.0114   23801278.4954
       218.0004        166.0004
  21643086.0004   -3284113.76549  -2529981.02347  21643085.3144   21643088.8874
       233.0004        189.0004
  21725956.4374     871245.65149    691167.62747  21725956.2534   21725959.8034
       236.0004        194.0004
                   -781154.35549   -584350.52344                  24169459.9914
       214.0004        122.0004
  21568585.4634   -3965550.79449  -3045275.61447  21568585.3594   21568587.3304
       240.0004        204.0004
 07  2 17 16  3 55.0000000  0  8G 4G 2G30G17G 5G 9G24G12
  21098713.8464    1080663.08249    853782.94247  21098713.8344   21098717.0074
       241.0004        203.0004
  20320469.1994   -1743382.60849   -547777.68148  20320468.6224   20320469.6604
       246.0004        220.0004
  23944840.6564   -2492795.52649  -1904424.81745  23944840.8424   23944843.5654
       218.0004        152.0004
  23803569.0444    1605276.17249   1257501.64946  23803568.8624   23803572.7704
       217.0004        166.0004
  21640700.7204   -3296648.62149  -2539748.44947  21640700.4954   21640703.6434
       233.0004        189.0004
  21728130.6694     882671.39949    700070.80247  21728130.3184   21728134.0734
       236.0004        194.0004
                   -799227.85749   -598433.77245                  24166020.8314
       214.0004        133.0004
  21566426.5134   -3976896.15349  -3054116.15847  21566426.3444   21566428.6934
       239.0004        204.0004
 07  2 17 16  4  0.0000000  0  8G 4G 2G30G17G 5G 9G24G12
  21100728.8354    1091252.02149    862034.06647  21100728.9494   21100732.0244
       241.0004        203.0004
  20319466.1554   -1748653.69349   -551885.02348  20319465.8174   20319466.6214
       246.0004        220.0004
  23941642.1124   -2509603.96449  -1917522.30645  23941642.1164   23941645.3264
       219.0004        153.0004
  23805863.5874    1617334.16649   1266897.46946  23805863.5044   23805867.1494
       216.0004        166.0004
  21638316.7794   -3309176.22349  -2549510.20447  21638315.9764   21638319.3554
       232.0004        189.0004
  21730307.2544     894109.40049    708983.52847  21730307.2914   21730310.9754
       236.0004        194.0004
                   -817297.21849   -612513.79445                  24162581.7194
       213.0004        139.0004
  21564268.7584   -3988235.21749  -3062951.78847  21564268.8574   21564270.5784
       239.0004        204.0004
 07  2 17 16  4  5.0000000  0  8G 4G 2G30G17G 5G 9G24G12
  21102746.1264    1101852.89149    870294.48147  21102746.1034   21102749.2644
       240.0004        203.0004
  20318465.8514   -1753910.39049   -555981.14848  20318465.4394   20318466.3714
       246.0004        220.0004
  23938443.8164   -2526411.01049  -1930618.70845  23938443.5704   23938447.5174
       218.0004        153.0004
  23808158.2434    1629392.68649   1276293.69746  23808157.8454   23808161.9204
       216.0004        166.0004
  21635934.2554   -3321696.44349  -2559266.22147  21635933.6154   21635937.3844
       234.0004        189.0004
  21732486.1974     905559.72549    717905.85247  21732485.8834   21732489.6124
       236.0004        194.0004
                   -835362.36049   -626590.52745                  24159143.6344
       213.0004        143.0004
  21562112.2094   -3999567.92349  -3071782.47247  21562112.3604   21562114.2544
       239.0004        204.0004
 07  2 17 16  4 10.0000000  0  8G 4G 2G30G17G 5G 9G24G12
  21104765.6644    1112465.66149    878564.17147  21104765.7754   21104768.7054
       240.0004        203.0004
  20317468.2594   -1759152.80549   -560066.14848  20317467.7604   20317468.6914
       247.0004        220.0004
  23935245.7734   -2543216.70849  -1943714.05245  23935245.5044   23935249.0154
       219.0004        153.0004
  23810452.9594    1641451.63449   1285690.26246  23810453.1464   23810456.4174
       216.0004        166.0004
  21633553.1174   -3334209.39149  -2569016.56547  21633552.1244   21633555.7854
       233.0004        189.0004
  21734667.4384     917022.26149    726837.68847  21734667.2034   21734670.5564
       236.0004        194.0004
  24155700.4614    -853423.32649   -640664.00645  24155702.6554   24155706.3034
       212.0004        146.0004
  21559956.8564   -4010894.32749  -3080608.23647  21559956.7924   21559959.0414
       240.0004        204.0004
 07  2 17 16  4 15.0000000  0  8G 4G 2G30G17G 5G 9G24G12
  21106787.4384    1123090.20449    886843.03247  21106787.6054   21106790.5114
       241.0004        203.0004
  20316473.3804   -1764380.93149   -564140.01248  20316473.0484   20316473.8244
       246.0004        220.0004
  23932048.0134   -2560021.09449  -1956808.38245  23932048.0684   23932051.1814
       219.0004        154.0004
  23812747.8034    1653511.00949   1295087.16746  23812747.5184   23812751.1824
       217.0004        166.0004
  21631173.3364   -3346715.01049  -2578761.20447  21631172.7014   21631176.4784
       233.0004        189.0004
  21736850.9974     928496.97549    735779.02847  21736850.9814   21736854.3654
       236.0004        194.0004
  24152264.1974    -871480.12849   -654734.24045  24152265.5644   24152269.9744
       211.0004        148.0004
  21557802.6864   -4022214.46649  -3089429.12547  21557802.7244   21557804.6244
       239.0004        204.0004
 07  2 17 16  4 20.0000000  0  8G 4G 2G30G17G 5G 9G24G12
  21108811.5194    1133726.74449    895131.24647  21108811.7144   21108814.7224
       241.0004        203.0004
  20315481.2434   -1769594.60149   -568202.61148  20315480.7354   20315481.8474
       246.0004        220.0004
  23928850.4824   -2576824.03149  -1969901.58745  23928849.6424   23928853.6444
       219.0004        154.0004
  23815042.7584    1665570.97549   1304484.53946  23815042.2794   23815045.5994
       217.0004        165.0004
  21628795.0104   -3359213.15149  -2588500.00547  21628794.4174   21628797.6564
       234.0004        189.0004
  21739036.9184     939983.98249    744729.93247  21739036.7684   21739040.3034
       236.0004        194.0004
  24148828.8504    -889532.63249   -668801.12745  24148829.4634   24148834.2224
       212.0004        149.0004
  21555649.7314   -4033528.19549  -3098245.02247  21555649.6444   21555651.7124
       239.0004        204.0004
 07  2 17 16  4 25.0000000  0  8G 4G 2G30G17G 5G 9G24G12
  21110837.8364    1144375.04749    903428.61547  21110838.0414   21110841.0424
       240.0004        203.0004
  20314491.8414   -1774793.98949   -572254.08448  20314491.4504   20314492.3844
       246.0004        220.0004
  23925653.2314   -2593625.66049  -1982993.76645  23925652.2364   23925656.3894
       220.0004        154.0004
  23817337.7804    1677631.31649   1313882.19246  23817338.1504   23817340.9854
       219.0004        166.0004
  21626418.0784   -3371704.03649  -2598233.16747  21626417.2734   21626421.1704
       234.0004        189.0004
  21741225.1424     951483.12049    753690.29947  21741225.0434   21741228.4934
       236.0004        194.0004
  24145394.3044    -907581.01249   -682864.79845  24145394.9214   24145399.9614
       211.0004        150.0004
  21553498.0234   -4044835.64049  -3107056.01347  21553497.9144   21553500.2024
       239.0004        204.0004
 07  2 17 16  4 30.0000000  0  8G 4G 2G30G17G 5G 9G24G12
  21112866.4044    1155035.20049    911735.23347  21112866.5274   21112869.7094
       241.0004        203.0004
  20313505.1594   -1779979.06949   -576294.40348  20313504.8034   20313505.6664
       246.0004        220.0004
  23922456.2594   -2610425.93949  -1996084.89245  23922456.0284   23922459.5234
       218.0004        154.0004
  23819632.8914    1689692.10049   1323280.21446  23819633.4514   23819635.8944
       218.0004        166.0004
  21624042.5324   -3384187.59449  -2607960.60947  21624042.0474   21624045.3754
       235.0004        189.0004
  21743415.6794     962994.43449    762660.14447  21743415.3574   21743419.2914
       236.0004        194.0004
  24141960.5494    -925625.21849   -696925.21545  24141961.0684   24141966.1664
       211.0004        151.0004
  21551347.4744   -4056136.72549  -3115862.05247  21551347.3834   21551349.6994
       239.0004        204.0004
 07  2 17 16  4 35.0000000  0  8G 4G 2G30G17G 5G 9G24G12
  21114897.1364    1165706.79149    920050.76047  21114896.7214   21114900.1894
       239.0004        203.0004
  20312521.1494   -1785150.10549   -580323.78548  20312520.7944   20312521.5994
       247.0004        220.0004
  23919259.4754   -2627225.09449  -2009175.13645  23919259.3714   23919263.1644
       219.0004        155.0004
  23821928.0504    1701753.02749   1332678.34646  23821928.1824   23821931.8324
       217.0004        166.0004
  21621668.3414   -3396664.07649  -2617682.54847  21621667.7214   21621671.3134
       234.0004        189.0004
  21745608.4644     974517.56949    771639.20847  21745608.4294   21745611.9184
       237.0004        194.0004
  24138527.5884    -943665.52749   -710982.59745  24138527.8454   24138533.2194
       212.0004        151.0004
  21549198.0874   -4067431.81549  -3124663.41647  21549198.0214   21549199.8414
       239.0004        204.0004
 07  2 17 16  4 40.0000000  0  8G 4G 2G30G17G 5G 9G24G12
  21116930.1314    1176390.25349    928375.51747  21116930.6634   21116933.0704
       241.0004        203.0004
  20311539.8874   -1790306.75049   -584341.94948  20311539.4544   20311540.2724
       246.0004        220.0004
  23916062.9724   -2644022.79649  -2022264.24945  23916062.6544   23916066.5854
       219.0004        155.0004
  23824223.2684    1713814.46949   1342076.85946  23824223.3334   23824226.7074
       218.0004        165.0004
  21619295.5974   -3409133.11349  -2627398.68547  21619295.4934   21619298.5804
       234.0004        189.0004
  21747803.5954     986052.90449    780627.77647  21747803.6894   21747807.1774
       236.0004        194.0004
  24135095.4394    -961701.55449   -725036.63845  24135095.4614   24135101.0914
       210.0004        152.0004
  21547049.9424   -4078720.45649  -3133459.76547  21547049.8584   21547051.7454
       239.0004        204.0004
 07  2 17 16  4 45.0000000  0  8G 4G 2G30G17G 5G 9G24G12
  21118965.3704    1187085.58749    936709.56347  21118965.0854   21118968.8324
       241.0004        203.0004
  20310561.3544   -1795448.96049   -588348.86848  20310560.9614   20310561.7464
       246.0004        220.0004
  23912866.7164   -2660819.01349  -2035352.21745  23912866.3574   23912869.7244
       218.0004        155.0004
  23826518.6124    1725876.44049   1351475.79146  23826519.0244   23826522.1364
       216.0004        165.0004
  21616924.2824   -3421594.68249  -2637108.99347  21616923.9254   21616926.8624
       234.0004        189.0004
  21750001.0124     997600.47349    789625.87347  21750000.8084   21750004.2284
       236.0004        194.0004
  24131664.1424    -979733.21949   -739087.27645  24131664.0974   24131670.2414
       210.0004        152.0004
  21544903.0094   -4090002.62649  -3142251.06947  21544903.0444   21544904.9224
       240.0004        204.0004
 07  2 17 16  4 50.0000000  0  8G 4G 2G30G17G 5G 9G24G12
  21121002.8924    1197792.83949    945052.86147  21121003.1344   21121006.2024
       239.0004        203.0004
  20309585.5934   -1800576.70749   -592344.51048  20309585.0474   20309586.0684
       247.0004        220.0004
  23909670.7504   -2677613.77749  -2048439.04645  23909669.6104   23909674.3034
       217.0004        156.0004
  23828814.0134    1737938.96949   1360875.14546  23828813.4564   23828817.7324
       213.0004        165.0004
  21614554.3484   -3434048.74249  -2646813.45247  21614553.8264   21614556.8704
       234.0004        189.0004
  21752200.7744    1009160.25649    798633.49147  21752200.6854   21752204.1594
       236.0004        194.0004
  24128233.6994    -997760.55749   -753134.54345  24128233.2124   24128239.4554
       210.0004        152.0004
  21542757.2964   -4101278.28549  -3151037.29847  21542757.5194   21542759.4084
       239.0004        204.0004
 07  2 17 16  4 55.0000000  0  8G 4G 2G30G17G 5G 9G24G12
  21123042.6594    1208511.94049    953405.40947  21123042.7724   21123045.6104
       242.0004        203.0004
  20308612.5744   -1805690.03849   -596328.92648  20308612.1604   20308613.0164
       247.0004        220.0004
  23906475.0634   -2694407.02749  -2061524.69045  23906474.5724   23906478.7124
       217.0004        156.0004
  23831109.5454    1750002.09749   1370274.95646  23831109.2364   23831113.4254
       211.0004        165.0004
  21612185.8654   -3446495.32749  -2656512.08947  21612185.0764   21612188.8494
       234.0004        189.0004
  21754402.8594    1020732.22049    807650.59947  21754402.9304   21754406.4244
       236.0004        194.0004
  24124804.0654   -1015783.50149   -767178.38845  24124803.6464   24124809.2614
       210.0004        152.0004
  21540612.8694   -4112547.42349  -3159818.44247  21540613.0444   21540614.9554
       240.0004        204.0004
 07  2 17 16  5  0.0000000  0  8G 4G 2G30G17G 5G 9G24G12
  21125084.7194    1219242.85549    961767.16047  21125084.5084   21125087.9214
       239.0004        203.0004
  20307642.2824   -1810788.96949   -600302.11948  20307641.9724   20307642.7294
       247.0004        220.0004
  23903279.6514   -2711198.79049  -2074609.17345  23903279.1144   23903283.4834
       216.0004        156.0004
  23833405.1724    1762065.74449   1379675.18346  23833405.5574   23833408.4544
       215.0004        164.0004
  21609818.7714   -3458934.40749  -2666204.88447  21609818.0644   21609821.7374
       235.0004        189.0004
  21756607.2764    1032316.33349    816677.18347  21756607.5744   21756610.8424
       237.0004        194.0004
  24121375.2574   -1033802.14749   -781218.87945  24121374.7704   24121380.3374
       210.0004        152.0004
  21538469.6724   -4123810.11549  -3168594.56247  21538469.8284   21538471.7034
       239.0004        204.0004
 07  2 17 16  5  5.0000000  0  8G 4G 2G30G17G 5G 9G24G12
  21127128.9534    1229985.55749    970138.09047  21127129.2434   21127132.0364
       241.0004        202.0004
  20306674.7334   -1815873.46449   -604264.06248  20306674.2724   20306675.2294
       247.0004        221.0004
  23900084.5304   -2727989.08249  -2087692.51045  23900084.1364   23900089.0444
       217.0004        156.0004
  23835700.8904    1774129.90549   1389075.81646  23835700.5584   23835704.7074
       213.0004        164.0004
  21607453.1654   -3471365.97349  -2675891.81247  21607452.5524   21607455.5214
       234.0004        189.0004
  21758813.9834    1043912.64449    825713.26747  21758813.5974   21758817.3684
       236.0004        194.0004
  24117947.2904   -1051816.43049   -795255.97445  24117946.3434   24117952.2964
       208.0004        152.0004
  21536327.6964   -4135066.33249  -3177365.63747  21536327.8404   21536329.6784
       240.0004        204.0004
 07  2 17 16  5 10.0000000  0  8G 4G 2G30G17G 5G 9G24G12
  21129175.5044    1240740.17149    978518.31547  21129175.5664   21129178.2094
       240.0004        202.0004
  20305709.9474   -1820943.43549   -608214.69248  20305709.5704   20305710.3904
       246.0004        221.0004
  23896889.7224   -2744777.76049  -2100774.59145  23896889.8174   23896893.5474
       218.0004        156.0004
  23837996.7244    1786194.68049   1398476.92546  23837996.5484   23838001.2704
       213.0004        164.0004
  21605088.9724   -3483789.91549  -2685572.81047  21605088.2694   21605091.5024
       235.0004        189.0004
  21761023.0284    1055521.16249    834758.85947  21761022.7674   21761026.4034
       236.0004        194.0004
  24114520.1514   -1069826.24849   -809289.59045  24114519.4764   24114525.1464
       210.0004        151.0004
  21534186.9604   -4146315.90749  -3186131.54247  21534186.7834   21534189.1474
       239.0004        204.0004
 07  2 17 16  5 15.0000000  0  8G 4G 2G30G17G 5G 9G24G12
  21131224.2574    1251506.53749    986907.68647  21131224.3484   21131227.4004
       241.0004        202.0004
  20304747.9014   -1825999.01749   -612154.10448  20304747.4764   20304748.4434
       247.0004        221.0004
  23893695.2604   -2761564.92849  -2113855.49345  23893695.2594   23893698.5174
       218.0004        156.0004
  23840292.6534    1798259.99849   1407878.44946  23840293.0494   23840296.8474
       215.0004        164.0004
  21602726.2434   -3496206.36449  -2695247.96347  21602725.4544   21602729.0864
       234.0004        189.0004
  21763234.3634    1067141.77949    843813.88247  21763233.7974   21763237.7734
       236.0004        194.0004
  24111093.8584   -1087831.72949   -823319.83145  24111093.4474   24111098.8894
       210.0004        151.0004
  21532047.4874   -4157558.98549  -3194892.38247  21532047.4644   21532049.4634
       239.0004        204.0004
 07  2 17 16  5 20.0000000  0  8G 4G 2G30G17G 5G 9G24G12
  21133275.3134    1262284.76649    995306.30747  21133275.2284   21133278.7764
       240.0004        202.0004
  20303788.6364   -1831040.13649   -616082.25048  20303788.2004   20303789.1094
       247.0004        221.0004
  23890501.1014   -2778350.51949  -2126935.17245  23890501.3304   23890504.3634
       217.0004        156.0004
  23842588.6964    1810325.81949   1417280.37046  23842589.6694   23842591.9894
       217.0004        164.0004
  21600364.9184   -3508615.25949  -2704917.23447  21600364.1994   21600367.8864
       235.0004        189.0004
  21765448.0064    1078774.50849    852878.33347  21765448.0944   21765451.6674
       235.0004        194.0004
  24107668.3904   -1105832.80149   -837346.63145  24107668.1394   24107673.3224
       210.0004        151.0004
  21529909.2644   -4168795.51349  -3203648.11947  21529909.3444   21529911.2504
       240.0004        204.0004
 07  2 17 16  5 25.0000000  0  8G 4G 2G30G17G 5G 9G24G12
  21135328.5004    1273074.40649   1003713.81247  21135328.5664   21135331.5144
       241.0004        202.0004
  20302832.0014   -1836067.16649   -619999.41648  20302831.5324   20302832.4054
       247.0004        221.0004
  23887307.1954   -2795134.92249  -2140013.92845  23887307.6114   23887310.7204
       216.0004        156.0004
  23844884.7784    1822391.83449   1426682.47346  23844885.5694   23844889.1024
       217.0004        165.0004
  21598004.9694   -3521016.90449  -2714580.85347  21598004.6234   21598008.0334
       234.0004        190.0004
  21767663.8804    1090419.01149    861951.96647  21767663.8604   21767667.0944
       237.0004        194.0004
  24104243.7014   -1123829.79449   -851370.25045  24104243.2504   24104248.8524
       209.0004        151.0004
  21527772.2024   -4180025.84449  -3212399.02147  21527772.1834   21527774.3514
       240.0004        204.0004
 07  2 17 16  5 30.0000000  0  8G 4G 2G30G17G 5G 9G24G12
  21137384.0154    1283876.15649   1012130.76047  21137384.1534   21137386.7944
       240.0004        202.0004
  20301878.2084   -1841079.40549   -623905.05848  20301877.8024   20301878.7234
       247.0004        221.0004
  23884113.6444   -2811917.42349  -2153091.19145  23884113.5924   23884117.3534
       216.0004        155.0004
  23847181.0744    1834458.74849   1436085.26646  23847180.8704   23847185.2334
       215.0004        165.0004
  21595646.5114   -3533410.65949  -2724238.32247  21595645.6464   21595649.4854
       234.0004        190.0004
  21769882.1274    1102075.98349    871035.32247  21769882.3244   21769885.8284
       236.0004        194.0004
  24100819.9224   -1141822.02449   -865390.16145  24100819.5604   24100825.4334
       209.0004        150.0004
  21525636.4754   -4191249.28549  -3221144.56047  21525636.5224   21525638.4484
       240.0004        204.0004
 07  2 17 16  5 35.0000000  0  8G 4G 2G30G17G 5G 9G24G12
  21139441.7664    1294689.60249   1020556.82147  21139441.7794   21139444.8194
       241.0004        202.0004
  20300927.1574   -1846077.29249   -627799.51448  20300926.7414   20300927.6364
       247.0004        221.0004
  23880920.3474   -2828698.41849  -2166167.28245  23880920.7434   23880924.2574
       217.0004        155.0004
  23849477.4694    1846526.15649   1445488.41546  23849477.1914   23849480.2174
       214.0004        164.0004
  21593289.4794   -3545796.91849  -2733889.95547  21593289.1274   21593292.4084
       234.0004        190.0004
  21772102.6654    1113744.94749    880128.01747  21772102.7974   21772105.9734
       236.0004        194.0004
  24097396.9274   -1159809.94549   -879406.71545  24097396.5004   24097401.9274
       210.0004        150.0004
  21523501.9664   -4202466.25449  -3229885.05847  21523502.1794   21523504.1684
       239.0004        204.0004
 07  2 17 16  5 40.0000000  0  8G 4G 2G30G17G 5G 9G24G12
  21141501.7234    1305514.68949   1028991.95347  21141501.7734   21141504.6584
       241.0004        202.0004
  20299978.8354   -1851060.76349   -631682.73948  20299978.4674   20299979.2774
       247.0004        221.0004
  23877727.3704   -2845477.88249  -2179242.17745  23877727.2034   23877731.8354
       216.0004        155.0004
  23851773.9244    1858593.99249   1454891.92246  23851773.9904   23851776.4894
       213.0004        163.0004
  21590933.8634   -3558175.64549  -2743535.71147  21590933.2084   21590936.4514
       234.0004        190.0004
  21774325.5064    1125425.94049    889230.08847  21774324.8894   21774328.6904
       235.0004        194.0004
  24093974.7704   -1177793.47649   -893419.84645  24093974.3994   24093980.8124
       208.0004        150.0004
  21521368.6924   -4213676.70249  -3238620.47347  21521368.9464   21521370.7094
       240.0004        204.0004
 07  2 17 16  5 45.0000000  0  8G 4G 2G30G17G 5G 9G24G12
  21143563.9634    1316351.66249   1037436.33747  21143564.1054   21143567.0644
       241.0004        202.0004
  20299033.3084   -1856029.65049   -635554.59948  20299032.9524   20299033.7994
       247.0004        221.0004
  23874534.6864   -2862255.60949  -2192315.71345  23874534.3844   23874539.2014
       216.0004        155.0004
  23854070.5044    1870662.51549   1464295.96446  23854070.1914   23854074.2164
       214.0004        163.0004
  21588579.7194   -3570546.65449  -2753175.46247  21588578.9984   21588582.4644
       234.0004        190.0004
  21776550.6634    1137119.12749    898341.64947  21776550.4284   21776553.8914
       235.0004        194.0004
  24090553.4804   -1195772.43649   -907429.42145  24090552.8974   24090558.8784
       209.0004        149.0004
  21519236.7064   -4224880.43849  -3247350.65247  21519236.6124   21519238.7544
       240.0004        204.0004
 07  2 17 16  5 50.0000000  0  8G 4G 2G30G17G 5G 9G24G12
  21145628.4084    1327200.33649   1045889.85547  21145628.0264   21145631.5714
       240.0004        202.0004
  20298090.4794   -1860984.19049   -639415.27948  20298090.0754   20298090.9444
       248.0004        221.0004
  23871342.2944   -2879031.80749  -2205388.07345  23871342.0144   23871346.6484
       216.0004        155.0004
  23856367.1794    1882731.49949   1473700.36545  23856365.6424   23856369.9974
       211.0004        162.0004
  21586227.0284   -3582910.11549  -2762809.32647  21586226.3764   21586229.9794
       234.0004        190.0004
  21778778.0544    1148824.27349    907462.53447  21778777.8864   21778781.5404
       236.0004        194.0004
  24087133.0274   -1213747.02849   -921435.59145  24087132.4454   24087138.1894
       207.0004        149.0004
  21517105.9584   -4236077.64849  -3256075.74847  21517106.1374   21517108.0304
       240.0004        204.0004
 07  2 17 16  5 55.0000000  0  8G 4G 2G30G17G 5G 9G24G12
  21147695.0914    1338060.68949   1054352.45747  21147695.3354   21147697.8544
       240.0004        202.0004
  20297150.4374   -1865924.29149   -643264.71148  20297149.9554   20297150.8104
       247.0004        221.0004
  23868150.2174   -2895806.43149  -2218459.20845  23868149.3444   23868153.7564
       217.0004        155.0004
  23858663.9054    1894801.01549   1483105.15945  23858662.4724   23858668.1124
       211.0004        161.0004
  21583875.8014   -3595265.96949  -2772437.26447  21583875.2544   21583878.6644
       236.0004        190.0004
  21781007.7814    1160541.43649    916592.78947  21781007.8624   21781011.0224
       235.0004        193.0004
  24083713.4364   -1231717.18749   -935438.30745  24083713.1024   24083718.4064
       207.0004        148.0004
  21514976.4554   -4247268.32749  -3264795.76447  21514976.4424   21514978.4274
       239.0004        204.0004
 07  2 17 16  6  0.0000000  0  8G 4G 2G30G17G 5G 9G24G12
  21149764.0084    1348932.87649   1062824.30047  21149763.9334   21149767.2034
       240.0004        202.0004
  20296213.1344   -1870849.79649   -647102.76448  20296212.6844   20296213.6544
       247.0004        221.0004
  23864958.4584   -2912579.28449  -2231528.96845  23864958.6834   23864961.6784
       218.0004        155.0004
  23860960.7164    1906871.18549   1492510.47145  23860959.9314   23860964.7164
       213.0004        161.0004
  21581526.0504   -3607614.03249  -2782059.13347  21581525.4514   21581529.0534
       234.0004        190.0004
  21783239.8104    1172270.83449    925732.56747  21783239.8474   21783242.9994
       236.0004        193.0004
  24080294.7064   -1249682.70749   -949437.40845  24080294.5694   24080300.1374
       209.0004        148.0004
  21512848.2084   -4258452.29049  -3273510.53547  21512848.1554   21512850.4494
       240.0004        204.0004
 07  2 17 16  6  5.0000000  0  8G 4G 2G30G17G 5G 9G24G12
  21151835.1314    1359816.71249   1071305.20747  21151834.9894   21151838.4254
       239.0004        202.0004
  20295278.5974   -1875760.87949   -650929.58348  20295278.0814   20295279.1734
       247.0004        221.0004
  23861767.0314   -2929350.52849  -2244597.47145  23861766.8834   23861770.7464
       219.0004        155.0004
  23863257.6454    1918941.88449   1501916.20745  23863257.4214   23863261.7764
       212.0004        161.0004
  21579177.7574   -3619954.47449  -2791675.06247  21579177.4164   21579180.8334
       235.0004        190.0004
  21785474.1084    1184012.18149    934881.67647  21785473.5704   21785477.4674
       236.0004        193.0004
  24076876.8354   -1267643.72849   -963433.00145  24076875.9764   24076881.9424
       208.0004        148.0004
  21510721.2564   -4269629.59749  -3282220.12747  21510721.2784   21510723.2794
       240.0004        204.0004
 07  2 17 16  6 10.0000000  0  8G 4G 2G30G17G 5G 9G24G12
  21153908.4334    1370712.22449   1079795.21347  21153908.4444   21153911.3274
       241.0004        202.0004
  20294346.8034   -1880657.45649   -654745.09348  20294346.3264   20294347.2214
       247.0004        221.0004
  23858575.9064   -2946120.06849  -2257664.64445  23858575.4124   23858579.8064
       220.0004        155.0004
  23865554.6634    1931013.16249   1511322.37445  23865554.6404   23865558.0694
       214.0004        161.0004
  21576830.9094   -3632287.22049  -2801284.98747  21576829.9514   21576833.4684
       233.0004        190.0004
  21787710.7124    1195765.58049    944040.15847  21787710.2624   21787714.2904
       235.0004        193.0004
  24073459.8004   -1285600.23249   -977425.06945  24073459.1814   24073464.2874
       207.0004        147.0004
  21508595.5614   -4280800.20449  -3290924.49347  21508595.6294   21508597.6764
       240.0004        204.0004
 07  2 17 16  6 15.0000000  0  8G 4G 2G30G17G 5G 9G24G12
  21155983.9994    1381619.44249   1088294.34447  21155983.7874   21155987.1464
       239.0004        202.0004
  20293417.7464   -1885539.58649   -658549.35148  20293417.1204   20293418.1964
       247.0004        221.0004
  23855385.0944   -2962887.93949  -2270730.52245  23855385.3504   23855388.3194
       219.0004        155.0004
  23867851.8344    1943084.97149   1520728.96245  23867851.9204   23867855.9944
       215.0004        161.0004
  21574485.5334   -3644612.30049  -2810888.94747  21574484.6154   21574488.2534
       235.0004        190.0004
  21789949.6174    1207530.98549    953208.00247  21789949.7724   21789953.1784
       236.0004        193.0004
  24070043.6454   -1303552.22549   -991413.62945  24070043.2564   24070049.0494
       208.0004        147.0004
  21506471.1384   -4291964.12949  -3299623.65447  21506471.1804   21506473.2144
       239.0004        204.0004
 07  2 17 16  6 20.0000000  0  8G 4G 2G30G17G 5G 9G24G12
  21158061.7524    1392538.18149   1096802.44447  21158062.0984   21158064.6934
       240.0004        202.0004
  20292491.4184   -1890407.43249   -662342.47848  20292490.8814   20292491.9564
       247.0004        221.0004
  23852194.5794   -2979654.31249  -2283795.22545  23852194.8394   23852198.2494
       220.0004        155.0004
  23870149.0994    1955157.21049   1530135.88645  23870149.8894   23870154.0354
       214.0004        162.0004
  21572141.6024   -3656929.82149  -2820487.01747  21572141.1674   21572144.6824
       234.0004        190.0004
  21792190.7494    1219308.15849    962385.01847  21792190.6604   21792193.7894
       236.0004        193.0004
  24066628.2934   -1321499.85149  -1005398.78945  24066627.4514   24066633.9144
       208.0004        146.0004
  21504347.9514   -4303121.54649  -3308317.74747  21504348.1104   21504349.9374
       240.0004        204.0004
 07  2 17 16  6 25.0000000  0  8G 4G 2G30G17G 5G 9G24G12
  21160141.7484    1403468.61149   1105319.67047  21160141.6394   21160145.1364
       241.0004        202.0004
  20291567.8734   -1895260.70949   -666124.25148  20291567.3704   20291568.3154
       247.0004        221.0004
  23849004.3894   -2996418.94849  -2296858.58045  23849004.6284   23849007.9914
       220.0004        155.0004
  23872446.4924    1967230.02549   1539543.26545  23872447.7684   23872451.3674
       214.0004        162.0004
  21569799.1324   -3669239.58749  -2830079.04247  21569798.5894   21569802.1254
       234.0004        190.0004
  21794434.1654    1231097.32449    971571.37947  21794434.0374   21794437.4634
       236.0004        193.0004
  24063213.8244   -1339442.90749  -1019380.38645  24063213.2644   24063219.5884
       208.0004        146.0004
  21502226.0504   -4314272.20549  -3317006.56647  21502225.9094   21502227.8554
       240.0004        204.0004
 07  2 17 16  6 30.0000000  0  8G 4G 2G30G17G 5G 9G24G12
  21162223.9434    1414410.58649   1113845.87747  21162224.2374   21162227.1764
       239.0004        202.0004
  20290647.0714   -1900099.57749   -669894.79948  20290646.6484   20290647.4134
       247.0004        221.0004
  23845814.4934   -3013182.04949  -2309920.73845  23845813.4874   23845818.1904
       220.0004        154.0004
  23874743.9944    1979303.34449   1548951.04145  23874743.3394   23874748.3264
       212.0004        162.0004
  21567458.1394   -3681541.72949  -2839665.13047  21567457.3604   21567461.1614
       234.0004        190.0004
  21796679.8494    1242898.33949    980766.96847  21796679.6634   21796683.0704
       236.0004        193.0004
  24059800.2254   -1357381.52649  -1033358.52545  24059799.7074   24059805.9914
       209.0004        145.0004
  21500105.4094   -4325416.26049  -3325690.24647  21500105.2074   21500107.3604
       240.0004        204.0004
 07  2 17 16  6 35.0000000  0  8G 4G 2G30G17G 5G 9G24G12
  21164308.3624    1425364.32549   1122381.25647  21164308.4244   21164311.5424
       241.0004        202.0004
  20289729.0544   -1904923.81649   -673653.94248  20289728.5334   20289729.5084
       246.0004        221.0004
  23842624.9184   -3029943.29949  -2322981.46345  23842624.8644   23842628.4004
       220.0004        154.0004
  23877041.6234    1991377.35249   1558359.33645  23877042.1784   23877045.3274
       214.0004        162.0004
  21565118.6154   -3693835.99849  -2849245.07347  21565117.8704   21565121.4764
       234.0004        190.0004
  21798927.7914    1254711.42649    989971.96347  21798927.5664   21798930.7804
       235.0004        193.0004
  24056387.5104   -1375315.42749  -1047332.98645  24056387.0204   24056393.3834
       209.0004        144.0004
  21497986.0824   -4336553.45449  -3334368.58347  21497986.1844   21497987.8394
       240.0004        204.0004
 07  2 17 16  6 40.0000000  0  8G 4G 2G30G17G 5G 9G24G12
  21166395.0164    1436329.66949   1130925.68047  21166394.9504   21166398.2514
       240.0004        202.0004
  20288813.7904   -1909733.55649   -677401.79348  20288813.3574   20288814.2824
       247.0004        221.0004
  23839435.6844   -3046702.86549  -2336040.86345  23839435.5824   23839439.8994
       220.0004        154.0004
  23879339.3614    2003451.85449   1567768.03245  23879339.6674   23879342.9684
       212.0004        162.0004
  21562780.5254   -3706122.56949  -2858819.02247  21562779.7284   21562783.6114
       236.0004        190.0004
  21801178.0254    1266536.42149    999186.24547  21801177.8094   21801181.7324
       236.0004        193.0004
  24052975.6764   -1393244.77649  -1061303.90145  24052974.8124   24052981.0404
       209.0004        144.0004
  21495868.0404   -4347684.01349  -3343041.73847  21495868.0604   21495869.8674
       240.0004        204.0004
 07  2 17 16  6 45.0000000  0  8G 4G 2G30G17G 5G 9G24G12
  21168483.8664    1447306.59649   1139479.12847  21168483.7844   21168486.9444
       240.0004        202.0004
  20287901.2604   -1914528.88549   -681138.41448  20287900.7894   20287901.6024
       247.0004        221.0004
  23836246.7614   -3063460.74749  -2349098.96045  23836246.0304   23836250.9494
       221.0004        154.0004
  23881637.1654    2015526.81749   1577177.08745  23881637.6064   23881640.8754
       211.0004        161.0004
  21560443.9544   -3718401.41549  -2868386.95847  21560443.5664   21560446.9304
       234.0004        190.0004
  21803430.5124    1278373.29849   1008409.77947  21803430.2994   21803433.9984
       235.0004        193.0004
  24049564.6794   -1411169.60449  -1075271.29545  24049564.2234   24049569.9184
       210.0004        144.0004
  21493751.2364   -4358807.94449  -3351709.73747  21493751.1364   21493753.0234
       240.0004        204.0004
 07  2 17 16  6 50.0000000  0  8G 4G 2G30G17G 5G 9G24G12
  21170574.8504    1458294.98549   1148041.51247  21170574.6264   21170577.8114
       238.0004        202.0004
  20286991.4604   -1919309.84949   -684863.83548  20286991.0384   20286991.8354
       247.0004        221.0004
  23833058.1634   -3080217.03649  -2362155.81545  23833058.5474   23833062.1084
       220.0004        154.0004
  23883935.0244    2027602.26149   1586586.50745  23883934.7064   23883938.4034
       213.0004        160.0004
  21558108.8214   -3730672.63149  -2877948.93847  21558108.0624   21558111.6554
       236.0004        190.0004
  21805685.2454    1290221.96849   1017642.50247  21805684.8294   21805688.7564
       235.0004        193.0004
  24046154.5404   -1429089.93349  -1089235.18645  24046154.1444   24046159.1034
       213.0004        144.0004
  21491635.6944   -4369925.22749  -3360372.55247  21491635.5904   21491637.4974
       240.0004        204.0004
 07  2 17 16  6 55.0000000  0  8G 4G 2G30G17G 5G 9G24G12
  21172668.0774    1469295.03649   1156612.97247  21172668.3774   21172671.1574
       241.0004        202.0004
  20286084.4564   -1924076.24949   -688577.91548  20286084.0764   20286084.7874
       247.0004        221.0004
  23829869.8964   -3096971.53149  -2375211.27545  23829870.4644   23829873.8164
       220.0004        153.0004
  23886233.0074    2039678.25349   1595996.35645  23886232.8854   23886236.0764
       215.0004        160.0004
  21555775.2104   -3742936.01849  -2887504.82847  21555774.5384   21555777.8664
       233.0004        190.0004
  21807942.2504    1302082.56649   1026884.52447  21807941.8464   21807945.5104
       235.0004        193.0004
  24042745.2804   -1447005.64249  -1103195.47845  24042744.3944   24042750.2274
       210.0004        144.0004
  21489521.4304   -4381035.69949  -3369030.06747  21489521.5444   21489523.1354
       241.0004        204.0004
 07  2 17 16  7  0.0000000  0  8G 4G 2G30G17G 5G 9G24G12
  21174763.4994    1480306.52849   1165193.36047  21174763.1764   21174767.1034
       240.0004        202.0004
  20285180.1794   -1928828.30749   -692280.82148  20285179.8124   20285180.5044
       247.0004        221.0004
  23826681.9574   -3113724.41249  -2388265.47845  23826682.3514   23826684.7174
       219.0004        153.0004
  23888531.1164    2051754.68749   1605406.57245  23888531.4244   23888534.3964
       215.0004        160.0004
  21553443.0384   -3755191.76049  -2897054.75847  21553442.5124   21553446.1604
       235.0004        191.0004
  21810201.4694    1313954.94749   1036135.71947  21810201.5324   21810204.7744
       235.0004        193.0004
  24039336.8854   -1464916.83049  -1117152.24845  24039336.0544   24039342.0764
       213.0004        144.0004
  21487408.4724   -4392139.51249  -3377682.38447  21487408.0374   21487410.4184
       240.0004        204.0004
 07  2 17 16  7  5.0000000  0  8G 4G 2G30G17G 5G 9G24G12
  21176861.1304    1491329.70949   1173782.84147  21176861.3944   21176864.5464
       240.0004        202.0004
  20284278.6814   -1933565.82949   -695972.39648  20284278.2464   20284279.1104
       247.0004        221.0004
  23823494.3964   -3130475.48849  -2401318.26445  23823494.0284   23823496.5174
       217.0004        153.0004
  23890829.3474    2063831.75549   1614817.27545  23890829.9334   23890832.8714
       215.0004        160.0004
  21551112.3624   -3767439.60549  -2906598.52247  21551111.4164   21551115.2684
       234.0004        191.0004
  21812462.9784    1325839.22849   1045396.20047  21812462.8364   21812466.0244
       235.0004        193.0004
  24035929.4214   -1482823.32249  -1131105.35645  24035929.3024   24035934.8264
       212.0004        144.0004
  21485296.8054   -4403236.45349  -3386329.35347  21485296.7494   21485298.5454
       240.0004        204.0004
 07  2 17 16  7 10.0000000  0  8G 4G 2G30G17G 5G 9G24G12
  21178960.9414    1502364.28849   1182381.22447  21178960.9004   21178963.9414
       240.0004        201.0004
  20283379.8764   -1938289.03149   -699652.81348  20283379.4694   20283380.2744
       247.0004        221.0004
  23820307.1004   -3147224.98149  -2414369.82045  23820306.3054   23820310.2454
       217.0004        152.0004
  23893127.6394    2075909.19649   1624228.25845  23893127.4524   23893131.4194
       213.0004        160.0004
  21548783.0924   -3779679.82649  -2916136.36347  21548782.2684   21548786.1004
       234.0004        191.0004
  21814726.7034    1337735.14749   1054665.74047  21814726.0894   21814730.5174
       235.0004        193.0004
  24032522.7704   -1500725.35149  -1145054.98745  24032522.9414   24032527.8414
       212.0004        144.0004
  21483186.3734   -4414326.81849  -3394971.19447  21483186.3604   21483188.1574
       239.0004        204.0004
 07  2 17 16  7 15.0000000  0  8G 4G 2G30G17G 5G 9G24G12
  21181062.9534    1513410.43649   1190988.60247  21181063.1054   21181065.8754
       240.0004        201.0004
  20282483.8444   -1942997.73349   -703321.92648  20282483.4194   20282484.1244
       247.0004        221.0004
  23817120.1454   -3163972.71349  -2427419.98345  23817119.3014   23817122.4504
       215.0004        152.0004
  23895426.0364    2087987.19049   1633639.66345  23895426.2014   23895429.7114
       216.0004        160.0004
  21546455.3624   -3791912.18549  -2925668.07447  21546454.7704   21546458.4334
       235.0004        191.0004
  21816992.6894    1349642.93749   1063944.53147  21816992.6704   21816996.3744
       235.0004        193.0004
  24029117.0114   -1518622.68949  -1159000.96245  24029116.6394   24029121.4514
       213.0004        145.0004
  21481077.2434   -4425410.35049  -3403607.71247  21481077.2304   21481079.0064
       239.0004        204.0004
 07  2 17 16  7 20.0000000  0  8G 4G 2G30G17G 5G 9G24G12
  21183167.1714    1524468.12349   1199604.98047  21183167.7084   21183170.3494
       241.0004        201.0004
  20281590.6024   -1947691.89549   -706979.71448  20281590.2474   20281590.8734
       247.0004        221.0004
  23813933.5184   -3180718.64049  -2440468.75145  23813932.8074   23813936.2404
       215.0004        152.0004
  23897724.5434    2100065.81049   1643051.56745  23897725.3394   23897728.4104
       216.0004        160.0004
  21544129.1294   -3804136.66749  -2935193.64147  21544128.2304   21544132.2644
       235.0004        191.0004
  21819260.9104    1361562.54649   1073232.53647  21819260.6304   21819264.3344
       235.0004        193.0004
  24025712.1554   -1536515.33749  -1172943.28545  24025711.8964   24025716.8564
       214.0004        145.0004
  21478969.4004   -4436487.05749  -3412238.90947  21478969.2394   21478971.2524
       239.0004        204.0004
 07  2 17 16  7 25.0000000  0  8G 4G 2G30G17G 5G 9G24G12
  21185273.6024    1535537.29849   1208230.31047  21185273.5404   21185276.8444
       239.0004        201.0004
  20280700.0534   -1952371.67449   -710626.29448  20280699.5344   20280700.3454
       247.0004        221.0004
  23810747.2024   -3197462.81849  -2453516.15945  23810747.5424   23810749.2084
       215.0004        152.0004
  23900023.1574    2112144.87649   1652463.82645  23900023.5784   23900026.8544
       215.0004        161.0004
  21541804.3364   -3816353.45049  -2944713.21147  21541803.6104   21541807.3954
       235.0004        191.0004
  21821531.3634    1373493.87549   1082529.66647  21821531.1984   21821534.7784
       234.0004        193.0004
  24022308.1784   -1554403.41749  -1186882.05045  24022307.7224   24022312.9964
       216.0004        145.0004
  21476862.8204   -4447557.05949  -3420864.88347  21476862.8374   21476864.6824
       240.0004        204.0004
 07  2 17 16  7 30.0000000  0  8G 4G 2G30G17G 5G 9G24G12
  21187382.1074    1546617.64849   1216864.34847  21187382.3104   21187385.3664
       241.0004        201.0004
  20279812.2454   -1957037.19949   -714261.76748  20279811.7584   20279812.6894
       247.0004        221.0004
  23807561.2034   -3214205.45549  -2466562.36445  23807560.7194   23807563.5254
       215.0004        151.0004
  23902321.8454    2124224.22649   1661876.29645  23902322.1774   23902325.7054
       215.0004        161.0004
  21539481.0144   -3828562.61049  -2954226.83347  21539480.4884   21539483.6304
       234.0004        191.0004
  21823804.0244    1385436.77349   1091835.82147  21823803.9554   21823807.1414
       235.0004        192.0004
  24018905.0444   -1572287.07249  -1200817.37145  24018905.1984   24018911.0024
       214.0004        145.0004
  21474757.4804   -4458620.48449  -3429485.72947  21474757.1554   21474759.4024
       240.0004        204.0004
 07  2 17 16  7 35.0000000  0  8G 4G 2G30G17G 5G 9G24G12
  21189492.8534    1557709.66149   1225507.48347  21189492.4304   21189496.2264
       239.0004        201.0004
  20278927.2224   -1961688.12749   -717885.86948  20278926.8314   20278927.6554
       247.0004        221.0004
  23804375.5714   -3230946.14849  -2479607.04045  23804375.6044   23804378.8784
       216.0004        152.0004
  23904620.6794    2136304.28549   1671289.31245  23904620.9554   23904624.4894
       214.0004        161.0004
  21537159.1974   -3840763.79449  -2963734.25447  21537158.7754   21537162.3964
       234.0004        191.0004
  21826078.9504    1397391.56649   1101151.24047  21826078.3004   21826082.0014
       234.0004        192.0004
  24015502.8144   -1590165.95349  -1214748.97045  24015503.3034   24015508.7214
       215.0004        145.0004
  21472653.4974   -4469676.93849  -3438101.15247  21472653.4214   21472655.4574
       240.0004        204.0004
 07  2 17 16  7 40.0000000  0  8G 4G 2G30G17G 5G 9G24G12
  21191605.7494    1568813.19249   1234159.57047  21191606.0264   21191609.0814
       240.0004        201.0004
  20278044.9334   -1966324.56249   -721498.66948  20278044.2424   20278045.3944
       247.0004        221.0004
  23801190.2914   -3247685.00349  -2492650.31045  23801190.5194   23801193.4914
       215.0004        152.0004
  23906919.5844    2148384.88549   1680702.75245  23906919.7644   23906923.7434
       214.0004        161.0004
  21534838.9074   -3852957.11049  -2973235.53747  21534838.4124   21534841.6454
       235.0004        191.0004
  21828356.0894    1409358.14449   1110475.83647  21828355.5244   21828359.4814
       235.0004        192.0004
  24012101.4924   -1608040.10549  -1228676.88245  24012101.4684   24012107.2824
       215.0004        145.0004
  21470550.8464   -4480726.54449  -3446711.23247  21470550.6774   21470552.6404
       239.0004        204.0004
 07  2 17 16  7 45.0000000  0  8G 4G 2G30G17G 5G 9G24G12
  21193720.7954    1579927.96949   1242820.44947  21193720.4934   21193724.1364
       241.0004        201.0004
  20277165.3744   -1970946.62649   -725100.28348  20277164.9214   20277165.7834
       246.0004        221.0004
  23798005.3244   -3264422.15049  -2505692.23245  23798005.1644   23798008.1464
       215.0004        152.0004
  23909218.5334    2160465.87249   1690116.48745  23909217.9734   23909222.4994
       213.0004        160.0004
  21532520.0714   -3865142.69549  -2982730.79547  21532519.1274   21532522.8734
       235.0004        191.0004
  21830635.4614    1421336.32449   1119809.47847  21830635.2964   21830638.6004
       235.0004        192.0004
  24008701.0364   -1625909.73049  -1242601.26845  24008701.3124   24008706.8474
       216.0004        146.0004
  21468449.4344   -4491769.48949  -3455316.12247  21468449.1924   21468451.4954
       240.0004        204.0004
 07  2 17 16  7 50.0000000  0  8G 4G 2G30G17G 5G 9G24G12
  21195838.0464    1591054.25549   1251490.27447  21195838.0174   21195841.2314
       238.0004        201.0004
  20276288.6184   -1975554.13349   -728690.54148  20276287.9984   20276289.1344
       247.0004        221.0004
  23794820.7054   -3281157.37349  -2518732.65145  23794819.7494   23794823.4844
       216.0004        153.0004
  23911517.5884    2172547.49949   1699530.73145  23911517.2014   23911520.7094
       212.0004        160.0004
  21530202.7304   -3877320.29349  -2992219.83747  21530202.0314   21530205.5904
       235.0004        191.0004
  21832917.0934    1433326.29649   1129152.30847  21832916.3574   21832920.4474
       234.0004        192.0004
  24005301.4584   -1643774.58349  -1256521.93245  24005301.1264   24005306.4264
       215.0004        146.0004
  21466349.3484   -4502805.52049  -3463915.62747  21466349.3564   21466351.3064
       240.0004        204.0004
 07  2 17 16  7 55.0000000  0  8G 4G 2G30G17G 5G 9G24G12
  21197957.4664    1602191.86449   1260168.92147  21197957.8794   21197960.7044
       241.0004        201.0004
  20275414.5684   -1980147.23649   -732269.58648  20275414.1334   20275414.9564
       247.0004        221.0004
  23791636.4044   -3297890.90549  -2531771.76845  23791636.2534   23791638.1574
       217.0004        153.0004
  23913816.6804    2184629.50349   1708945.27945  23913816.5794   23913819.3314
       213.0004        159.0004
  21527886.8964   -3889490.13149  -3001702.82647  21527886.1954   21527889.8154
       234.0004        191.0004
  21835200.8994    1445327.86949   1138504.18247  21835200.7154   21835204.1764
       235.0004        192.0004
  24001902.7384   -1661634.87549  -1270439.04945  24001901.7794   24001907.1824
       215.0004        146.0004
  21464250.5274   -4513834.82349  -3472509.88547  21464250.5394   21464252.4344
       240.0004        204.0004
 07  2 17 16  8  0.0000000  0  8G 4G 2G30G17G 5G 9G24G12
  21200079.0894    1613341.02049   1268856.58647  21200078.7914   21200082.4414
       240.0004        201.0004
  20274543.2904   -1984725.79149   -735837.28848  20274542.7264   20274543.7034
       247.0004        221.0004
  23788452.4624   -3314622.51749  -2544809.38245  23788452.1274   23788455.5424
       217.0004        153.0004
  23916115.9084    2196712.11649   1718360.29945  23916116.1674   23916118.9114
       212.0004        159.0004
  21525572.5754   -3901652.03349  -3011179.62747  21525571.6174   21525575.4964
       234.0004        191.0004
  21837486.9714    1457341.21249   1147865.22447  21837486.8124   21837490.4794
       235.0004        192.0004
  23998504.9034   -1679490.39149  -1284352.44545  23998504.3514   23998509.6544
       214.0004        146.0004
  21462153.0554   -4524857.19949  -3481098.75947  21462153.2804   21462154.9924
       239.0004        205.0004
 07  2 17 16  8  5.0000000  0  8G 4G 2G30G17G 5G 9G24G12
  21202202.9104    1624501.57349   1277553.10447  21202203.3304   21202206.0314
       240.0004        201.0004
  20273674.7764   -1989289.89049   -739393.73048  20273674.2574   20273675.1494
       247.0004        222.0004
  23785268.8694   -3331352.32949  -2557845.60045  23785268.9614   23785271.1024
       218.0004        154.0004
  23918415.2564    2208795.21749   1727775.69745  23918415.2164   23918418.8854
       213.0004        159.0004
  21523259.7244   -3913806.03749  -3020650.28247  21523258.9584   21523262.8484
       234.0004        191.0004
  21839775.2394    1469366.20549   1157235.34147  21839775.1884   21839778.6904
       235.0004        192.0004
  23995107.9984   -1697341.20449  -1298262.17745  23995107.7934   23995112.8664
       213.0004        146.0004
  21460056.8894   -4535872.73549  -3489682.28647  21460056.8924   21460058.7194
       240.0004        205.0004
 07  2 17 16  8 10.0000000  0  8G 4G 2G30G17G 5G 9G24G12
  21204328.8504    1635673.43949   1286258.46447  21204328.9194   21204332.0544
       241.0004        201.0004
  20272809.0134   -1993839.47149   -742938.85148  20272808.4574   20272809.3644
       247.0004        222.0004
  23782085.6464   -3348080.23049  -2570880.32645  23782085.6454   23782087.6334
       219.0004        154.0004
  23920714.6884    2220878.90649   1737191.55145  23920713.9044   23920717.9074
       213.0004        158.0004
  21520948.4154   -3925952.09749  -3030114.74247  21520947.6784   21520951.6064
       236.0004        191.0004
  21842065.7264    1481402.85849   1166614.54947  21842065.7534   21842069.4234
       235.0004        192.0004
  23991711.9804   -1715187.26149  -1312168.19745  23991711.7444   23991716.6564
       214.0004        146.0004
  21457962.0064   -4546881.37649  -3498260.44647  21457962.0324   21457963.9764
       240.0004        205.0004
 07  2 17 16  8 15.0000000  0  8G 4G 2G30G17G 5G 9G24G12
  21206456.9664    1646856.69249   1294972.68047  21206456.9054   21206460.4344
       239.0004        201.0004
  20271946.0154   -1998374.63349   -746472.74848  20271945.4444   20271946.3984
       247.0004        222.0004
  23778902.8084   -3364806.35249  -2583913.66645  23778902.9884   23778905.4344
       218.0004        154.0004
  23923014.2074    2232962.96949   1746607.69445  23923014.6924   23923017.5344
       213.0004        158.0004
  21518638.6004   -3938090.31849  -3039573.09447  21518637.4474   21518641.2284
       234.0004        191.0004
  21844358.4364    1493451.03349   1176002.72647  21844358.5054   21844361.6284
       235.0004        192.0004
  23988316.8604   -1733028.69249  -1326070.61545  23988316.6244   23988321.9244
       216.0004        146.0004
  21455868.4204   -4557883.21649  -3506833.30447  21455868.5214   21455870.4614
       240.0004        205.0004
 07  2 17 16  8 20.0000000  0  8G 4G 2G30G17G 5G 9G24G12
  21208587.2404    1658051.33249   1303695.77347  21208587.3214   21208590.6974
       241.0004        201.0004
  20271085.7724   -2002895.28949   -749995.33648  20271085.4304   20271086.2694
       247.0004        222.0004
  23775720.2964   -3381530.56549  -2596945.52545  23775720.4214   23775722.8954
       218.0004        154.0004
  23925313.8534    2245047.57249   1756024.26345  23925314.4594   23925317.5394
       209.0004        158.0004
  21516330.2674   -3950220.59049  -3049025.25347  21516329.5554   21516333.3454
       234.0004        191.0004
  21846653.3474    1505510.83149   1185399.97347  21846653.2074   21846656.9224
       236.0004        192.0004
  23984922.6744   -1750865.29949  -1339969.27145  23984922.3444   23984928.1754
       213.0004        146.0004
  21453776.1454   -4568878.14849  -3515400.78447  21453776.3604   21453778.0684
       241.0004        205.0004
 07  2 17 16  8 25.0000000  0  8G 4G 2G30G17G 5G 9G24G12
  21210719.6954    1669257.36649   1312427.75047  21210719.9244   21210722.9884
       239.0004        201.0004
  20270228.2374   -2007401.53249   -753506.69348  20270227.8434   20270228.6084
       247.0004        222.0004
  23772538.1644   -3398252.90549  -2609975.92245  23772537.1954   23772540.8794
       217.0004        153.0004
  23927613.5464    2257132.70049   1765441.22145  23927613.9284   23927617.1794
       211.0004        158.0004
  21514023.4724   -3962342.93649  -3058471.23147  21514022.7124   21514026.3394
       234.0004        191.0004
  21848950.4874    1517582.19449   1194806.22647  21848950.1574   21848954.1934
       236.0004        192.0004
  23981529.3804   -1768697.23749  -1353864.28145  23981529.0834   23981534.1494
       214.0004        147.0004
  21451685.1914   -4579866.18149  -3523962.88947  21451685.0974   21451687.1394
       241.0004        205.0004
 07  2 17 16  8 30.0000000  0  8G 4G 2G30G17G 5G 9G24G12
  21212854.2794    1680474.64449   1321168.47947  21212854.6264   21212857.3494
       240.0004        201.0004
  20269373.5014   -2011893.22049   -757006.70648  20269373.0154   20269373.8154
       247.0004        222.0004
  23769356.3494   -3414973.36249  -2623004.85045  23769356.8774   23769359.0354
       216.0004        153.0004
  23929913.3504    2269218.36349   1774858.60345  23929913.3064   23929917.0254
       208.0004        158.0004
  21511718.1604   -3974457.32049  -3067911.00747  21511717.4284   21511721.3894
       235.0004        191.0004
  21851249.8194    1529665.19049   1204221.53547  21851249.4154   21851253.5174
       235.0004        192.0004
  23978137.0204   -1786524.37149  -1367755.55245  23978136.6314   23978142.0194
       214.0004        147.0004
  21449595.5694   -4590847.29349  -3532519.60047  21449595.7844   21449597.4504
       240.0004        205.0004
 07  2 17 16  8 35.0000000  0  8G 4G 2G30G17G 5G 9G24G12
  21214991.0154    1691703.15849   1329917.97847  21214990.8574   21214994.2554
       240.0004        201.0004
  20268521.5004   -2016370.52249   -760495.51448  20268520.9454   20268521.8794
       247.0004        222.0004
  23766174.8634   -3431692.01949  -2636032.36545  23766174.4604   23766177.9634
       215.0004        153.0004
  23932213.2274    2281304.45649   1784276.31645  23932213.0444   23932216.0364
       208.0004        157.0004
  21509414.3534   -3986563.86549  -3077344.68247  21509413.6734   21509417.3654
       235.0004        191.0004
  21853551.3484    1541759.71149   1213645.83147  21853551.1914   21853555.3374
       235.0004        192.0004
  23974745.5244   -1804346.83349  -1381643.18345  23974744.8694   23974751.1204
       214.0004        147.0004
  21447507.2514   -4601821.60049  -3541071.00947  21447507.1304   21447509.1754
       241.0004        205.0004
 07  2 17 16  8 40.0000000  0  8G 4G 2G30G17G 5G 9G24G12
  21217129.9174    1702943.08049   1338676.34647  21217130.2364   21217133.1134
       239.0004        201.0004
  20267672.2774   -2020833.32149   -763973.01548  20267671.6934   20267672.6564
       247.0004        222.0004
  23762993.7724   -3448408.68149  -2649058.34745  23762992.4034   23762996.8494
       216.0004        152.0004
  23934513.2124    2293391.17449   1793694.51945  23934513.2614   23934516.9954
       211.0004        157.0004
  21507112.1144   -3998662.33549  -3086772.05747  21507111.2074   21507114.8634
       235.0004        191.0004
  21855855.1024    1553865.87349   1223079.20447  21855854.8574   21855858.4974
       234.0004        192.0004
  23971354.9884   -1822164.40549  -1395527.00545  23971354.7264   23971360.9684
       214.0004        147.0004
  21445420.2474   -4612788.91049  -3549616.96047  21445420.2444   21445422.0654
       239.0004        205.0004
 07  2 17 16  8 45.0000000  0  8G 4G 2G30G17G 5G 9G24G12
  21219270.9424    1714194.24649   1347443.48747  21219271.1744   21219274.2844
       241.0004        201.0004
  20266825.7744   -2025281.67549   -767439.26848  20266825.2594   20266826.2084
       247.0004        222.0004
  23759813.0374   -3465123.53449  -2662082.91545  23759813.0744   23759815.4664
       215.0004        151.0004
  23936813.3354    2305478.29849   1803113.05045  23936813.3594   23936816.9164
       211.0004        157.0004
  21504811.3434   -4010752.90349  -3096193.28547  21504810.7794   21504814.1494
       234.0004        191.0004
  21858161.0354    1565983.51649   1232521.51247  21858160.7404   21858164.1974
       235.0004        192.0004
  23967965.3534   -1839977.25849  -1409407.14845  23967965.0334   23967970.4664
       214.0004        147.0004
  21443334.5154   -4623749.40149  -3558157.59947  21443334.3794   21443336.5324
       240.0004        205.0004
 07  2 17 16  8 50.0000000  0  8G 4G 2G30G17G 5G 9G24G12
  21221414.1354    1725456.64049   1356219.38447  21221413.9414   21221417.3374
       238.0004        201.0004
  20265982.0324   -2029715.56849   -770894.24848  20265981.5534   20265982.5314
       247.0004        222.0004
  23756632.6624   -3481836.47549  -2675105.98645  23756632.8154   23756633.9344
       215.0004        150.0004
  23939113.5234    2317565.93649   1812531.97745  23939113.5474   23939118.0884
       212.0004        157.0004
  21502512.1044   -4022835.52549  -3105608.30847  21502511.1014   21502514.7394
       235.0004        191.0004
  21860469.1454    1578112.72649   1241972.84547  21860468.9024   21860472.6974
       235.0004        192.0004
  23964576.6164   -1857785.30049  -1423283.54545  23964576.2094   23964581.6214
       214.0004        148.0004
  21441250.1184   -4634702.97749  -3566692.85247  21441250.1614   21441252.0884
       240.0004        205.0004
 07  2 17 16  8 55.0000000  0  8G 4G 2G30G17G 5G 9G24G12
  21223559.4234    1736730.34349   1365004.07547  21223560.0654   21223562.6904
       241.0004        201.0004
  20265141.0394   -2034134.97349   -774337.93948  20265140.6054   20265141.4924
       247.0004        222.0004
  23753452.6744   -3498547.50249  -2688127.58845  23753454.1764   23753454.0054
       214.0004        150.0004
  23941413.7834    2329654.05849   1821951.28145  23941414.0644   23941418.3734
       214.0004        158.0004
  21500214.3864   -4034910.09749  -3115017.06747  21500214.0624   21500217.1764
       235.0004        191.0004
  21862779.4714    1590253.46049   1251433.15247  21862779.5834   21862782.9744
       235.0004        192.0004
  23961188.7954   -1875588.55849  -1437156.21245  23961188.3744   23961194.1404
       213.0004        148.0004
  21439167.0244   -4645649.56749  -3575222.66147  21439167.1734   21439169.0644
       241.0004        205.0004
 07  2 17 16  9  0.0000000  0  8G 4G 2G30G17G 5G 9G24G12
  21225706.8694    1748015.23849   1373797.51147  21225706.6694   21225709.9824
       240.0004        201.0004
  20264302.7994   -2038539.95049   -777770.38548  20264302.3554   20264303.3374
       248.0004        222.0004
  23750273.0414   -3515256.65649  -2701147.70245  23750273.0484   23750276.0724
       214.0004        149.0004
  23943714.1744    2341742.64349   1831370.95045  23943714.5514   23943718.6154
       214.0004        158.0004
  21497918.1884   -4046976.74249  -3124419.63947  21497917.0224   21497920.6264
       235.0004        192.0004
  21865091.9594    1602405.64549   1260902.38047  21865091.6724   21865095.2114
       235.0004        192.0004
  23957801.8824   -1893387.03849  -1451025.15545  23957801.9194   23957807.4114
       215.0004        148.0004
  21437085.2704   -4656589.24149  -3583747.08647  21437085.3854   21437087.3684
       240.0004        205.0004
 07  2 17 16  9  5.0000000  0  8G 4G 2G30G17G 5G 9G24G12
  21227856.4674    1759311.39849   1382599.69647  21227857.0504   21227859.6534
       240.0004        201.0004
  20263467.3304   -2042930.45949   -781191.56148  20263466.9844   20263467.8094
       247.0004        222.0004
  23747093.7584   -3531963.87849  -2714166.29945  23747092.4604   23747096.2254
       212.0004        148.0004
  23946014.6694    2353831.74849   1840791.01945  23946014.9794   23946018.3754
       214.0004        158.0004
  21495623.5134   -4059035.34949  -3133815.96147  21495622.6504   21495626.4184
       235.0004        192.0004
  21867406.6524    1614569.31149   1270380.56247  21867406.4894   21867410.1894
       235.0004        192.0004
  23954415.8764   -1911180.71149  -1464890.35345  23954415.8534   23954420.3904
       213.0004        148.0004
  21435004.8584   -4667521.92149  -3592266.05147  21435004.9154   21435006.7894
       241.0004        205.0004
 07  2 17 16  9 10.0000000  0  8G 4G 2G30G17G 5G 9G24G12
  21230008.2174    1770618.80549   1391410.67547  21230008.1514   21230011.8754
       241.0004        201.0004
  20262634.5904   -2047306.51349   -784601.47048  20262634.2204   20262635.2034
       248.0004        222.0004
  23743914.8514   -3548669.14249  -2727183.38445  23743913.2514   23743917.4494
       214.0004        148.0004
  23948315.2804    2365921.33149   1850211.47145  23948315.8264   23948318.8824
       215.0004        158.0004
  21493330.3964   -4071085.93249  -3143206.02147  21493330.0774   21493333.0774
       236.0004        192.0004
  21869723.5124    1626744.46249   1279867.68747  21869723.1064   21869727.3174
       234.0004        192.0004
  23951030.7794   -1928969.53749  -1478751.77545  23951030.8664   23951035.4964
       212.0004        148.0004
  21432925.7904   -4678447.60549  -3600779.57347  21432926.1844   21432927.7414
       241.0004        205.0004
 07  2 17 16  9 15.0000000  0  8G 4G 2G30G17G 5G 9G24G12
  21232162.0674    1781937.31549   1400230.28747  21232162.3104   21232165.3854
       239.0004        201.0004
  20261804.6064   -2051668.14049   -788000.14148  20261804.2454   20261805.0494
       247.0004        222.0004
  23740736.2904   -3565372.49749  -2740198.97745  23740735.3914   23740740.3674
       213.0004        149.0004
  23950615.9694    2378011.34249   1859632.25445  23950615.8344   23950619.9054
       215.0004        158.0004
  21491038.7794   -4083128.53149  -3152589.86647  21491038.2244   21491041.6154
       235.0004        192.0004
  21872042.5414    1638930.98649   1289363.67147  21872042.5104   21872045.7174
       235.0004        191.0004
  23947646.5884   -1946753.59649  -1492609.47745  23947646.2104   23947651.3834
       214.0004        149.0004
  21430848.0334   -4689366.36949  -3609287.69847  21430848.0234   21430849.9994
       241.0004        205.0004
 07  2 17 16  9 20.0000000  0  8G 4G 2G30G17G 5G 9G24G12
  21234318.0544    1793267.12849   1409058.71047  21234318.3874   21234321.2114
       241.0004        201.0004
  20260977.3884   -2056015.19449   -791387.45348  20260977.0274   20260977.7974
       248.0004        222.0004
  23737558.1064   -3582073.77949  -2753212.95245  23737557.6514   23737560.8994
       215.0004        149.0004
  23952916.7784    2390101.94449   1869053.49645  23952917.1314   23952920.2484
       214.0004        158.0004
  21488748.7304   -4095163.03949  -3161967.40247  21488748.1394   21488751.6034
       234.0004        192.0004
  21874363.7434    1651129.07249   1298868.66947  21874363.3534   21874366.9294
       234.0004        191.0004
  23944263.3414   -1964532.70049  -1506463.32045  23944262.3324   23944268.0094
       213.0004        148.0004
  21428771.6274   -4700278.05849  -3617790.31247  21428771.6604   21428773.6604
       241.0004        206.0004
 07  2 17 16  9 25.0000000  0  8G 4G 2G30G17G 5G 9G24G12
  21236476.1714    1804608.13049   1417895.85947  21236476.1144   21236479.6114
       240.0004        201.0004
  20260152.9174   -2060347.84349   -794763.54348  20260152.6884   20260153.4234
       247.0004        222.0004
  23734380.2904   -3598773.16649  -2766225.46345  23734380.0314   23734384.1104
       215.0004        149.0004
  23955217.6664    2402192.99349   1878475.07945  23955218.5174   23955221.8424
       214.0004        158.0004
  21486460.1594   -4107189.57349  -3171338.72547  21486459.6734   21486462.7844
       235.0004        192.0004
  21876687.1324    1663338.49849   1308382.49947  21876686.7754   21876690.6354
       234.0004        191.0004
  23940881.0284   -1982306.98249  -1520313.40645  23940880.2534   23940886.3694
       211.0004        148.0004
  21426696.5304   -4711182.83249  -3626287.54147  21426696.6174   21426698.4074
       241.0004        206.0004
 07  2 17 16  9 30.0000000  0  8G 4G 2G30G17G 5G 9G24G12
  21238636.4224    1815960.22549   1426741.63247  21238636.9284   21238639.7364
       240.0004        201.0004
  20259331.2054   -2064666.09949   -798128.41448  20259330.8374   20259331.6144
       248.0004        222.0004
  23731202.8604   -3615470.67149  -2779236.49645  23731202.3204   23731204.9924
       216.0004        150.0004
  23957518.5994    2414284.47349   1887897.00745  23957519.3054   23957521.9994
       214.0004        157.0004
  21484173.1184   -4119208.10349  -3180703.80947  21484172.2274   21484175.9864
       234.0004        192.0004
  21879012.6694    1675559.23649   1317905.15147  21879012.3854   21879015.9884
       234.0004        191.0004
  23937499.6004   -2000076.53149  -1534159.80445  23937498.7144   23937504.8684
       213.0004        148.0004
  21424622.7674   -4722080.68649  -3634779.36347  21424622.6524   21424624.8524
       241.0004        206.0004
 07  2 17 16  9 35.0000000  0  8G 4G 2G30G17G 5G 9G24G12
  21240798.8234    1827323.52749   1435596.16547  21240798.7314   21240801.7744
       240.0004        201.0004
  20258512.2264   -2068969.77549   -801481.92748  20258511.9244   20258512.4724
       248.0004        222.0004
  23728025.8284   -3632166.11349  -2792245.92945  23728025.8704   23728028.5274
       218.0004        150.0004
  23959819.6344    2426376.54149   1897319.39345  23959820.9914   23959822.7154
       215.0004        157.0004
  21481887.5934   -4131218.43249  -3190062.50847  21481886.7894   21481890.1524
       234.0004        192.0004
  21881340.3844    1687791.51849   1327436.78747  21881340.2734   21881344.1544
       235.0004        191.0004
  23934119.1384   -2017841.08949  -1548002.31645  23934118.4054   23934124.1394
       214.0004        148.0004
  21422550.3514   -4732971.37349  -3643265.62147  21422550.5474   21422552.3594
       240.0004        206.0004
 07  2 17 16  9 40.0000000  0  8G 4G 2G30G17G 5G 9G24G12
  21242963.2884    1838697.76649   1444459.19847  21242963.3234   21242966.4414
       240.0004        201.0004
  20257695.9884   -2073259.23549   -804824.36248  20257695.5894   20257696.2344
       248.0004        222.0004
  23724849.1574   -3648859.76749  -2805253.97545  23724849.1194   23724850.9044
       218.0004        151.0004
  23962120.7984    2438468.86349   1906741.98945  23962120.6094   23962123.3164
       212.0004        157.0004
  21479603.5834   -4143220.93749  -3199415.11147  21479602.8804   21479606.1694
       235.0004        192.0004
  21883670.2384    1700034.95049   1336977.12447  21883670.3204   21883673.2764
       235.0004        191.0004
  23930739.5684   -2035600.98249  -1561841.18945  23930739.1744   23930744.1664
       213.0004        147.0004
  21420479.2354   -4743855.27049  -3651746.57147  21420479.3114   21420481.1824
       242.0004        206.0004
 07  2 17 16  9 45.0000000  0  8G 4G 2G30G17G 5G 9G24G12
  21245129.8674    1850083.23949   1453330.99647  21245130.0134   21245133.0964
       242.0004        201.0004
  20256882.5264   -2077534.12449   -808155.44448  20256882.1924   20256882.7164
       248.0004        222.0004
  23721672.8924   -3665551.33649  -2818260.39745  23721672.8784   23721675.2384
       216.0004        151.0004
  23964422.0144    2450561.78849   1916165.03545  23964421.6964   23964426.3034
       211.0004        156.0004
  21477321.1264   -4155215.24649  -3208761.32547  21477320.7704   21477323.7984
       234.0004        192.0004
  21886002.3064    1712289.84849   1346526.39147  21886002.0164   21886005.5724
       234.0004        191.0004
  23927360.8994   -2053355.89149  -1575676.18345  23927360.6034   23927366.2164
       212.0004        147.0004
  21418409.4914   -4754732.01949  -3660221.96347  21418409.3944   21418411.4104
       240.0004        206.0004
 07  2 17 16  9 50.0000000  0  8G 4G 2G30G17G 5G 9G24G12
  21247298.6354    1861480.05049   1462211.62847  21247298.2914   21247301.8324
       237.0004        201.0004
  20256071.8494   -2081794.25549   -811475.02448  20256071.4344   20256072.1774
       248.0004        222.0004
  23718497.0464   -3682240.60049  -2831265.01545  23718496.9064   23718499.8474
       216.0004        152.0004
  23966723.3404    2462655.46949   1925588.65145  23966723.1434   23966727.0134
       213.0004        156.0004
  21475040.2574   -4167201.18449  -3218101.01647  21475039.5594   21475043.1854
       234.0004        192.0004
  21888336.5324    1724556.37349   1356084.70847  21888336.7704   21888339.8324
       235.0004        191.0004
  23923983.2404   -2071105.61349  -1589507.13345  23923983.5314   23923988.6884
       213.0004        147.0004
  21416341.1074   -4765601.46049  -3668691.65947  21416340.9764   21416343.1004
       241.0004        206.0004
 07  2 17 16  9 55.0000000  0  8G 4G 2G30G17G 5G 9G24G12
  21249469.4694    1872887.89549   1471100.84047  21249469.8684   21249472.4864
       242.0004        201.0004
  20255263.9284   -2086040.02849   -814783.41848  20255263.4634   20255264.1414
       248.0004        222.0004
  23715321.5534   -3698928.02049  -2844268.19045  23715321.2654   23715323.0854
       215.0004        151.0004
  23969024.7544    2474749.48449   1935012.53545  23969024.9494   23969028.9884
       215.0004        156.0004
  21472760.9164   -4179179.15449  -3227434.49647  21472760.1174   21472763.4784
       235.0004        192.0004
  21890672.9444    1736834.09149   1365651.76547  21890672.6334   21890676.3214
       234.0004        191.0004
  23920606.4464   -2088850.57149  -1603334.37045  23920605.7694   23920611.7844
       210.0004        146.0004
  21414274.0334   -4776463.97849  -3677155.95447  21414273.7574   21414275.8584
       240.0004        206.0004
 07  2 17 16 10  0.0000000  0  8G 4G 2G30G17G 5G 9G24G12
  21251642.4454    1884306.87949   1479998.76947  21251641.8054   21251645.9964
       238.0004        201.0004
  20254458.7494   -2090271.32649   -818080.53148  20254458.2504   20254458.9654
       248.0004        222.0004
  23712146.3964   -3715613.42049  -2857269.80045  23712144.6944   23712149.6094
       213.0004        151.0004
  23971326.2754    2486843.97149   1944436.80045  23971326.5164   23971329.7364
       213.0004        156.0004
  21470483.1004   -4191148.97249  -3236761.61747  21470482.3244   21470485.8964
       235.0004        192.0004
  21893011.4714    1749123.15249   1375227.64347  21893011.5834   21893015.2954
       235.0004        191.0004
  23917230.6144   -2106590.62549  -1617157.78845  23917230.2264   23917235.5364
       210.0004        146.0004
  21412208.3024   -4787319.40049  -3685614.72747  21412208.1274   21412210.1134
       241.0004        206.0004
 07  2 17 16 10  5.0000000  0  8G 4G 2G30G17G 5G 9G24G12
  21253817.5264    1895737.07349   1488905.38447  21253818.3584   21253820.4604
       239.0004        201.0004
  20253656.3334   -2094488.04049   -821366.28548  20253655.9164   20253656.6184
       248.0004        222.0004
  23708971.6364   -3732296.66849  -2870269.71945  23708971.0314   23708974.8384
       213.0004        150.0004
  23973627.8934    2498939.05849   1953861.53345  23973628.5024   23973630.7934
       214.0004        156.0004
  21468206.8974   -4203110.58649  -3246082.36047  21468206.3304   21468209.4554
       235.0004        192.0004
  21895352.1664    1761423.61349   1384812.41547  21895351.8234   21895355.6394
       234.0004        191.0004
  23913855.7244   -2124325.66149  -1630977.29145  23913854.7134   23913861.1644
       212.0004        146.0004
  21410143.9304   -4798167.63949  -3694067.89147  21410143.7564   21410146.0094
       240.0004        206.0004
 07  2 17 16 10 10.0000000  0  8G 4G 2G30G17G 5G 9G24G12
  21255994.6784    1907178.26149   1497820.61947  21255994.7914   21255997.7494
       241.0004        201.0004
  20252856.6594   -2098690.36149   -824640.81748  20252856.1594   20252856.9254
       248.0004        222.0004
  23705797.2514   -3748977.91649  -2883268.08845  23705797.3984   23705799.5434
       214.0004        149.0004
  23975929.6234    2511034.56949   1963286.60245  23975928.9904   23975932.8804
       213.0004        156.0004
  21465932.1944   -4215064.10549  -3255396.79447  21465931.7454   21465935.2444
       235.0004        192.0004
  21897694.9934    1773735.30549   1394405.93047  21897694.9714   21897697.9514
       235.0004        191.0004
  23910481.7824   -2142055.85249  -1644793.02145  23910481.3884   23910486.7634
       211.0004        145.0004
  21408080.8894   -4809008.84749  -3702515.59247  21408080.7944   21408082.9304
       240.0004        206.0004
 07  2 17 16 10 15.0000000  0  8G 4G 2G30G17G 5G 9G24G12
  21258173.9534    1918630.45949   1506744.39847  21258173.8324   21258177.1434
       237.0004        201.0004
  20252059.7244   -2102878.28949   -827904.13748  20252059.1614   20252060.0764
       248.0004        222.0004
  23702623.2694   -3765657.18949  -2896264.93645  23702623.5854   23702625.7484
       212.0004        148.0004
  23978231.3984    2523130.47049   1972711.95545  23978231.3964   23978235.0424
       214.0004        156.0004
  21463659.0294   -4227009.58049  -3264704.94347  21463658.0294   21463661.7194
       235.0004        192.0004
  21900039.9694    1786058.17849   1404008.16747  21900039.5884   21900043.2924
       235.0004        191.0004
  23907108.7474   -2159781.17949  -1658604.96545  23907107.7644   23907114.5234
       211.0004        145.0004
  21406019.1914   -4819843.04349  -3710957.81647  21406019.0614   21406021.1284
       241.0004        206.0004
 07  2 17 16 10 20.0000000  0  8G 4G 2G30G17G 5G 9G24G12
  21260355.3124    1930093.75949   1515676.82847  21260355.9924   21260358.4274
       242.0004        201.0004
  20251265.5654   -2107051.69549   -831156.14048  20251265.0714   20251265.8074
       248.0004        222.0004
  23699449.6834   -3782334.35549  -2909260.12945  23699448.8734   23699452.6544
       211.0004        147.0004
  23980533.2914    2535226.87949   1982137.70445  23980533.5924   23980537.3474
       216.0004        156.0004
  21461387.4234   -4238946.87249  -3274006.73147  21461386.5614   21461390.3184
       235.0004        192.0004
  21902387.0804    1798392.34949   1413619.20447  21902386.8734   21902390.5494
       234.0004        191.0004
  23903736.6964   -2177501.49749  -1672413.01145  23903736.6574   23903742.4644
       212.0004        145.0004
  21403958.8594   -4830670.09649  -3719394.48247  21403958.8584   21403960.7834
       240.0004        206.0004
 07  2 17 16 10 25.0000000  0  8G 4G 2G30G17G 5G 9G24G12
  21262538.7784    1941567.92949   1524617.75547  21262538.4514   21262541.8644
       239.0004        201.0004
  20250474.1184   -2111210.68349   -834396.91248  20250473.6494   20250474.4334
       248.0004        222.0004
  23696276.5194   -3799009.51149  -2922253.75645  23696276.1394   23696279.9764
       213.0004        146.0004
  23982835.3174    2547323.73649   1991563.81545  23982835.9684   23982838.2954
       214.0004        156.0004
  21459117.3704   -4250876.03349  -3283302.18047  21459116.8034   21459120.3404
       236.0004        192.0004
  21904736.3284    1810737.71949   1423238.96547  21904736.1074   21904739.8724
       234.0004        191.0004
  23900365.5974   -2195216.88949  -1686217.22045  23900365.7314   23900371.0594
       211.0004        145.0004
  21401899.8754   -4841490.12249  -3727825.67547  21401899.8834   21401901.9044
       241.0004        206.0004
 07  2 17 16 10 30.0000000  0  8G 4G 2G30G17G 5G 9G24G12
  21264724.3604    1953053.27349   1533567.35147  21264724.9574   21264728.0314
       240.0004        201.0004
  20249685.4644   -2115355.12149   -837626.34148  20249685.0454   20249685.7374
       248.0004        222.0004
  23693103.7414   -3815682.53349  -2935245.72345  23693102.2374   23693106.9334
       213.0004        146.0004
  23985137.3844    2559421.13849   2000990.36045  23985137.3854   23985140.7754
       213.0004        155.0004
  21456848.8984   -4262796.92449  -3292591.19347  21456848.4834   21456852.0624
       235.0004        193.0004
  21907087.7494    1823094.39249   1432867.53847  21907087.5594   21907091.2514
       235.0004        191.0004
  23896995.4174   -2212927.23649  -1700017.48645  23896994.8954   23896999.7554
       211.0004        145.0004
  21399842.2664   -4852303.00749  -3736251.29947  21399842.4374   21399844.1024
       241.0004        206.0004
 07  2 17 16 10 35.0000000  0  8G 4G 2G30G17G 5G 9G24G12
  21266912.0454    1964549.62949   1542525.56447  21266911.9134   21266915.1574
       240.0004        200.0004
  20248899.5794   -2119485.03849   -840844.45948  20248899.1694   20248899.8794
       248.0004        222.0004
  23689931.3454   -3832353.40449  -2948236.00145  23689929.8934   23689933.9984
       213.0004        146.0004
  23987439.5634    2571519.02449   2010417.27045  23987439.9114   23987443.2164
       216.0004        155.0004
  21454581.9994   -4274709.63349  -3301873.82047  21454581.3924   21454584.7944
       235.0004        193.0004
  21909441.2684    1835462.31249   1442504.87347  21909441.0204   21909444.6374
       234.0004        191.0004
  23893626.2254   -2230632.55049  -1713813.83545  23893625.8574   23893630.6884
       212.0004        145.0004
  21397786.0124   -4863108.75849  -3744671.36247  21397785.6814   21397787.8224
       240.0004        206.0004
 07  2 17 16 10 40.0000000  0  8G 4G 2G30G17G 5G 9G24G12
  21269101.8364    1976057.02249   1551492.34447  21269101.7474   21269104.7684
       238.0004        200.0004
  20248116.4264   -2123600.46849   -844051.28948  20248116.0214   20248116.7334
       248.0004        222.0004
  23686759.3934   -3849022.09149  -2961224.60245  23686759.4084   23686762.3304
       216.0004        146.0004
  23989741.8554    2583617.37549   2019844.56245  23989742.2274   23989745.1194
       216.0004        155.0004
  21452316.6754   -4286614.10349  -3311150.03147  21452316.0714   21452319.5714
       235.0004        193.0004
  21911796.9454    1847841.45949   1452150.95147  21911796.9094   21911800.1304
       235.0004        191.0004
  23890257.9424   -2248332.91749  -1727606.33345  23890257.4794   23890263.6864
       211.0004        145.0004
  21395731.0974   -4873907.35549  -3753085.85247  21395730.9044   21395733.0394
       240.0004        206.0004
 07  2 17 16 10 45.0000000  0  8G 4G 2G30G17G 5G 9G24G12
  21271293.6614    1987575.35049   1560467.67047  21271294.3094   21271296.8414
       242.0004        200.0004
  20247336.0394   -2127701.47349   -847246.87548  20247335.6314   20247336.3624
       248.0004        223.0004
  23683587.8484   -3865688.67449  -2974211.53645  23683587.3044   23683590.7144
       216.0004        147.0004
  23992044.2164    2595716.15749   2029272.17945  23992043.8544   23992047.8254
       215.0004        155.0004
  21450052.9264   -4298510.41249  -3320419.87847  21450052.4884   21450055.7634
       235.0004        193.0004
  21914154.7414    1860231.77149   1461805.74347  21914154.2074   21914158.1104
       234.0004        191.0004
  23886890.6184   -2266028.29049  -1741394.94445  23886890.2704   23886896.9994
       211.0004        145.0004
  21393677.5414   -4884698.82049  -3761494.78547  21393677.3254   21393679.4134
       240.0004        206.0004
 07  2 17 16 10 50.0000000  0  8G 4G 2G30G17G 5G 9G24G12
  21273487.5844    1999104.39749   1569451.35047  21273487.2014   21273491.1204
       238.0004        200.0004
  20246558.3474   -2131788.26349   -850431.38748  20246557.9104   20246558.6814
       248.0004        223.0004
  23680416.6504   -3882353.40349  -2987197.04445  23680417.4484   23680420.2304
       217.0004        148.0004
  23994346.5944    2607815.15049   2038699.95545  23994345.9004   23994350.5454
       215.0004        155.0004
  21447790.6394   -4310398.77049  -3329683.53347  21447789.9544   21447793.6674
       235.0004        193.0004
  21916514.6234    1872633.00949   1471469.03347  21916514.2034   21916517.6184
       234.0004        191.0004
  23883524.2014   -2283718.91249  -1755179.84245  23883524.3504   23883530.5094
       211.0004        145.0004
  21391625.2714   -4895483.38449  -3769898.34147  21391625.3664   21391627.1534
       241.0004        206.0004
 07  2 17 16 10 55.0000000  0  8G 4G 2G30G17G 5G 9G24G12
  21275683.6754    2010644.82149   1578443.86747  21275684.4104   21275686.8694
       241.0004        200.0004
  20245783.4954   -2135860.16249   -853604.29348  20245783.0364   20245783.8494
       247.0004        223.0004
  23677245.9404   -3899015.57649  -3000180.55545  23677246.5734   23677249.9474
       217.0004        149.0004
  23996649.1414    2619915.07249   2048128.44945  23996648.7564   23996653.1004
       214.0004        155.0004
  21445530.0204   -4322278.43549  -3338940.41247  21445529.3094   21445532.6634
       235.0004        193.0004
  21918876.6824    1885045.80249   1481141.33547  21918876.4784   21918879.9294
       235.0004        191.0004
  23880158.8154   -2301404.10149  -1768960.50845  23880158.7004   23880164.1854
       210.0004        145.0004
  21389574.4744   -4906260.35849  -3778295.97947  21389574.2764   21389576.6144
       241.0004        206.0004
 07  2 17 16 11  0.0000000  0  8G 4G 2G30G17G 5G 9G24G12
  21277881.8364    2022196.08749   1587444.87147  21277881.3494   21277885.0894
       239.0004        200.0004
  20245011.3714   -2139917.62649   -856765.95148  20245010.8314   20245011.6134
       248.0004        223.0004
  23674075.6604   -3915675.64749  -3013162.43045  23674076.0584   23674078.3494
       217.0004        150.0004
  23998951.7284    2632015.41549   2057557.27545  23998952.3614   23998955.2644
       217.0004        156.0004
  21443270.9564   -4334149.88349  -3348190.89047  21443270.1334   21443273.5054
       235.0004        193.0004
  21921240.8534    1897469.68749   1490822.28247  21921240.7314   21921244.7934
       235.0004        191.0004
  23876794.3774   -2319084.27449  -1782737.27145  23876794.3094   23876800.1594
       211.0004        146.0004
  21387525.0754   -4917030.16449  -3786688.03947  21387524.9854   21387526.9714
       241.0004        206.0004
 07  2 17 16 11  5.0000000  0  8G 4G 2G30G17G 5G 9G24G12
  21280082.0744    2033758.41049   1596454.44447  21280082.8154   21280085.5714
       239.0004        200.0004
  20244242.0094   -2143960.60749   -859916.32648  20244241.5634   20244242.2314
       248.0004        223.0004
  23670905.8164   -3932333.61049  -3026142.66245  23670906.3834   23670908.9474
       215.0004        150.0004
  24001254.4404    2644116.24849   2066986.49145  24001254.7074   24001257.2864
       217.0004        156.0004
  21441013.4714   -4346013.09949  -3357434.95247  21441012.6064   21441016.2814
       236.0004        193.0004
  21923607.1704    1909904.71849   1500511.90747  21923606.9334   21923610.8384
       235.0004        190.0004
  23873430.9154   -2336759.43649  -1796510.12145  23873430.8184   23873436.0334
       210.0004        146.0004
  21385477.0334   -4927792.79349  -3795074.50147  21385476.9524   21385478.9994
       241.0004        206.0004
 07  2 17 16 11 10.0000000  0  8G 4G 2G30G17G 5G 9G24G12
  21282284.3844    2045331.56749   1605472.50647  21282284.5514   21282287.3394
       241.0004        200.0004
  20243475.4374   -2147989.09549   -863055.40648  20243474.8744   20243475.7694
       248.0004        223.0004
  23667736.3554   -3948989.36549  -3039121.16245  23667736.7674   23667739.2694
       215.0004        150.0004
  24003557.2774    2656217.68349   2076416.17545  24003557.8034   24003561.4214
       214.0004        156.0004
  21438757.5614   -4357868.05249  -3366672.58547  21438756.5784   21438760.1294
       236.0004        193.0004
  21925975.6064    1922350.85249   1510210.19247  21925975.5334   21925979.0924
       234.0004        190.0004
  23870068.4014   -2354429.55249  -1810279.03945  23870068.2864   23870072.9614
       210.0004        145.0004
  21383430.3174   -4938548.21049  -3803455.34947  21383430.3594   21383432.1324
       240.0004        206.0004
 07  2 17 16 11 15.0000000  0  8G 4G 2G30G17G 5G 9G24G12
  21284488.7464    2056915.56549   1614498.98647  21284488.5954   21284491.8464
       238.0004        200.0004
  20242711.5514   -2152003.27349   -866183.33348  20242710.8834   20242711.8254
       248.0004        223.0004
  23664567.2804   -3965643.17349  -3052098.14945  23664566.3724   23664570.7824
       213.0004        151.0004
  24005860.1614    2668319.44049   2085846.10145  24005860.5694   24005864.0194
       218.0004        157.0004
  21436503.1854   -4369714.90449  -3375903.89847  21436502.5284   21436505.8974
       235.0004        193.0004
  21928346.1194    1934807.93549   1519917.00247  21928345.7524   21928349.8354
       233.0004        190.0004
  23866706.8304   -2372094.77749  -1824044.14445  23866706.9834   23866711.7234
       211.0004        146.0004
  21381384.9664   -4949296.58049  -3811830.69847  21381384.9054   21381386.8954
       240.0004        206.0004
 07  2 17 16 11 20.0000000  0  8G 4G 2G30G17G 5G 9G24G12
  21286695.1654    2068510.53049   1623534.02147  21286695.9674   21286698.4054
       242.0004        200.0004
  20241950.4514   -2156002.84949   -869299.88848  20241949.9504   20241950.7284
       248.0004        223.0004
  23661398.5954   -3982294.69949  -3065073.34445  23661398.1954   23661402.4294
       211.0004        150.0004
  24008163.1464    2680421.73149   2095276.43945  24008164.3844   24008167.2744
       220.0004        157.0004
  21434250.4164   -4381553.36349  -3385128.66947  21434249.7384   21434253.3074
       235.0004        193.0004
  21930718.7724    1947276.21449   1529632.53547  21930718.5194   21930721.9234
       234.0004        190.0004
  23863346.2434   -2389754.82649  -1837805.22245  23863346.4594   23863352.2564
       211.0004        145.0004
  21379340.9944   -4960037.62949  -3820200.34647  21379340.8304   21379343.1004
       241.0004        206.0004
 07  2 17 16 11 25.0000000  0  8G 4G 2G30G17G 5G 9G24G12
  21288903.7094    2080116.41649   1632577.57947  21288903.3694   21288906.4634
       239.0004        200.0004
  20241192.1054   -2159987.99349   -872405.19248  20241191.6254   20241192.4214
       248.0004        223.0004
  23658230.2944   -3998944.12149  -3078046.91145  23658228.8194   23658234.3874
       210.0004        150.0004
  24010466.2414    2692524.43549   2104707.12045  24010466.7604   24010469.9524
       216.0004        158.0004
  21431999.1844   -4393383.58249  -3394347.01647  21431998.4164   21432001.9114
       235.0004        193.0004
  21933093.4814    1959755.49849   1539356.65847  21933093.2064   21933096.7414
       234.0004        190.0004
  23859986.6214   -2407409.85149  -1851562.38645  23859986.3254   23859992.2994
       210.0004        146.0004
  21377298.4294   -4970771.43249  -3828564.35247  21377298.4344   21377300.4244
       241.0004        206.0004
 07  2 17 16 11 30.0000000  0  8G 4G 2G30G17G 5G 9G24G12
  21291114.3294    2091733.35449   1641629.71647  21291115.1484   21291117.5124
       242.0004        200.0004
  20240436.5354   -2163958.48849   -875499.08348  20240436.1184   20240436.9204
       248.0004        223.0004
  23655062.3954   -4015591.19549  -3091018.63945  23655061.2424   23655065.0434
       211.0004        150.0004
  24012769.4604    2704627.84649   2114138.33745  24012769.7054   24012773.7204
       217.0004        158.0004
  21429749.5894   -4405205.29949  -3403558.74247  21429748.7744   21429752.3954
       235.0004        193.0004
  21935470.3664    1972246.04049   1549089.53347  21935470.1104   21935473.6004
       233.0004        190.0004
  23856627.9954   -2425059.63449  -1865315.46245  23856627.0314   23856633.0994
       210.0004        145.0004
  21375257.2524   -4981497.80249  -3836922.55447  21375257.0574   21375259.2274
       241.0004        206.0004
 07  2 17 16 11 35.0000000  0  8G 4G 2G30G17G 5G 9G24G12
  21293326.8744    2103360.37949   1650689.76347  21293326.4474   21293330.4824
       241.0004        200.0004
  20239683.5964   -2167915.25649   -878582.27348  20239683.0094   20239683.9144
       248.0004        223.0004
  23651894.7544   -4032236.82949  -3103989.24745  23651893.0054   23651897.4834
       211.0004        150.0004
  24015072.6244    2716730.95049   2123569.31545  24015072.8914   24015076.5084
       217.0004        158.0004
  21427501.4234   -4417019.41049  -3412764.53547  21427500.3604   21427504.3504
       236.0004        193.0004
  21937849.1824    1984746.90149   1558830.46547  21937849.2934   21937852.8874
       235.0004        190.0004
  23853270.2084   -2442705.04249  -1879065.13045  23853269.3554   23853275.1324
       210.0004        145.0004
  21373217.3374   -4992217.64549  -3845275.68247  21373217.3004   21373219.2474
       241.0004        206.0004
 07  2 17 16 11 40.0000000  0  8G 4G 2G30G17G 5G 9G24G12
  21295541.5654    2114998.50649   1659758.40447  21295541.5534   21295544.6894
       239.0004        200.0004
  20238933.4344   -2171857.31449   -881654.01348  20238933.0484   20238933.8854
       248.0004        223.0004
  23648727.5504   -4048880.04749  -3116957.97845  23648726.1184   23648731.3184
       213.0004        149.0004
  24017375.9024    2728834.72749   2133000.81545  24017375.9274   24017380.0434
       217.0004        158.0004
  21425254.8634   -4428824.99149  -3421963.69747  21425253.9854   21425257.6004
       235.0004        193.0004
  21940230.1564    1997259.00549   1568580.14947  21940230.2154   21940234.2384
       234.0004        190.0004
  23849913.4204   -2460345.16549  -1892810.68145  23849913.0894   23849918.2304
       209.0004        144.0004
  21371178.8514   -5002930.02949  -3853622.98847  21371178.7714   21371180.7744
       241.0004        206.0004
 07  2 17 16 11 45.0000000  0  8G 4G 2G30G17G 5G 9G24G12
  21297758.3244    2126647.57849   1668835.61447  21297758.5494   21297761.7674
       243.0004        200.0004
  20238186.0764   -2175784.71749   -884714.32248  20238185.6364   20238186.4844
       248.0004        223.0004
  23645560.8584   -4065520.80249  -3129924.80345  23645560.4894   23645563.6424
       215.0004        149.0004
  24019679.3544    2740939.18449   2142432.85045  24019679.2624   24019683.6404
       217.0004        158.0004
  21423009.9624   -4440622.01249  -3431156.18247  21423009.4094   21423012.7874
       236.0004        193.0004
  21942613.2684    2009782.32049   1578338.57347  21942612.8154   21942616.8324
       234.0004        190.0004
  23846557.6454   -2477979.95849  -1906552.07345  23846557.1524   23846562.8114
       209.0004        144.0004
  21369141.7664   -5013634.92549  -3861964.47147  21369141.8614   21369143.8304
       240.0004        206.0004
 07  2 17 16 11 50.0000000  0  8G 4G 2G30G17G 5G 9G24G12
  21299977.1784    2138307.57449   1677921.31947  21299976.9234   21299980.5294
       237.0004        200.0004
  20237441.4914   -2179697.58049   -887763.30748  20237441.0114   20237441.7534
       248.0004        223.0004
  23642394.5984   -4082159.19449  -3142889.79445  23642394.8914   23642397.0104
       217.0004        149.0004
  24021982.8844    2753044.19049   2151865.30945  24021983.2274   24021986.5694
       218.0004        158.0004
  21420766.6364   -4452410.65849  -3440342.13547  21420765.9724   21420769.7994
       235.0004        193.0004
  21944998.5134    2022316.72149   1588105.63647  21944998.4144   21945001.4524
       235.0004        190.0004
  23843202.8524   -2495609.53249  -1920289.40645  23843202.1154   23843207.5404
       209.0004        144.0004
  21367106.1384   -5024332.46749  -3870300.21847  21367106.2704   21367108.2584
       241.0004        206.0004
 07  2 17 16 11 55.0000000  0  8G 4G 2G30G17G 5G 9G24G12
  21302198.0354    2149978.36349   1687015.42347  21302198.6854   21302201.0294
       242.0004        200.0004
  20236699.6634   -2183595.99749   -890801.03548  20236699.3854   20236700.0534
       248.0004        223.0004
  23639228.7814   -4098795.44849  -3155853.13145  23639229.4424   23639232.6214
       217.0004        149.0004
  24024286.4884    2765149.60549   2161298.09045  24024286.7124   24024289.4334
       219.0004        158.0004
  21418524.9084   -4464191.00549  -3449521.62747  21418524.6044   21418527.8954
       236.0004        193.0004
  21947385.8124    2034862.03149   1597881.20147  21947385.0614   21947389.6734
       233.0004        190.0004
  23839849.0164   -2513234.05149  -1934022.79945  23839847.9474   23839853.8014
       209.0004        144.0004
  21365071.8374   -5035022.79549  -3878630.34547  21365071.8794   21365073.8974
       240.0004        206.0004
 07  2 17 16 12  0.0000000  0  8G 4G 2G30G17G 5G 9G24G12
  21304421.0164    2161660.03749   1696118.05347  21304420.7464   21304424.3594
       240.0004        200.0004
  20235960.6124   -2187479.78849   -893827.36348  20235960.0664   20235960.8524
       248.0004        223.0004
  23636063.4374   -4115429.35149  -3168814.60845  23636063.1244   23636066.6734
       217.0004        150.0004
  24026590.1834    2777255.61849   2170731.33945  24026589.7184   24026593.5384
       217.0004        157.0004
  21416284.8324   -4475962.79549  -3458694.45147  21416284.1954   21416287.5864
       234.0004        193.0004
  21949775.2364    2047418.46349   1607665.41847  21949775.0374   21949778.5284
       233.0004        190.0004
  23836496.1834   -2530853.29249  -1947752.07845  23836495.1884   23836500.1934
       209.0004        144.0004
  21363038.9724   -5045705.69449  -3886954.67947  21363038.7464   21363041.1084
       241.0004        206.0004
 07  2 17 16 12  5.0000000  0  8G 4G 2G30G17G 5G 9G24G12
  21306646.0364    2173352.59449   1705229.10847  21306646.1964   21306649.4354
       239.0004        200.0004
  20235224.3244   -2191349.04349   -896842.36548  20235223.8064   20235224.5874
       248.0004        223.0004
  23632898.5324   -4132060.95449  -3181774.30045  23632898.4854   23632902.0174
       215.0004        150.0004
  24028893.9754    2789362.16249   2180164.99445  24028894.1634   24028896.9434
       218.0004        157.0004
  21414046.3184   -4487726.20349  -3467860.74147  21414045.9744   21414049.2744
       236.0004        193.0004
  21952166.7374    2059985.88349   1617458.21547  21952166.4514   21952170.6104
       234.0004        190.0004
  23833144.3454   -2548467.34549  -1961477.30845  23833143.6584   23833149.2004
       208.0004        144.0004
  21361007.4914   -5056381.25049  -3895273.29047  21361007.5324   21361009.3944
       241.0004        206.0004
 07  2 17 16 12 10.0000000  0  8G 4G 2G30G17G 5G 9G24G12
  21308873.0804    2185055.94549   1714348.61547  21308873.6244   21308876.7434
       242.0004        200.0004
  20234490.7844   -2195203.83249   -899846.09548  20234490.3344   20234491.0774
       248.0004        223.0004
  23629734.0644   -4148690.28249  -3194732.22145  23629734.5954   23629737.7704
       216.0004        150.0004
  24031197.8664    2801469.13849   2189598.99645  24031198.3084   24031201.0414
       219.0004        157.0004
  21411809.4164   -4499481.22749  -3477020.49947  21411808.8634   21411812.3494
       235.0004        193.0004
  21954560.3274    2072564.26349   1627259.54047  21954560.0844   21954564.3604
       233.0004        190.0004
  23829793.4754   -2566076.22449  -1975198.50845  23829792.8784   23829799.7154
       211.0004        145.0004
  21358977.3944   -5067049.48849  -3903586.20447  21358977.5784   21358979.4134
       241.0004        206.0004
 07  2 17 16 12 15.0000000  0  8G 4G 2G30G17G 5G 9G24G12
  21311102.2064    2196769.96449   1723476.42047  21311101.6814   21311105.4654
       239.0004        200.0004
  20233760.0124   -2199044.14849   -902838.55048  20233759.5604   20233760.2984
       248.0004        223.0004
  23626570.0264   -4165317.28149  -3207688.32445  23626570.3464   23626573.4894
       214.0004        151.0004
  24033501.8604    2813576.65149   2199033.43045  24033502.6624   24033504.5104
       219.0004        157.0004
  21409574.1114   -4511227.81249  -3486173.68847  21409573.2814   21409576.9704
       236.0004        193.0004
  21956956.0104    2085153.59149   1637069.39847  21956956.0264   21956959.7844
       234.0004        190.0004
  23826443.6114   -2583679.92849  -1988915.67145  23826443.1174   23826449.4224
       210.0004        145.0004
  21356948.7064   -5077710.39849  -3911893.40447  21356948.5524   21356950.7044
       241.0004        206.0004
 07  2 17 16 12 20.0000000  0  8G 4G 2G30G17G 5G 9G24G12
  21313333.3904    2208494.90049   1732612.71347  21313334.2964   21313336.8234
       242.0004        200.0004
  20233031.9584   -2202869.95849   -905819.70148  20233031.5144   20233032.3624
       248.0004        223.0004
  23623406.4344   -4181941.95649  -3220642.61645  23623406.0364   23623409.8014
       214.0004        151.0004
  24035805.9524    2825684.67249   2208468.24845  24035805.9984   24035809.2384
       218.0004        157.0004
  21407340.4374   -4522965.94649  -3495320.27647  21407339.5574   21407343.2404
       237.0004        193.0004
  21959353.7414    2097753.86149   1646887.79047  21959353.3464   21959356.9474
       233.0004        190.0004
  23823094.7284   -2601278.43749  -2002628.78945  23823093.7754   23823100.4574
       211.0004        146.0004
  21354921.4094   -5088363.94049  -3920194.86247  21354921.4754   21354923.3604
       241.0004        206.0004
 07  2 17 16 12 25.0000000  0  8G 4G 2G30G17G 5G 9G24G12
  21315566.6204    2220230.48249   1741757.34047  21315566.3404   21315569.9704
       241.0004        200.0004
  20232306.7074   -2206681.30949   -908789.58148  20232306.1964   20232306.9324
       248.0004        223.0004
  23620243.2644   -4198564.34449  -3233595.10645  23620242.2074   23620247.7574
       212.0004        151.0004
  24038110.1444    2837793.14949   2217903.40345  24038110.0834   24038113.5194
       217.0004        157.0004
  21405108.3574   -4534695.68349  -3504460.32747  21405107.4824   21405111.3134
       236.0004        193.0004
  21961753.5674    2110365.03649   1656714.67147  21961753.1854   21961757.4854
       234.0004        190.0004
  23819746.8144   -2618871.74249  -2016337.85545  23819745.5134   23819751.1044
       211.0004        147.0004
  21352895.5104   -5099010.13849  -3928490.60147  21352895.3584   21352897.4644
       241.0004        206.0004
 07  2 17 16 12 30.0000000  0  8G 4G 2G30G17G 5G 9G24G12
  21317801.9324    2231976.86049   1750910.34447  21317802.1034   21317805.2004
       238.0004        200.0004
  20231584.1664   -2210478.15149   -911748.15648  20231583.4864   20231584.5794
       248.0004        223.0004
  23617080.5214   -4215184.39849  -3246545.77745  23617079.3964   23617084.7474
       211.0004        152.0004
  24040414.4164    2849902.08049   2227338.91745  24040414.3774   24040418.6064
       219.0004        157.0004
  21402877.8864   -4546416.97949  -3513593.81147  21402877.1764   21402880.6954
       236.0004        193.0004
  21964155.5124    2122987.13649   1666550.07047  21964155.5424   21964159.2334
       234.0004        190.0004
  23816399.8914   -2636459.84449  -2030042.87445  23816398.9604   23816404.9924
       211.0004        148.0004
  21350870.9874   -5109648.99149  -3936780.61947  21350871.2494   21350872.9584
       241.0004        206.0004
 07  2 17 16 12 35.0000000  0  8G 4G 2G30G17G 5G 9G24G12
  21320039.2544    2243734.06349   1760071.80647  21320039.6344   21320042.3164
       242.0004        199.0004
  20230864.4384   -2214260.36049   -914695.33248  20230863.8944   20230864.7514
       248.0004        223.0004
  23613918.2224   -4231801.97449  -3259494.52745  23613917.3954   23613922.3314
       214.0004        152.0004
  24042718.8224    2862011.61849   2236774.92345  24042719.0924   24042722.6674
       219.0004        157.0004
  21400649.0704   -4558129.67249  -3522720.58347  21400648.7594   21400652.0204
       237.0004        193.0004
  21966559.5364    2135620.26349   1676394.06647  21966559.1284   21966563.1014
       234.0004        190.0004
  23813053.9814   -2654042.57749  -2043743.70445  23813054.3264   23813059.4124
       212.0004        148.0004
  21348847.9384   -5120280.31049  -3945064.75947  21348847.9804   21348849.9164
       240.0004        206.0004
 07  2 17 16 12 40.0000000  0  8G 4G 2G30G17G 5G 9G24G12
  21322278.6024    2255501.84449   1769241.51247  21322277.8544   21322281.9074
       239.0004        200.0004
  20230147.4124   -2218028.29249   -917631.38148  20230146.8814   20230147.7764
       248.0004        223.0004
  23610756.3654   -4248417.39349  -3272441.59045  23610755.2444   23610760.3304
       214.0004        153.0004
  24045023.2644    2874121.47049   2246211.16845  24045023.2074   24045027.1564
       217.0004        157.0004
  21398421.8144   -4569834.12549  -3531840.93647  21398421.3914   21398424.2554
       235.0004        193.0004
  21968965.5874    2148264.06749   1686246.37247  21968965.3824   21968969.2844
       234.0004        190.0004
  23809709.0394   -2671620.27849  -2057440.61745  23809709.3014   23809714.5574
       211.0004        148.0004
  21346826.2124   -5130904.43649  -3953343.29747  21346826.3604   21346828.2484
       243.0004        206.0004
 07  2 17 16 12 45.0000000  0  8G 4G 2G30G17G 5G 9G24G12
  21324520.0094    2267280.40049   1778419.58547  21324520.7814   21324523.0424
       241.0004        200.0004
  20229433.2024   -2221781.58949   -920556.02948  20229432.7754   20229433.5484
       248.0004        223.0004
  23607594.9654   -4265030.33649  -3285386.72545  23607595.1324   23607598.7344
       214.0004        153.0004
  24047327.8304    2886231.93849   2255647.89245  24047327.7114   24047331.5844
       215.0004        157.0004
  21396196.1694   -4581529.94749  -3540954.56147  21396195.4624   21396198.7674
       236.0004        193.0004
  21971373.7314    2160918.89249   1696107.27347  21971373.7044   21971377.4214
       234.0004        190.0004
  23806365.1174   -2689192.60649  -2071133.34045  23806364.7874   23806370.1854
       210.0004        148.0004
  21344805.9734   -5141521.02049  -3961615.95447  21344805.8184   21344807.7484
       242.0004        206.0004
 07  2 17 16 12 50.0000000  0  8G 4G 2G30G17G 5G 9G24G12
  21326763.4234    2279069.66349   1787606.04047  21326763.1094   21326766.5994
       240.0004        199.0004
  20228721.7054   -2225520.43449   -923469.41048  20228721.1584   20228722.0704
       248.0004        223.0004
  23604433.9924   -4281641.01649  -3298330.10245  23604434.1204   23604437.1634
       215.0004        153.0004
  24049632.4674    2898342.85449   2265084.94845  24049632.1564   24049636.6914
       216.0004        157.0004
  21393972.1504   -4593217.30849  -3550061.60147  21393971.4524   21393974.6604
       236.0004        193.0004
  21973783.9294    2173584.49749   1705976.56747  21973783.4964   21973787.8944
       233.0004        189.0004
  23803022.2074   -2706759.70749  -2084821.99045  23803021.2314   23803027.5854
       212.0004        148.0004
  21342787.0964   -5152130.21349  -3969882.86647  21342787.2864   21342788.9784
       242.0004        206.0004
 07  2 17 16 12 55.0000000  0  8G 4G 2G30G17G 5G 9G24G12
  21329008.9154    2290869.68449   1796800.84047  21329009.0944   21329011.9424
       239.0004        199.0004
  20228012.9934   -2229244.67249   -926371.41448  20228012.5684   20228013.3544
       248.0004        223.0004
  23601273.4784   -4298249.23149  -3311271.57045  23601274.2184   23601276.8684
       217.0004        153.0004
  24051937.1834    2910454.33949   2274522.44045  24051937.3504   24051940.6924
       219.0004        157.0004
  21391749.7614   -4604896.08249  -3559161.94247  21391748.8204   21391752.4984
       235.0004        193.0004
  21976196.1924    2186261.02249   1715854.37347  21976195.6564   21976200.0324
       233.0004        189.0004
  23799680.3004   -2724321.46349  -2098506.46845  23799679.5054   23799685.5674
       210.0004        148.0004
  21340769.6934   -5162731.84049  -3978143.87347  21340769.7734   21340771.5074
       242.0004        206.0004
 07  2 17 16 13  0.0000000  0  8G 4G 2G30G17G 5G 9G24G12
  21331256.3754    2302680.23949   1806003.88347  21331256.7284   21331259.0394
       242.0004        199.0004
  20227307.0394   -2232954.56649   -929262.24148  20227306.5874   20227307.4134
       248.0004        223.0004
  23598113.4664   -4314855.19949  -3324211.28845  23598114.1664   23598117.5674
       217.0004        154.0004
  24054242.0054    2922566.13349   2283960.21345  24054242.4244   24054245.5264
       219.0004        157.0004
  21389528.9644   -4616566.46649  -3568255.74047  21389527.9284   21389531.5134
       235.0004        193.0004
  21978610.4784    2198948.22449   1725740.49847  21978610.2754   21978613.8494
       233.0004        189.0004
  23796339.3734   -2741878.04649  -2112186.92245  23796339.2474   23796344.1844
       210.0004        147.0004
  21338753.6664   -5173326.15849  -3986399.18147  21338753.6384   21338755.4554
       242.0004        206.0004
 07  2 17 16 13  5.0000000  0  8G 4G 2G30G17G 5G 9G24G12
  21333505.9054    2314501.45149   1815215.21247  21333505.4714   21333509.0774
       238.0004        199.0004
  20226603.7904   -2236650.03449   -932141.82548  20226603.3944   20226604.1094
       248.0004        223.0004
  23594953.8964   -4331458.88949  -3337149.24245  23594955.1324   23594958.4824
       217.0004        154.0004
  24056546.9354    2934678.38949   2293398.32345  24056547.7694   24056550.7084
       219.0004        157.0004
  21387309.7584   -4628228.38849  -3577342.95347  21387309.1644   21387312.4974
       235.0004        193.0004
  21981026.8134    2211646.18749   1735635.00647  21981026.6924   21981030.0234
       234.0004        189.0004
  23792999.4714   -2759429.43549  -2125863.33045  23792999.3794   23793004.4094
       210.0004        146.0004
  21336739.0584   -5183913.10149  -3994648.74847  21336739.0334   21336740.8534
       242.0004        206.0004
 07  2 17 16 13 10.0000000  0  8G 4G 2G30G17G 5G 9G24G12
  21335757.3994    2326333.37349   1824434.88347  21335758.2324   21335760.6544
       242.0004        199.0004
  20225903.3584   -2240330.87749   -935010.01548  20225902.9594   20225903.5414
       248.0004        223.0004
  23591794.7884   -4348060.07149  -3350085.23845  23591795.3804   23591799.1904
       216.0004        154.0004
  24058851.9604    2946791.25649   2302836.90945  24058851.7344   24058855.1244
       216.0004        156.0004
  21385092.2004   -4639881.67049  -3586423.43347  21385091.2094   21385094.8054
       237.0004        193.0004
  21983445.2214    2224355.03749   1745538.00147  21983445.4174   21983448.6844
       234.0004        189.0004
  23789660.6054   -2776975.39849  -2139535.50745  23789660.0814   23789665.5794
       211.0004        146.0004
  21334725.8644   -5194492.48849  -4002892.42547  21334725.6274   21334727.6674
       242.0004        206.0004
 07  2 17 16 13 15.0000000  0  8G 4G 2G30G17G 5G 9G24G12
  21338010.9604    2338175.78449   1833662.74947  21338010.0934   21338013.6604
       238.0004        199.0004
  20225205.6504   -2243997.42449   -937867.06648  20225205.2824   20225205.7944
       248.0004        223.0004
  23588636.1424   -4364659.07149  -3363019.52545  23588636.5274   23588640.5734
       216.0004        153.0004
  24061157.0514    2958904.43349   2312275.74745  24061156.8984   24061160.6834
       217.0004        156.0004
  21382876.2324   -4651526.60849  -3595497.41047  21382875.5334   21382878.9054
       236.0004        193.0004
  21985865.6474    2237074.48349   1755449.25847  21985865.4024   21985869.2444
       234.0004        189.0004
  23786322.6694   -2794516.26249  -2153203.71445  23786322.4324   23786326.6564
       209.0004        145.0004
  21332714.0494   -5205064.59649  -4011130.42947  21332713.6904   21332715.8544
       242.0004        206.0004
 07  2 17 16 13 20.0000000  0  8G 4G 2G30G17G 5G 9G24G12
  21340266.5404    2350029.02149   1842899.00947  21340266.9914   21340269.7414
       240.0004        199.0004
  20224510.7024   -2247649.34549   -940712.71548  20224510.2734   20224511.0194
       248.0004        223.0004
  23585477.9344   -4381255.44849  -3375951.76645  23585478.3634   23585482.9894
       215.0004        153.0004
  24063462.2214    2971018.29949   2321715.09745  24063462.2424   24063465.3844
       217.0004        156.0004
  21380661.9434   -4663162.77749  -3604564.55947  21380661.3864   21380664.6164
       236.0004        193.0004
  21988288.1664    2249804.89149   1765369.04847  21988287.9054   21988291.9134
       234.0004        189.0004
  23782985.8004   -2812051.61449  -2166867.63045  23782984.7224   23782990.5874
       210.0004        144.0004
  21330703.7264   -5215629.01549  -4019362.44147  21330703.6414   21330705.6634
       241.0004        206.0004
 07  2 17 16 13 25.0000000  0  8G 4G 2G30G17G 5G 9G24G12
  21342524.0874    2361892.60149   1852143.38447  21342524.1884   21342527.5294
       242.0004        199.0004
  20223818.5124   -2251286.93649   -943547.20248  20223818.1424   20223818.8854
       248.0004        223.0004
  23582320.1494   -4397849.56849  -3388882.24445  23582320.4994   23582324.4234
       212.0004        153.0004
  24065767.4354    2983132.45149   2331154.68245  24065767.4364   24065769.4774
       218.0004        155.0004
  21378449.2654   -4674790.55749  -3613625.16547  21378448.6784   21378451.7024
       237.0004        193.0004
  21990712.7234    2262545.85949   1775297.06447  21990712.9264   21990716.0484
       234.0004        189.0004
  23779649.9364   -2829581.80349  -2180527.52145  23779649.3514   23779654.6104
       210.0004        144.0004
  21328694.7714   -5226186.12149  -4027588.75847  21328694.6424   21328696.6894
       241.0004        207.0004
 07  2 17 16 13 30.0000000  0  8G 4G 2G30G17G 5G 9G24G12
  21344783.7344    2373767.08149   1861396.20447  21344783.4244   21344786.7354
       237.0004        199.0004
  20223129.0954   -2254909.81649   -946370.22648  20223128.7994   20223129.3374
       248.0004        223.0004
  23579162.8534   -4414441.04549  -3401810.67045  23579162.8454   23579166.1134
       213.0004        153.0004
  24068072.7894    2995247.28049   2340594.81145  24068073.1104   24068075.3074
       219.0004        155.0004
  21376238.2204   -4686409.56349  -3622678.93047  21376237.4694   21376240.8284
       237.0004        193.0004
  21993139.3224    2275297.75449   1785233.60947  21993139.0574   21993142.4014
       234.0004        189.0004
  23776315.0694   -2847106.48449  -2194183.12345  23776314.9404   23776320.2804
       212.0004        145.0004
  21326687.2424   -5236735.56449  -4035809.10547  21326687.3224   21326689.2234
       241.0004        207.0004
 07  2 17 16 13 35.0000000  0  8G 4G 2G30G17G 5G 9G24G12
  21347045.3834    2385652.16749   1870657.30047  21347046.1974   21347048.3184
       243.0004        199.0004
  20222442.4454   -2258518.16949   -949181.92548  20222441.9754   20222442.8114
       248.0004        223.0004
  23576006.0374   -4431030.07849  -3414737.17745  23576005.7614   23576010.4304
       212.0004        152.0004
  24070378.2804    3007362.63449   2350035.34645  24070379.1734   24070381.4764
       218.0004        154.0004
  21374028.8264   -4698019.95949  -3631725.99247  21374028.1784   21374031.3274
       236.0004        193.0004
  21995567.9914    2288060.38549   1795178.50647  21995567.8554   21995571.6674
       234.0004        189.0004
  23772981.2604   -2864625.79049  -2207834.53745  23772980.7384   23772985.8724
       212.0004        145.0004
  21324681.1724   -5247277.46249  -4044023.56647  21324681.0214   21324683.0814
       242.0004        207.0004
 07  2 17 16 13 40.0000000  0  8G 4G 2G30G17G 5G 9G24G12
  21349309.0594    2397547.70049   1879926.56747  21349308.3714   21349312.5444
       238.0004        199.0004
  20221758.5554   -2262112.11049   -951982.40048  20221758.1484   20221758.8454
       248.0004        223.0004
  23572849.6684   -4447616.72449  -3427661.81145  23572850.0264   23572852.7934
       215.0004        153.0004
  24072683.8934    3019478.38949   2359476.18245  24072683.9184   24072687.1304
       218.0004        154.0004
  21371821.0404   -4709621.88949  -3640766.45947  21371820.4474   21371823.5734
       236.0004        193.0004
  21997998.6824    2300833.56649   1805131.62847  21997998.4534   21998002.1454
       233.0004        189.0004
  23769648.4614   -2882139.86049  -2221481.87045  23769648.0054   23769653.6434
       212.0004        145.0004
  21322676.5084   -5257811.90749  -4052232.22147  21322676.4584   21322678.4774
       242.0004        207.0004
 07  2 17 16 13 45.0000000  0  8G 4G 2G30G17G 5G 9G24G12
  21351574.6914    2409453.70549   1889203.94547  21351574.9524   21351577.7574
       240.0004        199.0004
  20221077.4054   -2265691.62149   -954771.62848  20221076.9004   20221077.7444
       248.0004        223.0004
  23569693.7924   -4464200.99749  -3440584.61345  23569693.9604   23569697.8574
       216.0004        153.0004
  24074989.5814    3031594.56649   2368917.36845  24074989.4424   24074992.1474
       219.0004        154.0004
  21369614.8794   -4721215.23549  -3649800.22847  21369614.0644   21369617.5664
       236.0004        194.0004
  22000431.3504    2313617.40749   1815093.05547  22000430.9094   22000434.8954
       232.0004        189.0004
  23766316.6544   -2899648.62149  -2235125.06945  23766316.5914   23766322.0284
       213.0004        146.0004
  21320673.2844   -5268338.90349  -4060435.08047  21320673.4254   21320675.1294
       242.0004        207.0004
 07  2 17 16 13 50.0000000  0  8G 4G 2G30G17G 5G 9G24G12
  21353842.3644    2421370.41649   1898489.70947  21353842.2234   21353845.2374
       242.0004        199.0004
  20220399.0324   -2269256.46749   -957549.42748  20220398.4994   20220399.2794
       248.0004        223.0004
  23566538.4094   -4480782.59349  -3453505.33545  23566538.5254   23566541.4934
       216.0004        154.0004
  24077295.3804    3043711.36349   2378359.02845  24077296.1054   24077298.6504
       216.0004        153.0004
  21367410.4014   -4732799.75549  -3658827.13547  21367409.6004   21367413.2324
       235.0004        194.0004
  22002866.0884    2326412.11049   1825062.94747  22002865.8834   22002870.0224
       233.0004        189.0004
  23762985.9144   -2917151.85449  -2248763.95145  23762986.4674   23762990.2384
       212.0004        147.0004
  21318671.5374   -5278858.21549  -4068631.94947  21318671.6814   21318673.3694
       242.0004        207.0004
 07  2 17 16 13 55.0000000  0  8G 4G 2G30G17G 5G 9G24G12
  21356112.0274    2433297.43349   1907783.48347  21356112.0714   21356115.1784
       237.0004        199.0004
  20219723.4024   -2272807.03049   -960316.10248  20219722.9774   20219723.7474
       248.0004        223.0004
  23563383.4544   -4497361.85649  -3466424.23645  23563384.5584   23563386.9664
       217.0004        155.0004
  24079601.1804    3055828.41249   2387800.86145  24079601.3594   24079604.0774
       219.0004        153.0004
  21365207.5154   -4744375.92649  -3667847.52447  21365206.7854   21365210.2994
       237.0004        194.0004
  22005302.8314    2339217.25249   1835040.97547  22005302.7464   22005306.0084
       232.0004        189.0004
  23759656.1414   -2934649.97149  -2262398.84645  23759656.7924   23759661.0064
       210.0004        147.0004
  21316671.1754   -5289370.21249  -4076823.10947  21316671.2564   21316672.9924
       243.0004        207.0004
 07  2 17 16 14  0.0000000  0  8G 4G 2G30G17G 5G 9G24G12
  21358383.6914    2445235.14049   1917085.58247  21358384.1684   21358387.1994
       242.0004        199.0004
  20219050.5314   -2276342.98649   -963071.39148  20219050.0334   20219050.8824
       248.0004        223.0004
  23560229.0154   -4513938.54649  -3479341.13745  23560229.7524   23560233.1784
       218.0004        156.0004
  24081907.0854    3067946.05249   2397243.16145  24081908.0224   24081909.6234
       218.0004        153.0004
  21363006.2784   -4755943.39749  -3676861.13347  21363005.6794   21363008.9754
       237.0004        194.0004
  22007741.5924    2352033.14749   1845027.38047  22007741.5584   22007744.8054
       234.0004        189.0004
  23756327.4044   -2952142.58949  -2276029.45645  23756327.7174   23756332.5404
       210.0004        148.0004
  21314672.2664   -5299874.50349  -4085008.26847  21314672.0304   21314674.2784
       242.0004        207.0004
 07  2 17 16 14  5.0000000  0  8G 4G 2G30G17G 5G 9G24G12
  21360657.3184    2457183.05049   1926395.65547  21360656.7754   21360660.3644
       239.0004        199.0004
  20218380.3724   -2279864.71549   -965815.59448  20218379.7574   20218380.6534
       248.0004        223.0004
  23557075.0124   -4530512.94749  -3492256.25145  23557076.0264   23557079.6744
       217.0004        156.0004
  24084213.0564    3080063.91249   2406685.64645  24084212.4074   24084215.9094
       218.0004        153.0004
  21360806.6984   -4767502.41749  -3685868.15947  21360806.2524   21360809.6024
       237.0004        194.0004
  22010182.3654    2364859.37649   1855021.84447  22010182.0184   22010185.6384
       232.0004        189.0004
  23752999.6584   -2969630.06249  -2289656.05745  23752999.2414   23753004.6624
       211.0004        148.0004
  21312674.7654   -5310371.48749  -4093187.74147  21312674.8424   21312676.5634
       242.0004        207.0004
 07  2 17 16 14 10.0000000  0  8G 4G 2G30G17G 5G 9G24G12
  21362933.0514    2469141.98649   1935714.28147  21362933.0694   21362935.9754
       239.0004        199.0004
  20217713.0224   -2283371.50249   -968548.15548  20217712.6294   20217713.3084
       249.0004        223.0004
  23553921.5624   -4547084.46549  -3505169.11545  23553921.7894   23553926.0594
       217.0004        156.0004
  24086519.1924    3092182.65949   2416128.82545  24086518.8304   24086523.2854
       218.0004        153.0004
  21358608.8254   -4779052.35849  -3694868.12347  21358608.3234   21358611.5824
       236.0004        194.0004
  22012625.1934    2377696.65449   1865024.90347  22012625.0274   22012629.1134
       232.0004        189.0004
  23749672.9744   -2987111.71049  -2303278.10645  23749671.8444   23749677.6674
       209.0004        148.0004
  21310678.7854   -5320860.50049  -4101360.99647  21310678.9444   21310680.6554
       242.0004        207.0004
 07  2 17 16 14 15.0000000  0  8G 4G 2G30G17G 5G 9G24G12
  21365210.6754    2481111.09249   1945040.86947  21365210.5924   21365213.8694
       241.0004        198.0004
  20217048.4304   -2286863.95549   -971269.54648  20217047.8994   20217048.6454
       248.0004        223.0004
  23550768.5534   -4563653.69449  -3518080.20845  23550769.5914   23550773.2894
       217.0004        156.0004
  24088825.4044    3104301.64849   2425572.18645  24088825.1034   24088828.0794
       217.0004        153.0004
  21356412.5504   -4790593.88049  -3703861.51447  21356412.0144   21356415.5464
       237.0004        194.0004
  22015069.9944    2390544.26449   1875036.02947  22015069.6544   22015073.6624
       233.0004        189.0004
  23746347.2694   -3004588.18049  -2316896.12645  23746346.2774   23746352.4494
       212.0004        149.0004
  21308684.2274   -5331342.17749  -4109528.53547  21308684.0054   21308685.9914
       243.0004        207.0004
 07  2 17 16 14 20.0000000  0  8G 4G 2G30G17G 5G 9G24G12
  21367490.3504    2493090.91049   1954375.79047  21367489.9454   21367493.7154
       238.0004        198.0004
  20216386.6364   -2290341.74649   -973979.51248  20216386.1674   20216386.9124
       248.0004        223.0004
  23547616.0864   -4580220.20949  -3530989.18445  23547616.8544   23547619.8474
       215.0004        156.0004
  24091131.7064    3116421.33849   2435016.08845  24091131.8264   24091134.1234
       218.0004        153.0004
  21354217.9644   -4802126.50049  -3712847.96947  21354217.1134   21354220.6284
       236.0004        194.0004
  22017516.8424    2403402.67849   1885055.55547  22017516.7404   22017520.5164
       233.0004        189.0004
  23743022.6454   -3022059.00449  -2330509.75345  23743022.0284   23743027.9534
       210.0004        149.0004
  21306691.1084   -5341816.04749  -4117689.99547  21306691.1654   21306692.9724
       242.0004        207.0004
 07  2 17 16 14 25.0000000  0  8G 4G 2G30G17G 5G 9G24G12
  21369771.9574    2505081.08649   1963718.77347  21369772.4744   21369774.8214
       241.0004        198.0004
  20215727.5734   -2293805.21949   -976678.32348  20215727.2834   20215727.9624
       248.0004        223.0004
  23544464.1054   -4596784.37749  -3543896.32845  23544463.8174   23544468.5854
       214.0004        155.0004
  24093438.0574    3128541.33449   2444460.21845  24093438.3704   24093440.9974
       218.0004        153.0004
  21352024.9944   -4813650.61349  -3721827.79147  21352024.3714   21352027.9804
       237.0004        194.0004
  22019965.6864    2416271.47049   1895083.19047  22019965.1454   22019969.2964
       234.0004        189.0004
  23739699.0164   -3039524.54649  -2344119.26745  23739698.2894   23739704.1304
       213.0004        149.0004
  21304699.4284   -5352282.52149  -4125845.68747  21304699.4634   21304701.2764
       242.0004        207.0004
 07  2 17 16 14 30.0000000  0  8G 4G 2G30G17G 5G 9G24G12
  21372055.6174    2517081.78249   1973069.97447  21372055.3344   21372058.8074
       239.0004        198.0004
  20215071.2814   -2297254.03149   -979365.70848  20215070.8584   20215071.6744
       248.0004        223.0004
  23541312.6244   -4613345.83249  -3556801.35645  23541313.2984   23541317.3804
       214.0004        154.0004
  24095744.5254    3140661.97749   2453904.87245  24095744.2534   24095746.7624
       219.0004        153.0004
  21349833.7114   -4825165.85149  -3730800.70547  21349832.8284   21349836.2944
       237.0004        194.0004
  22022416.5784    2429150.96949   1905119.14747  22022416.9384   22022420.4794
       233.0004        189.0004
  23736376.5044   -3056984.50649  -2357724.42945  23736376.5884   23736381.5564
       213.0004        149.0004
  21302709.1864   -5362741.23749  -4133995.34147  21302709.2614   21302710.8704
       242.0004        207.0004
 07  2 17 16 14 35.0000000  0  8G 4G 2G30G17G 5G 9G24G12
  21374341.2864    2529093.02149   1982429.36447  21374341.3714   21374344.5064
       239.0004        198.0004
  20214417.7674   -2300688.25849   -982041.73048  20214417.4304   20214418.0804
       248.0004        223.0004
  23538161.6224   -4629904.62849  -3569704.30645  23538162.6294   23538164.8524
       215.0004        154.0004
  24098051.1074    3152783.18749   2463349.95845  24098051.8764   24098054.7964
       219.0004        154.0004
  21347644.1104   -4836672.29249  -3739766.76847  21347643.3244   21347647.1494
       237.0004        194.0004
  22024869.4904    2442041.11249   1915163.41547  22024869.6604   22024873.4014
       234.0004        189.0004
  23733055.0354   -3074438.92049  -2371325.27145  23733054.4384   23733060.5244
       214.0004        149.0004
  21300720.4474   -5373192.21849  -4142138.95847  21300720.6484   21300722.3144
       243.0004        207.0004
 07  2 17 16 14 40.0000000  0  8G 4G 2G30G17G 5G 9G24G12
  21376628.9014    2541114.46749   1991796.73247  21376628.7584   21376632.1724
       240.0004        198.0004
  20213766.9744   -2304108.22549   -984706.63848  20213766.6114   20213767.3204
       249.0004        223.0004
  23535011.0254   -4646461.09749  -3582605.44945  23535011.5414   23535014.4534
       216.0004        155.0004
  24100357.7614    3164904.63249   2472795.23745  24100357.5804   24100362.0734
       219.0004        154.0004
  21345456.1674   -4848170.23549  -3748726.19347  21345455.2894   21345458.6034
       237.0004        194.0004
  22027324.4204    2454941.60949   1925215.74247  22027324.2714   22027328.2934
       233.0004        189.0004
  23729734.5774   -3091888.10349  -2384922.04545  23729734.9864   23729740.1084
       213.0004        149.0004
  21298733.1254   -5383635.79149  -4150276.80647  21298733.1144   21298734.9734
       242.0004        207.0004
 07  2 17 16 14 45.0000000  0  8G 4G 2G30G17G 5G 9G24G12
  21378918.4864    2553146.33349   2001172.20147  21378918.7234   21378921.9064
       239.0004        198.0004
  20213118.9274   -2307513.68949   -987360.24648  20213118.3694   20213119.1534
       248.0004        223.0004
  23531860.9414   -4663014.96849  -3595504.56945  23531861.7714   23531863.7194
       217.0004        155.0004
  24102664.5014    3177026.55649   2482240.88545  24102663.9434   24102665.6004
       219.0004        154.0004
  21343269.8614   -4859659.41749  -3757678.80847  21343269.2924   21343272.5784
       237.0004        194.0004
  22029781.3074    2467852.62749   1935276.27147  22029781.6994   22029785.2234
       234.0004        189.0004
  23726415.1384   -3109331.79349  -2398514.53545  23726414.6654   23726420.4324
       213.0004        150.0004
  21296747.2304   -5394071.70649  -4158408.68647  21296747.3194   21296749.1014
       243.0004        207.0004
 07  2 17 16 14 50.0000000  0  8G 4G 2G30G17G 5G 9G24G12
  21381210.0244    2565188.55149   2010555.74647  21381210.4564   21381213.1754
       241.0004        198.0004
  20212473.6474   -2310904.69349   -990002.58448  20212473.0964   20212473.9174
       248.0004        223.0004
  23528711.3104   -4679566.30649  -3608401.69645  23528711.3724   23528714.9614
       218.0004        156.0004
  24104971.3434    3189148.91949   2491686.88645  24104971.6854   24104975.1104
       219.0004        153.0004
  21341085.2054   -4871139.89849  -3766624.63647  21341084.5554   21341087.9534
       238.0004        194.0004
  22032240.2074    2480774.10549   1945344.94747  22032239.7284   22032244.2824
       232.0004        189.0004
  23723096.7724   -3126770.06249  -2412102.79545  23723095.9024   23723102.2064
       212.0004        150.0004
  21294762.7784   -5404500.02949  -4166534.65447  21294762.8724   21294764.4434
       242.0004        207.0004
 07  2 17 16 14 55.0000000  0  8G 4G 2G30G17G 5G 9G24G12
  21383503.5924    2577241.27949   2019947.49447  21383502.9994   21383506.9464
       238.0004        198.0004
  20211831.1484   -2314281.10149   -992633.55048  20211830.5514   20211831.4944
       248.0004        223.0004
  23525562.2494   -4696114.91549  -3621296.72745  23525563.3414   23525566.8864
       218.0004        157.0004
  24107278.2574    3201271.90349   2501133.36345  24107278.1394   24107281.6814
       219.0004        153.0004
  21338902.2664   -4882611.48449  -3775563.53147  21338901.5564   21338905.1744
       237.0004        194.0004
  22034701.1074    2493706.16449   1955421.87647  22034700.9344   22034705.1334
       233.0004        189.0004
  23719779.4754   -3144202.68949  -2425686.66545  23719779.5384   23719784.6434
       211.0004        150.0004
  21292779.8314   -5414920.56449  -4174654.54947  21292779.8354   21292781.6764
       243.0004        207.0004
 07  2 17 16 15  0.0000000  0  8G 4G 2G30G17G 5G 9G24G12
  21385799.0834    2589304.11249   2029347.08547  21385799.4694   21385802.5344
       240.0004        198.0004
  20211191.3274   -2317643.31349   -995253.46048  20211190.8544   20211191.7054
       248.0004        223.0004
  23522413.6224   -4712661.23849  -3634189.95745  23522414.8614   23522417.4244
       219.0004        158.0004
  24109585.2114    3213395.03749   2510579.93845  24109586.0314   24109588.9794
       220.0004        154.0004
  21336720.8934   -4894074.60349  -3784495.83647  21336720.3864   21336723.8604
       236.0004        194.0004
  22037163.9164    2506648.39149   1965506.72147  22037163.4594   22037167.5744
       232.0004        189.0004
  23716463.1304   -3161630.14749  -2439266.50445  23716462.9344   23716468.3374
       209.0004        150.0004
  21290798.2814   -5425333.69649  -4182768.67847  21290798.2674   21290800.0954
       242.0004        207.0004
 07  2 17 16 15  5.0000000  0  8G 4G 2G30G17G 5G 9G24G12
  21388096.5684    2601377.49249   2038754.93047  21388096.5394   21388099.5954
       239.0004        198.0004
  20210554.3074   -2320990.85549   -997861.93148  20210553.8554   20210554.7264
       248.0004        223.0004
  23519265.5724   -4729204.73649  -3647081.00445  23519266.5614   23519269.6584
       218.0004        158.0004
  24111892.2874    3225518.82049   2520027.02945  24111892.7244   24111894.9824
       218.0004        154.0004
  21334541.2354   -4905528.76649  -3793421.15547  21334540.3254   21334544.1594
       236.0004        194.0004
  22039628.7734    2519601.30349   1975599.88847  22039628.6234   22039632.4034
       232.0004        189.0004
  23713147.8584   -3179051.91449  -2452841.89545  23713147.9194   23713153.5484
       210.0004        150.0004
  21288818.2414   -5435738.94249  -4190876.65647  21288818.3184   21288819.9704
       242.0004        207.0004
 07  2 17 16 15 10.0000000  0  8G 4G 2G30G17G 5G 9G24G12
  21390396.0104    2613461.26449   2048170.84147  21390396.2774   21390398.9804
       239.0004        198.0004
  20209920.0544   -2324323.91849  -1000459.12248  20209919.5544   20209920.3324
       248.0004        223.0004
  23516118.0604   -4745745.62949  -3659970.01345  23516118.7704   23516122.9604
       216.0004        158.0004
  24114199.4344    3237643.05049   2529474.46445  24114199.2074   24114202.9814
       218.0004        153.0004
  21332363.2544   -4916974.16149  -3802339.64447  21332362.6934   21332366.1954
       236.0004        194.0004
  22042095.5944    2532564.64349   1985701.19147  22042095.7054   22042099.2704
       234.0004        188.0004
  23709833.6544   -3196468.19249  -2466413.00945  23709832.9344   23709838.7144
       210.0004        150.0004
  21286839.6294   -5446136.50149  -4198978.65247  21286839.6584   21286841.3384
       241.0004        207.0004
 07  2 17 16 15 15.0000000  0  8G 4G 2G30G17G 5G 9G24G12
  21392697.4474    2625555.35249   2057594.80347  21392697.9934   21392701.2074
       241.0004        198.0004
  20209288.5634   -2327642.48549  -1003045.01948  20209288.0714   20209288.8794
       248.0004        223.0004
  23512971.0414   -4762283.87049  -3672856.94945  23512971.0994   23512974.7224
       214.0004        158.0004
  24116506.6894    3249767.80449   2538922.32545  24116506.0504   24116509.6204
       219.0004        154.0004
  21330186.9184   -4928410.74549  -3811251.26647  21330185.9004   21330189.5564
       236.0004        194.0004
  22044564.4364    2545538.41849   1995810.62047  22044564.8554   22044568.4544
       234.0004        188.0004
  23706520.4984   -3213878.94149  -2479979.81445  23706519.7784   23706525.8194
       210.0004        149.0004
  21284862.4824   -5456526.32749  -4207074.62047  21284862.4664   21284864.4054
       242.0004        207.0004
 07  2 17 16 15 20.0000000  0  8G 4G 2G30G17G 5G 9G24G12
  21395000.8804    2637659.69249   2067026.76247  21395000.5494   21395004.4704
       239.0004        198.0004
  20208659.8124   -2330946.55349  -1005619.61548  20208659.4064   20208660.1544
       248.0004        223.0004
  23509824.4744   -4778819.48049  -3685741.81845  23509824.1174   23509828.1874
       215.0004        157.0004
  24118814.0344    3261893.00649   2548370.52645  24118814.5724   24118816.0244
       220.0004        153.0004
  21328012.2674   -4939838.55449  -3820156.05547  21328011.8054   21328014.7964
       236.0004        194.0004
  22047035.2764    2558522.60149   2005928.15847  22047035.4454   22047038.6384
       234.0004        188.0004
  23703208.3784   -3231284.17749  -2493542.33445  23703208.0014   23703213.9614
       212.0004        150.0004
  21282886.8134   -5466908.44449  -4215164.58447  21282887.1044   21282888.7404
       243.0004        207.0004
 07  2 17 16 15 25.0000000  0  8G 4G 2G30G17G 5G 9G24G12
  21397306.2114    2649774.35749   2076466.74247  21397306.9134   21397309.1374
       240.0004        198.0004
  20208033.7994   -2334236.18149  -1008182.96248  20208033.3804   20208034.1654
       249.0004        223.0004
  23506678.3404   -4795352.47249  -3698624.66245  23506677.7964   23506681.5764
       215.0004        157.0004
  24121121.4654    3274018.67049   2557819.08945  24121120.9054   24121124.6304
       218.0004        153.0004
  21325839.2984   -4951257.56949  -3829053.98247  21325838.4294   21325842.1284
       237.0004        194.0004
  22049508.0644    2571517.15049   2016053.78147  22049508.0434   22049511.7684
       234.0004        188.0004
  23699897.2994   -3248683.87849  -2507100.54645  23699896.9734   23699903.0614
       214.0004        150.0004
  21280912.5974   -5477282.87949  -4223248.56747  21280912.7614   21280914.4984
       243.0004        207.0004
 07  2 17 16 15 30.0000000  0  8G 4G 2G30G17G 5G 9G24G12
  21399613.5034    2661899.25549   2085914.72947  21399613.7264   21399616.5724
       240.0004        198.0004
  20207410.5784   -2337511.34449  -1010735.03948  20207410.1714   20207410.9154
       248.0004        223.0004
  23503532.6984   -4811882.84449  -3711505.46945  23503532.0434   23503535.9724
       217.0004        157.0004
  24123428.9944    3286144.80749   2567268.03845  24123429.1284   24123432.8374
       219.0004        152.0004
  21323668.0074   -4962667.76049  -3837945.04047  21323667.1824   21323671.2634
       236.0004        194.0004
  22051982.8474    2584522.07249   2026187.47847  22051982.8904   22051986.1254
       233.0004        188.0004
  23696587.3074   -3266078.05149  -2520654.45545  23696587.1444   23696593.3794
       213.0004        150.0004
  21278939.9054   -5487649.59849  -4231326.52747  21278940.0664   21278941.7314
       243.0004        207.0004
 07  2 17 16 15 35.0000000  0  8G 4G 2G30G17G 5G 9G24G12
  21401922.7324    2674034.20149   2095370.52747  21401922.3074   21401926.5784
       238.0004        198.0004
  20206790.0344   -2340772.32249  -1013276.05948  20206789.6614   20206790.4364
       248.0004        224.0004
  23500387.4904   -4828410.78349  -3724384.38745  23500388.0004   23500390.7704
       220.0004        157.0004
  24125736.5564    3298271.11149   2576717.08445  24125736.9904   24125739.2064
       221.0004        153.0004
  21321498.3344   -4974069.42749  -3846829.45247  21321497.5244   21321501.5724
       236.0004        194.0004
  22054459.5314    2597537.03549   2036329.00447  22054458.9064   22054463.3804
       232.0004        188.0004
  23693278.2724   -3283466.97449  -2534204.27545  23693277.6754   23693283.2084
       215.0004        151.0004
  21276968.6204   -5498008.89849  -4239398.70447  21276968.5414   21276970.6244
       242.0004        207.0004
 07  2 17 16 15 40.0000000  0  8G 4G 2G30G17G 5G 9G24G12
  21404233.9404    2686179.76149   2104834.58447  21404234.7574   21404236.6484
       241.0004        198.0004
  20206172.3084   -2344018.47149  -1015805.52548  20206171.9084   20206172.6334
       248.0004        224.0004
  23497242.9094   -4844935.69249  -3737260.94745  23497243.6274   23497247.1744
       221.0004        158.0004
  24128044.3014    3310398.22649   2586166.78545  24128045.6624   24128047.7424
       221.0004        153.0004
  21319330.4074   -4985461.91149  -3855706.71447  21319329.8454   21319333.1754
       236.0004        194.0004
  22056938.2574    2610562.70949   2046478.86947  22056938.3394   22056941.3944
       233.0004        188.0004
  23689970.4224   -3300849.96749  -2547749.46845  23689969.7954   23689975.4434
       215.0004        151.0004
  21274998.8494   -5508360.09149  -4247464.57147  21274999.0554   21275000.7074
       242.0004        207.0004
 07  2 17 16 15 45.0000000  0  8G 4G 2G30G17G 5G 9G24G12
  21406547.1814    2698335.83849   2114306.87147  21406547.1464   21406550.0834
       240.0004        198.0004
  20205557.4174   -2347249.86949  -1018323.49848  20205557.0044   20205557.7854
       248.0004        224.0004
  23494098.9354   -4861457.67549  -3750135.23145  23494100.0034   23494102.1034
       221.0004        158.0004
  24130352.1594    3322526.04149   2595617.03545  24130353.4644   24130356.4324
       223.0004        153.0004
  21317164.2004   -4996845.27049  -3864576.86247  21317163.4554   21317167.3484
       236.0004        194.0004
  22059418.9644    2623598.94949   2056636.97447  22059418.5224   22059422.2604
       233.0004        188.0004
  23686663.6624   -3318227.10649  -2561290.09645  23686663.4744   23686669.4894
       213.0004        151.0004
  21273030.6344   -5518703.29249  -4255524.20947  21273030.7374   21273032.6234
       242.0004        207.0004
 07  2 17 16 15 50.0000000  0  8G 4G 2G30G17G 5G 9G24G12
  21408862.3344    2710501.89749   2123786.90147  21408862.3834   21408866.2514
       239.0004        198.0004
  20204945.1834   -2350467.08349  -1020830.41648  20204944.7984   20204945.5794
       248.0004        224.0004
  23490955.4504   -4877977.25049  -3763007.63345  23490956.1994   23490959.3624
       220.0004        158.0004
  24132660.1034    3334653.98449   2605067.36745  24132660.1274   24132663.8834
       220.0004        154.0004
  21314999.6544   -5008220.05149  -3873440.32847  21314999.0434   21315002.4544
       237.0004        194.0004
  22061901.5944    2636645.21649   2066802.89646  22061901.1344   22061905.2584
       233.0004        187.0004
  23683357.9074   -3335598.98449  -2574826.62945  23683357.2434   23683364.5044
       213.0004        151.0004
  21271063.8124   -5529039.03649  -4263578.03347  21271063.7394   21271065.7094
       243.0004        207.0004
 07  2 17 16 15 55.0000000  0  8G 4G 2G30G17G 5G 9G24G12
  21411179.3994    2722678.00649   2133274.78347  21411179.8094   21411182.9834
       241.0004        198.0004
  20204335.7104   -2353669.96249  -1023326.16748  20204335.2004   20204336.0794
       248.0004        224.0004
  23487812.4604   -4894494.24349  -3775878.01945  23487813.2054   23487815.7944
       219.0004        159.0004
  24134968.1224    3346782.25949   2614517.96745  24134968.0494   24134972.0554
       218.0004        154.0004
  21312836.7664   -5019586.09349  -3882296.98247  21312836.0714   21312839.7604
       236.0004        194.0004
  22064386.1744    2649701.67749   2076976.75546  22064386.0234   22064389.8984
       232.0004        187.0004
  23680053.1904   -3352965.42749  -2588358.91645  23680052.6314   23680059.4694
       212.0004        151.0004
  21269098.4734   -5539367.10649  -4271625.87747  21269098.4504   21269100.3254
       242.0004        207.0004
 07  2 17 16 16  0.0000000  0  8G 4G 2G30G17G 5G 9G24G12
  21413498.4354    2734864.58249   2142770.81447  21413497.9244   21413500.9474
       238.0004        197.0004
  20203729.0044   -2356858.17749  -1025810.49048  20203728.6004   20203729.3924
       248.0004        224.0004
  23484670.0134   -4911008.35349  -3788746.14745  23484670.3014   23484673.6324
       215.0004        159.0004
  24137276.2194    3358911.21349   2623969.10445  24137276.5414   24137279.7054
       219.0004        153.0004
  21310675.5964   -5030943.07449  -3891146.58147  21310674.8374   21310678.7314
       237.0004        194.0004
  22066872.7434    2662768.62049   2087158.77846  22066871.9624   22066876.2814
       233.0004        187.0004
  23676749.5674   -3370326.06449  -2601886.68645  23676748.6784   23676756.1474
       212.0004        151.0004
  21267134.6044   -5549687.18849  -4279667.50247  21267134.3294   21267136.5344
       243.0004        207.0004
 07  2 17 16 16  5.0000000  0  8G 4G 2G30G17G 5G 9G24G12
  21415819.4054    2747061.33849   2152274.76647  21415819.6074   21415822.3464
       240.0004        197.0004
  20203125.0704   -2360031.92049  -1028283.53448  20203124.5484   20203125.4374
       248.0004        224.0004
  23481528.0354   -4927519.75249  -3801612.14545  23481526.6774   23481531.5164
       215.0004        159.0004
  24139584.3694    3371040.63249   2633420.58345  24139584.2244   24139589.1484
       218.0004        154.0004
  21308516.1424   -5042291.17249  -3899989.25247  21308515.4624   21308518.8974
       237.0004        195.0004
  22069361.2504    2675845.82849   2097348.80346  22069361.2594   22069365.4854
       232.0004        187.0004
  23673446.9994   -3387681.12749  -2615410.10045  23673446.4644   23673452.6004
       210.0004        151.0004
  21265172.2534   -5559999.54049  -4287703.10047  21265172.0084   21265174.1694
       242.0004        207.0004
 07  2 17 16 16 10.0000000  0  8G 4G 2G30G17G 5G 9G24G12
  21418142.2914    2759268.16649   2161786.59247  21418142.3094   21418145.9844
       239.0004        197.0004
  20202523.8704   -2363191.30549  -1030745.39448  20202523.4944   20202524.2464
       248.0004        224.0004
  23478386.5054   -4944028.45749  -3814476.04845  23478385.5424   23478390.6014
       217.0004        159.0004
  24141892.5774    3383170.41349   2642872.33745  24141891.4564   24141896.9734
       220.0004        154.0004
  21306358.3644   -5053630.44849  -3908825.04947  21306357.8554   21306361.3854
       237.0004        195.0004
  22071851.7064    2688933.16649   2107546.72146  22071851.4854   22071855.2484
       233.0004        187.0004
  23670145.4874   -3405030.64249  -2628929.19345  23670145.2094   23670150.8494
       211.0004        151.0004
  21263211.3594   -5570304.17649  -4295732.68547  21263211.1854   21263213.1574
       242.0004        207.0004
 07  2 17 16 16 15.0000000  0  8G 4G 2G30G17G 5G 9G24G12
  21420467.0964    2771485.19649   2171306.34847  21420466.8994   21420469.9254
       239.0004        197.0004
  20201925.4204   -2366336.21849  -1033195.97448  20201924.9584   20201925.6504
       248.0004        224.0004
  23475245.4644   -4960534.39149  -3827337.81345  23475245.1564   23475249.3444
       220.0004        159.0004
  24144200.8724    3395300.67249   2652324.46445  24144201.4174   24144201.5744
       220.0004        154.0004
  21304202.2674   -5064960.81649  -3917653.90447  21304201.3584   21304204.8334
       236.0004        195.0004
  22074344.0954    2702030.76349   2117752.63947  22074343.2104   22074347.6464
       232.0004        188.0004
  23666845.0474   -3422374.49849  -2642443.87645  23666845.0944   23666850.3894
       213.0004        152.0004
  21261251.9364   -5580600.97049  -4303756.16047  21261251.5924   21261253.8824
       242.0004        207.0004
 07  2 17 16 16 20.0000000  0  8G 4G 2G30G17G 5G 9G24G12
  21422793.8684    2783712.36949   2180834.01447  21422794.0384   21422796.8324
       240.0004        197.0004
  20201329.7084   -2369466.72549  -1035635.33048  20201329.3914   20201330.1544
       248.0004        224.0004
  23472104.9834   -4977037.68649  -3840197.53445  23472106.2994   23472108.0364
       221.0004        159.0004
  24146509.2404    3407431.27149   2661776.91245  24146509.9394   24146511.3124
       221.0004        154.0004
  21302047.8444   -5076282.29349  -3926475.83247  21302047.0804   21302050.8274
       237.0004        195.0004
  22076838.4154    2715138.48749   2127966.43346  22076838.7434   22076841.9764
       233.0004        187.0004
  23663545.6704   -3439712.78149  -2655954.21745  23663545.8184   23663551.2304
       213.0004        152.0004
  21259293.9984   -5590889.99849  -4311773.58447  21259293.8574   21259296.0194
       242.0004        207.0004
 07  2 17 16 16 25.0000000  0  8G 4G 2G30G17G 5G 9G24G12
  21425122.5834    2795949.77049   2190369.66347  21425122.2864   21425126.2414
       239.0004        197.0004
  20200736.7464   -2372582.65049  -1038063.32248  20200736.2814   20200737.0484
       249.0004        224.0004
  23468965.0774   -4993538.13349  -3853055.04145  23468966.0634   23468967.8664
       221.0004        159.0004
  24148817.7404    3419562.44649   2671229.76645  24148816.9624   24148821.3334
       217.0004        154.0004
  21299895.1594   -5087594.71349  -3935290.70147  21299894.2404   21299898.0744
       237.0004        195.0004
  22079334.7324    2728256.53749   2138188.30046  22079334.0654   22079338.2364
       233.0004        187.0004
  23660247.4124   -3457045.30549  -2669460.07945  23660247.6214   23660253.4934
       214.0004        152.0004
  21257337.5834   -5601171.07949  -4319784.81347  21257337.4714   21257339.4554
       241.0004        207.0004
 07  2 17 16 16 30.0000000  0  8G 4G 2G30G17G 5G 9G24G12
  21427453.2234    2808197.40649   2199913.25447  21427453.5334   21427456.4724
       239.0004        197.0004
  20200146.5774   -2375684.02549  -1040479.97848  20200146.1104   20200146.8004
       248.0004        224.0004
  23465825.7374   -5010035.74249  -3865910.33745  23465826.8464   23465827.9064
       220.0004        159.0004
  24151126.3414    3431694.24049   2680683.08245  24151125.8434   24151129.9194
       218.0004        154.0004
  21297744.1674   -5098898.08849  -3944098.53147  21297743.5594   21297747.0524
       237.0004        195.0004
  22081832.9754    2741384.88649   2148418.16346  22081832.5954   22081836.6804
       232.0004        187.0004
  23656950.2414   -3474372.10749  -2682961.48045  23656950.1744   23656955.4364
       213.0004        153.0004
  21255382.6534   -5611444.19749  -4327789.84547  21255382.7354   21255384.5034
       243.0004        207.0004
 07  2 17 16 16 35.0000000  0  8G 4G 2G30G17G 5G 9G24G12
  21429785.7854    2820455.28249   2209464.84747  21429786.0384   21429788.1594
       241.0004        197.0004
  20199559.1734   -2378770.84349  -1042885.28948  20199558.7264   20199559.4584
       248.0004        224.0004
  23462686.9424   -5026530.49449  -3878763.39345  23462686.8204   23462690.8924
       219.0004        159.0004
  24153435.0714    3443826.57249   2690136.83845  24153435.9844   24153436.4584
       218.0004        153.0004
  21295594.9114   -5110192.42149  -3952899.30547  21295594.4074   21295598.0414
       238.0004        195.0004
  22084333.1724    2754523.49249   2158656.02746  22084333.3744   22084336.9584
       232.0004        187.0004
  23653654.1394   -3491693.15849  -2696458.40345  23653653.4464   23653660.0184
       211.0004        153.0004
  21253429.2224   -5621709.37949  -4335788.68347  21253429.2574   21253431.1294
       243.0004        207.0004
 07  2 17 16 16 40.0000000  0  8G 4G 2G30G17G 5G 9G24G12
  21432120.3454    2832723.30249   2219024.34847  21432120.2524   21432123.5434
       239.0004        197.0004
  20198974.5664   -2381843.10149  -1045279.25648  20198974.1614   20198974.7754
       248.0004        224.0004
  23459548.6604   -5043022.36549  -3891614.21145  23459548.8024   23459552.2204
       217.0004        159.0004
  24155743.8894    3455959.44549   2699591.03445  24155745.0764   24155747.1184
       219.0004        153.0004
  21293447.3954   -5121477.73749  -3961693.05747  21293446.7244   21293450.4504
       238.0004        195.0004
  22086835.3064    2767672.35249   2168901.89046  22086835.3524   22086838.6524
       233.0004        187.0004
  23650359.1584   -3509008.47849  -2709950.86145  23650357.6784   23650365.0444
       211.0004        153.0004
  21251477.3364   -5631966.57749  -4343781.31147  21251477.3984   21251479.1424
       242.0004        207.0004
 07  2 17 16 16 45.0000000  0  8G 4G 2G30G17G 5G 9G24G12
  21434456.7694    2845001.41849   2228591.69747  21434457.4344   21434460.4024
       240.0004        197.0004
  20198392.6684   -2384900.94049  -1047661.98948  20198392.2944   20198393.0404
       248.0004        224.0004
  23456410.9134   -5059511.46649  -3904462.84145  23456410.0354   23456414.8724
       217.0004        158.0004
  24158052.8014    3468092.74849   2709045.53945  24158052.4884   24158056.6074
       218.0004        153.0004
  21291301.5934   -5132754.13649  -3970479.86547  21291300.9894   21291304.2884
       237.0004        195.0004
  22089339.3814    2780831.29749   2179155.60546  22089339.5184   22089342.2504
       233.0004        187.0004
  23647065.2144   -3526318.16949  -2723438.92845  23647065.5074   23647070.8884
       211.0004        153.0004
  21249526.9394   -5642215.96049  -4351767.84347  21249526.9794   21249528.8544
       242.0004        208.0004
 07  2 17 16 16 50.0000000  0  8G 4G 2G30G17G 5G 9G24G12
  21436795.1424    2857289.53749   2238166.86647  21436795.3054   21436798.2174
       240.0004        197.0004
  20197813.5204   -2387944.37349  -1050033.49448  20197813.1854   20197813.8814
       248.0004        224.0004
  23453273.6174   -5075997.85449  -3917309.36245  23453273.0674   23453277.3134
       217.0004        158.0004
  24160361.7824    3480226.41949   2718500.32845  24160361.6104   24160364.1204
       218.0004        153.0004
  21289157.4984   -5144021.60349  -3979259.70847  21289156.8134   21289160.3774
       237.0004        195.0004
  22091845.4144    2794000.35749   2189417.20746  22091845.5444   22091848.7734
       233.0004        187.0004
  23643772.3364   -3543622.23149  -2736922.60545  23643772.1074   23643778.1824
       211.0004        152.0004
  21247578.0294   -5652457.54749  -4359748.30047  21247578.0884   21247580.1144
       242.0004        208.0004
 07  2 17 16 16 55.0000000  0  8G 4G 2G30G17G 5G 9G24G12
  21439135.4354    2869587.77749   2247749.90247  21439135.3654   21439138.5374
       239.0004        197.0004
  20197237.1244   -2390973.34949  -1052393.73548  20197236.7744   20197237.3224
       249.0004        224.0004
  23450136.8824   -5092481.43449  -3930153.69345  23450136.9984   23450140.5214
       220.0004        158.0004
  24162670.8524    3492360.52449   2727955.47045  24162669.2324   24162673.7894
       217.0004        153.0004
  21287015.0914   -5155280.09649  -3988032.55747  21287014.1074   21287017.6364
       238.0004        195.0004
  22094353.3504    2807179.52749   2199686.69446  22094353.2784   22094356.4014
       233.0004        187.0004
  23640480.5444   -3560920.59249  -2750401.83845  23640480.2664   23640485.9964
       212.0004        152.0004
  21245630.6354   -5662691.28149  -4367722.63547  21245630.6964   21245632.7354
       242.0004        208.0004
 07  2 17 16 17  0.0000000  0  8G 4G 2G30G17G 5G 9G24G12
  21441477.6564    2881896.05749   2257340.76647  21441478.1844   21441481.2394
       241.0004        197.0004
  20196663.4994   -2393987.87349  -1054742.71348  20196663.1214   20196663.8594
       249.0004        224.0004
  23447000.6654   -5108962.19149  -3942995.84745  23447000.7194   23447003.2674
       220.0004        159.0004
  24164979.9854    3504495.07949   2737410.97345  24164980.3624   24164982.8584
       218.0004        153.0004
  21284874.3844   -5166529.59249  -3996798.39547  21284873.6494   21284877.4474
       237.0004        195.0004
  22096863.2094    2820368.81149   2209964.04546  22096862.4204   22096866.4044
       231.0004        187.0004
  23637189.8594   -3578213.25449  -2763876.63545  23637189.6244   23637195.5284
       212.0004        153.0004
  21243684.7024   -5672917.15649  -4375690.84447  21243684.6234   21243686.7864
       242.0004        208.0004
 07  2 17 16 17  5.0000000  0  8G 4G 2G30G17G 5G 9G24G12
  21443821.8314    2894214.49249   2266939.54747  21443821.8114   21443825.0224
       239.0004        197.0004
  20196092.6164   -2396987.82049  -1057080.33548  20196092.2264   20196092.9844
       248.0004        224.0004
  23443865.0564   -5125440.02949  -3955835.73345  23443865.6704   23443867.1434
       221.0004        159.0004
  24167289.2024    3516630.21749   2746866.92445  24167289.4844   24167292.8814
       218.0004        153.0004
  21282735.4064   -5177769.97549  -4005557.13947  21282734.6594   21282738.5614
       237.0004        195.0004
  22099374.9834    2833568.30249   2220249.35846  22099374.5314   22099378.2854
       231.0004        187.0004
  23633900.2874   -3595500.07449  -2777346.88145  23633900.0014   23633905.2364
       214.0004        153.0004
  21241740.3034   -5683134.99149  -4383652.79447  21241740.1094   21241742.2614
       241.0004        208.0004
